GFSCGP_sfc_30mbdewp_000.txt.gz
Dewpoint
23 19 16 16 16 15 13 15 15 16 16 14 22 25 27 37 39 39 40 43 43 41 42 45 46 46 46 47 46 47 49 49 41 43 42 42 40 40 40 41 42 41 42 42
20 18 18 20 23 22 19 18 18 18 18 15 24 26 31 35 36 37 40 41 42 41 41 42 42 43 42 42 42 41 41 42 43 44 45 43 41 41 42 43 41 43 41 40
19 18 20 24 23 23 26 21 21 19 20 21 24 25 29 30 32 33 36 40 41 41 41 41 41 39 38 37 38 37 38 39 40 40 39 40 41 42 42 38 40 38 37 38
21 25 26 25 23 25 24 27 24 21 17 12 19 21 25 30 32 35 38 39 41 41 42 41 40 40 39 38 38 37 37 37 38 38 38 39 41 39 40 40 38 35 36 36
25 26 26 24 24 25 25 27 24 23 22 22 20 21 26 29 30 32 36 38 40 40 41 41 41 40 40 39 38 38 37 37 37 37 38 39 37 35 39 38 34 33 35 35
25 28 26 26 27 26 25 27 28 27 26 21 26 24 26 28 29 32 34 37 38 39 40 41 41 41 39 39 37 36 35 36 38 37 37 38 35 35 36 33 31 31 34 34
26 26 27 28 27 27 26 28 24 23 22 21 28 27 29 30 32 34 35 36 37 39 40 40 40 39 39 38 38 38 38 37 37 38 37 37 36 34 31 31 30 29 32 34
24 24 25 25 25 24 25 24 22 21 19 19 25 25 27 31 34 36 36 36 36 37 39 40 40 39 39 40 40 39 35 34 36 34 34 35 36 35 34 33 32 32 35 35
25 24 28 24 25 28 26 21 24 24 28 22 24 26 27 29 29 30 31 33 36 36 37 38 38 39 39 38 38 37 34 31 31 33 34 35 36 36 36 36 35 36 35 35
26 20 23 23 30 29 21 24 23 22 15 15 22 24 25 27 28 28 31 33 36 37 36 36 37 38 37 36 36 37 37 34 33 34 35 35 35 35 37 36 35 33 33 34
32 24 23 29 26 25 25 25 26 25 23 16 19 20 28 30 29 31 33 35 35 36 36 36 36 36 33 32 33 34 35 37 36 35 36 35 35 35 35 35 33 32 32 32
30 26 23 24 26 27 26 26 25 17 25 27 25 22 29 29 31 34 34 34 36 37 37 36 35 33 31 31 29 25 30 30 30 34 36 37 37 35 33 32 30 30 30 30
30 24 21 26 29 28 25 25 30 28 24 20 16 15 31 33 32 34 34 36 37 36 35 34 33 31 29 24 21 21 22 22 23 25 29 31 33 36 33 29 29 27 26 24
36 31 23 17 23 23 19 21 29 26 22 22 21 20 31 33 34 35 36 36 35 34 34 32 31 30 23 21 20 20 21 22 21 21 23 23 26 31 31 28 29 31 33 33
34 26 28 24 27 25 23 22 23 23 24 23 22 25 33 34 35 36 36 35 34 33 32 31 31 25 20 20 19 19 20 20 22 21 23 31 34 32 31 31 31 33 33 33
37 29 28 24 31 29 22 22 23 23 22 23 31 32 35 35 37 36 35 34 33 32 31 30 29 20 19 19 18 18 18 20 22 21 29 31 33 34 34 32 34 33 34 23
33 28 24 15 30 29 20 24 27 26 30 25 24 33 35 35 36 35 33 32 31 30 29 29 21 16 18 17 17 16 18 20 22 24 30 31 32 33 34 35 35 34 25 17
33 33 28 18 24 9 27 29 29 34 35 35 35 34 34 35 36 33 32 30 31 30 28 23 14 14 16 16 16 17 19 20 22 29 29 31 30 31 32 34 32 31 24 18
34 29 25 15 20 18 24 28 27 26 33 37 36 36 35 36 34 33 32 31 29 26 21 18 15 14 15 16 16 18 19 20 22 28 29 30 31 31 31 31 31 32 27 17
37 31 22 27 12 3 22 32 33 30 26 38 37 36 35 34 30 30 35 35 30 20 19 16 15 15 15 16 17 18 20 22 22 28 30 31 32 32 32 32 31 30 17 22
32 32 24 26 20 22 25 31 32 26 19 39 38 38 36 33 31 33 37 33 22 20 17 17 16 16 17 18 20 21 22 22 24 28 29 30 31 30 30 30 24 18 22 22
24 24 27 28 25 17 30 33 29 29 41 40 39 38 37 37 36 36 33 22 20 17 17 17 17 18 20 21 22 21 22 24 26 26 27 27 26 25 23 21 20 21 20 19
24 24 25 28 25 29 32 32 36 40 40 41 39 39 38 36 36 28 23 19 17 16 16 17 17 19 21 22 22 22 22 25 26 26 26 25 24 24 24 20 18 20 19 18
32 35 33 33 32 34 35 42 43 42 41 41 39 39 37 35 29 20 18 17 16 17 17 19 20 21 22 24 24 25 26 26 26 25 25 25 25 25 24 21 20 19 18 17
29 35 32 33 34 38 40 42 42 42 41 41 40 39 38 25 18 17 17 18 19 19 20 21 21 23 24 25 27 28 29 28 26 26 25 25 26 25 23 20 21 20 19 18
35 31 29 27 33 33 36 42 42 40 39 40 39 23 19 18 17 17 19 20 21 21 21 20 23 25 26 27 26 28 30 30 29 26 26 26 25 25 24 23 22 22 22 20

GFSCGP_sfc_30mbdewp_003.txt.gz
Dewpoint
22 17 14 15 16 15 13 13 12 15 17 25 29 33 37 39 41 41 40 41 41 42 43 44 45 45 46 47 50 52 47 45 45 46 44 43 43 43 43 42 42 40 39 38
19 17 18 24 24 19 18 17 18 20 26 29 31 32 34 36 39 42 40 40 40 40 41 42 41 40 40 42 43 44 43 42 43 44 45 46 44 43 43 40 38 38 38 37
18 19 21 23 24 22 25 20 19 19 27 29 30 29 29 32 36 39 40 41 40 41 40 40 38 37 37 37 37 37 38 40 41 43 44 42 42 42 39 38 37 36 37 36
23 28 24 24 22 25 22 26 22 23 24 22 25 25 27 31 35 38 39 40 40 41 40 38 37 36 36 35 35 35 36 36 37 38 38 37 38 37 39 39 34 34 37 36
25 26 25 23 23 26 25 26 23 23 20 20 24 24 27 31 34 36 37 39 40 40 39 38 38 38 38 37 36 36 36 36 37 37 38 39 37 36 39 34 31 32 36 36
26 28 26 26 27 26 26 28 29 29 26 20 24 24 26 29 32 34 36 38 39 39 40 40 40 39 38 37 36 35 36 36 37 37 37 38 35 36 31 31 32 31 33 35
25 25 26 27 26 27 27 26 23 21 21 22 27 25 27 29 31 34 35 37 38 39 40 40 39 38 38 38 38 38 37 37 36 35 35 36 33 30 32 33 32 33 34 35
23 21 24 24 25 24 23 25 23 19 21 20 26 25 27 31 33 35 36 36 37 39 39 38 38 38 37 36 34 32 32 32 32 31 32 33 32 32 34 34 34 34 34 35
23 21 26 24 25 27 24 21 25 25 26 22 25 26 29 32 34 35 35 36 36 37 37 37 37 37 35 36 36 34 30 29 30 32 34 34 34 35 36 36 36 34 35 36
26 18 24 24 29 27 23 27 19 21 13 15 22 24 25 28 32 30 31 35 36 35 36 36 34 32 32 33 34 35 35 33 32 33 34 35 35 35 35 35 35 35 34 35
31 21 22 26 25 24 25 23 25 26 23 13 18 23 26 28 28 29 34 35 35 35 35 34 32 31 30 28 28 30 27 24 23 25 29 29 28 28 31 33 35 33 33 33
30 25 23 22 26 28 25 24 22 11 21 25 21 19 28 30 31 34 35 35 35 35 34 33 31 30 27 22 21 22 21 20 22 25 26 27 29 30 32 33 32 31 30 29
29 24 22 25 26 25 24 26 27 25 24 24 19 15 32 31 33 34 35 36 35 34 33 32 30 27 21 21 21 21 20 20 20 21 23 27 29 29 29 28 27 27 27 27
33 29 20 15 22 23 19 22 27 23 19 19 19 20 30 32 33 35 36 35 34 34 32 31 29 22 20 20 20 19 20 21 21 21 24 27 29 30 28 27 27 28 31 33
31 23 27 27 27 25 22 21 26 25 25 21 22 23 28 33 34 35 35 34 33 32 31 30 27 19 18 19 18 18 19 20 21 20 25 27 30 31 31 31 30 31 31 31
33 26 25 28 30 28 22 23 23 23 23 25 27 28 34 35 36 35 35 33 32 29 29 29 25 17 16 17 16 17 18 19 22 21 25 29 29 30 31 33 33 33 33 32
29 27 17 9 28 25 12 19 24 24 29 26 27 30 35 35 35 35 34 33 30 28 27 27 21 13 15 17 17 16 17 19 21 23 27 29 31 31 32 32 34 32 29 20
31 28 24 18 19 5 14 27 28 27 33 33 32 34 35 36 36 35 33 32 29 27 27 26 15 10 14 17 17 17 18 19 21 23 28 29 30 29 31 32 33 31 31 30
33 26 21 13 13 14 15 30 32 28 28 35 33 34 34 36 34 33 33 30 28 27 26 20 12 9 12 15 15 16 18 20 22 23 27 28 29 30 31 31 31 31 30 23
33 26 18 23 9 1 8 31 31 29 25 36 35 34 34 34 31 32 33 31 30 29 16 14 13 14 14 15 17 19 20 21 22 23 27 28 29 31 31 31 31 30 18 22
33 30 21 20 16 17 21 31 31 25 19 37 37 36 35 33 33 32 34 35 30 15 14 16 17 17 18 20 21 21 22 22 22 24 26 27 28 28 27 27 23 18 22 21
28 24 24 25 21 13 28 29 28 28 33 38 38 37 36 35 34 35 36 21 16 16 16 17 17 18 21 22 22 22 22 23 23 25 26 26 26 24 23 21 19 21 20 16
24 23 21 25 20 27 31 32 33 35 35 39 38 38 37 36 36 35 20 16 16 15 16 18 18 20 20 22 24 24 24 25 25 25 25 25 24 24 24 20 19 19 19 16
32 32 28 30 29 30 32 34 40 40 39 41 40 39 38 36 33 20 17 17 16 17 18 19 19 19 21 24 25 27 26 27 28 26 26 25 24 25 24 20 19 18 17 16
31 34 32 32 33 35 38 39 40 42 41 41 39 38 38 34 19 17 17 18 18 19 20 19 20 22 23 25 27 26 27 29 27 27 26 25 25 24 20 19 20 19 18 18
34 30 29 25 29 32 32 36 41 42 41 41 39 35 27 21 17 18 18 19 20 20 20 20 22 24 25 27 27 26 28 29 30 29 29 29 31 26 21 21 21 20 21 21

GFSCGP_sfc_30mbdewp_006.txt.gz
Dewpoint
22 16 13 15 14 9 10 10 9 14 23 32 34 35 37 41 41 40 41 42 42 43 44 46 46 49 51 52 52 53 52 51 49 47 45 43 43 46 44 41 40 38 38 37
19 16 19 24 23 20 18 17 20 25 29 32 33 32 34 37 39 40 41 42 42 42 42 42 42 44 48 51 49 48 48 46 46 44 45 47 47 45 41 38 37 38 37 37
17 20 23 24 23 21 24 19 19 24 31 31 31 30 33 36 39 40 40 40 41 41 41 39 37 38 41 43 43 41 41 42 43 46 45 42 42 42 38 38 34 36 36 37
25 27 24 22 23 24 21 25 24 28 26 24 26 25 29 35 37 38 39 40 41 39 37 36 35 34 34 35 36 36 37 37 38 39 38 37 38 37 39 34 33 35 35 34
25 25 24 22 23 27 25 25 25 22 21 21 25 25 27 33 35 37 38 39 40 38 37 36 36 37 37 37 36 37 37 37 37 37 39 39 36 38 36 32 33 32 34 35
26 28 26 25 27 26 28 28 28 28 25 18 23 22 26 30 32 35 37 39 39 39 39 39 39 38 37 37 36 36 37 37 37 37 37 36 35 34 31 33 32 33 33 35
24 25 26 27 26 26 28 26 22 21 21 20 27 25 23 30 33 35 36 38 39 40 39 40 38 37 36 35 35 36 34 33 34 34 34 34 33 30 31 32 34 34 35 35
21 19 23 24 25 23 23 26 21 18 20 22 26 25 26 30 32 35 36 38 39 39 40 38 37 36 36 35 32 31 31 31 33 34 34 34 34 35 36 36 36 35 35 34
22 22 24 24 26 27 23 20 26 24 24 21 24 26 29 33 32 34 35 37 38 37 37 37 36 34 35 36 34 31 32 30 29 30 33 32 32 29 29 31 33 34 35 36
26 18 24 24 28 27 24 26 17 21 9 10 22 24 25 31 31 33 34 35 36 36 36 34 32 32 32 33 35 30 25 22 22 24 25 24 24 26 29 31 32 33 35 35
26 22 22 26 25 24 25 22 25 24 22 9 13 21 28 30 33 32 34 36 36 35 33 31 30 29 27 27 25 22 20 19 20 22 23 25 26 27 27 27 30 33 33 34
29 25 22 21 26 29 26 24 19 8 14 23 20 16 29 29 31 32 34 35 35 34 32 31 30 25 21 20 20 19 19 19 20 22 24 25 27 27 27 28 29 31 31 30
28 24 21 21 22 25 24 28 25 24 26 22 18 12 31 33 33 35 35 35 34 34 32 31 29 23 20 20 20 20 19 18 19 20 22 25 27 28 28 28 27 28 28 29
30 26 19 10 18 22 21 26 25 21 17 18 21 17 29 32 32 35 35 35 34 33 32 31 29 22 20 20 20 20 19 20 20 20 23 25 27 29 29 30 30 29 29 32
28 22 26 28 27 25 21 20 26 23 22 19 20 21 21 31 33 35 35 34 34 33 31 30 27 20 20 21 20 19 18 20 21 21 22 25 29 29 30 31 32 32 32 33
31 23 24 27 30 27 22 22 23 26 25 25 26 24 32 34 35 35 35 34 33 32 30 30 27 20 20 19 18 17 17 18 21 22 22 26 28 30 30 31 32 33 35 31
26 24 17 10 26 22 14 18 22 22 24 24 21 24 34 34 34 35 35 34 33 31 28 28 25 21 17 17 18 16 17 18 20 22 23 26 29 29 29 31 31 32 31 29
26 23 18 15 16 6 13 26 26 24 28 30 30 31 34 34 36 36 35 34 33 30 27 27 26 21 15 16 17 17 17 18 20 21 23 26 28 28 29 30 31 31 31 31
29 23 18 12 13 12 13 27 28 27 23 33 31 33 35 35 35 35 35 34 33 30 27 27 25 16 11 13 16 16 17 19 20 21 23 25 28 28 28 30 30 30 31 28
30 24 16 20 8 1 7 26 31 29 23 33 34 33 34 34 32 32 34 34 31 29 26 18 14 13 14 15 18 20 20 21 21 23 23 26 27 27 28 28 27 28 22 20
32 28 19 17 14 15 18 31 30 21 15 35 35 34 34 33 33 33 34 33 31 25 15 16 16 16 18 20 22 20 22 22 23 24 24 26 27 26 26 25 24 20 20 21
26 24 23 22 19 12 25 31 27 28 30 34 36 35 35 35 33 34 34 30 17 16 17 17 16 18 21 22 22 23 23 25 26 26 26 26 26 26 24 23 19 20 21 17
24 25 20 21 16 25 29 31 32 33 31 35 36 37 37 35 35 35 30 18 16 16 16 18 18 19 19 21 24 25 25 26 26 28 27 26 26 24 24 23 19 20 19 16
32 30 26 27 26 28 31 31 34 36 35 37 38 38 38 37 36 31 19 17 16 17 17 18 18 16 19 23 25 27 26 26 27 28 27 26 25 25 25 21 19 19 18 17
31 33 30 30 31 32 33 36 37 38 40 40 40 39 38 37 30 21 18 18 17 18 19 18 18 20 22 24 26 27 26 27 28 29 29 28 26 26 25 19 19 19 19 18
33 30 28 24 27 29 29 32 39 39 39 41 40 38 34 30 21 20 19 20 20 19 19 19 21 23 24 26 27 27 28 28 28 27 26 27 27 30 28 20 21 22 21 21

GFSCGP_sfc_30mbdewp_009.txt.gz
Dewpoint
22 14 9 11 10 7 8 9 11 17 31 33 34 34 37 40 40 41 42 43 44 46 47 49 52 55 56 57 56 56 55 55 54 50 47 47 47 48 43 39 40 39 39 39
19 15 19 23 23 17 17 17 22 29 32 33 33 35 37 38 40 41 42 43 44 44 45 47 51 53 54 54 54 54 53 50 48 47 48 49 49 44 38 37 39 38 39 37
17 19 24 24 24 22 22 20 22 25 32 32 32 32 36 38 40 41 42 42 43 43 43 44 47 50 52 49 49 48 47 47 46 47 47 45 44 43 39 36 35 36 37 35
25 27 23 23 24 24 21 24 28 30 27 23 27 18 33 37 39 40 41 41 42 40 39 38 38 39 40 40 42 42 42 41 41 42 41 42 40 39 39 34 35 36 38 37
25 25 23 22 24 27 25 29 28 24 22 23 26 23 28 36 37 38 39 40 39 38 36 35 36 36 37 39 40 40 40 39 40 41 41 39 39 39 35 36 37 37 37 38
26 28 26 26 28 27 30 28 28 28 25 19 23 22 25 33 35 37 38 39 39 38 38 39 39 38 38 39 40 39 36 36 38 39 39 39 38 35 34 36 36 37 37 38
24 25 26 27 26 27 28 27 24 22 21 18 27 24 23 29 34 36 37 38 39 40 39 39 38 37 37 38 37 35 34 34 36 36 36 36 35 36 36 36 35 35 34 32
18 18 22 25 25 24 26 26 21 15 19 21 27 25 25 30 32 36 37 38 40 40 41 39 37 36 34 34 33 34 34 34 35 35 34 33 29 25 24 25 25 25 27 29
22 21 24 26 27 26 22 19 27 24 24 21 24 26 29 32 32 36 37 38 39 40 40 38 37 36 35 33 35 33 26 24 25 26 26 26 25 25 24 26 25 24 30 34
25 19 24 26 28 27 25 27 19 21 10 11 18 24 24 30 31 34 36 37 39 39 38 36 34 35 36 35 30 27 23 21 23 23 24 24 25 26 26 26 25 27 30 35
24 23 23 26 25 24 25 22 24 24 22 6 7 14 28 30 32 33 35 37 38 38 36 32 32 32 34 28 24 22 22 21 21 22 25 26 25 27 27 27 27 28 31 34
28 26 24 22 26 29 26 23 22 10 13 22 20 14 28 30 31 35 35 37 37 37 33 31 29 27 25 23 21 21 21 21 21 23 25 25 27 28 27 27 28 30 30 32
27 25 22 21 21 25 25 26 24 24 26 21 16 9 30 33 32 33 35 36 36 34 32 30 26 22 21 21 22 21 21 19 20 21 22 24 26 28 28 28 29 30 31 30
29 25 21 16 15 23 22 27 24 21 16 17 22 18 22 30 32 34 35 35 35 33 32 31 28 22 21 22 22 23 25 23 22 20 21 24 27 28 29 30 30 31 32 33
27 21 25 27 27 26 20 25 24 21 21 17 17 20 21 26 31 34 35 35 33 33 32 31 29 22 21 22 23 25 22 22 23 22 22 23 28 30 30 30 30 31 33 34
30 24 26 26 29 27 23 22 24 26 25 22 24 23 27 32 34 35 35 34 33 33 32 31 29 24 21 22 26 23 21 21 23 22 23 25 27 29 29 30 30 31 33 33
27 25 20 14 25 21 16 18 21 23 25 25 21 23 32 32 33 34 35 34 34 34 33 30 30 26 22 22 24 21 20 21 21 22 23 24 27 28 29 29 28 30 31 32
25 20 17 14 16 6 12 27 24 22 23 25 27 28 31 33 35 36 36 35 35 34 32 31 30 27 24 21 19 21 19 19 20 21 22 24 26 27 28 28 27 30 30 30
27 22 16 12 14 13 11 18 25 25 17 29 28 30 34 36 36 36 36 36 36 35 33 29 29 28 19 16 18 17 18 21 22 22 23 24 25 27 28 27 27 27 28 28
28 23 17 18 9 3 8 19 33 29 21 28 33 33 34 35 32 29 36 37 36 35 31 27 22 15 15 17 19 21 21 21 20 24 25 26 26 27 27 27 26 26 26 19
31 27 20 17 15 15 19 29 30 17 13 30 34 34 35 34 33 34 35 35 35 29 20 17 16 17 19 22 23 20 21 21 25 26 25 26 27 27 27 26 24 23 21 22
22 21 21 20 18 10 24 31 25 26 30 31 35 35 35 35 34 33 34 30 25 19 18 18 18 19 22 22 22 21 22 25 26 26 26 28 27 27 26 25 24 21 21 21
22 26 21 21 17 23 26 32 33 33 31 32 36 37 37 36 34 35 30 22 18 17 17 18 18 19 20 21 23 22 24 27 26 27 27 28 28 26 25 25 23 21 21 21
31 30 26 26 26 27 29 30 32 33 33 35 37 37 38 37 36 32 22 18 17 17 18 19 17 16 17 22 24 25 28 27 27 27 28 29 28 27 26 24 21 20 21 20
31 32 30 29 30 31 31 34 35 35 37 39 40 40 39 38 35 27 20 18 17 24 31 18 17 18 20 24 25 27 27 27 27 28 26 26 27 27 28 27 22 20 20 21
33 30 27 24 26 28 28 31 36 37 38 40 40 39 37 34 29 22 20 22 32 32 20 19 20 21 23 25 27 27 27 28 28 27 26 27 27 26 28 29 25 23 23 21

GFSCGP_sfc_30mbdewp_012.txt.gz
Dewpoint
24 17 12 11 8 9 7 7 7 16 29 26 25 25 30 38 42 42 42 43 44 45 48 52 55 56 57 58 58 60 59 59 58 54 51 46 46 47 44 41 41 40 39 38
21 15 19 22 17 13 11 8 16 24 29 28 27 29 32 34 39 41 42 43 45 46 48 52 55 56 57 57 58 57 57 57 54 51 47 46 48 45 40 40 40 38 37 35
15 21 26 23 20 17 19 14 21 18 27 29 26 27 31 36 38 40 42 43 45 46 48 52 53 54 54 54 54 52 50 48 47 48 47 47 45 42 40 38 36 38 38 36
24 26 24 22 22 24 20 23 23 25 21 15 26 12 29 34 37 39 41 43 45 47 48 47 46 48 46 46 47 46 46 45 44 42 42 43 40 39 39 36 37 37 39 39
25 24 23 21 24 27 24 27 27 24 21 22 22 18 27 34 34 38 41 43 43 43 42 40 40 40 40 43 42 41 40 40 42 42 42 40 39 37 36 37 38 38 38 38
26 28 26 26 28 27 29 27 26 25 23 17 19 19 17 30 31 37 40 40 41 40 38 36 36 37 39 41 42 41 40 39 40 40 40 39 38 36 36 35 32 28 25 23
24 25 26 28 27 29 28 23 18 15 17 17 25 22 17 26 32 36 39 38 39 38 36 37 37 37 39 41 40 39 38 37 38 38 37 36 34 28 23 21 18 18 16 16
15 19 23 27 26 23 26 23 17 13 17 12 26 17 17 29 31 36 39 36 37 37 38 37 38 38 39 39 38 38 37 35 33 30 26 24 22 19 17 19 22 19 19 20
18 19 25 28 28 26 24 22 27 26 26 22 17 22 27 30 31 34 36 35 36 37 38 38 38 38 37 38 38 34 30 26 25 25 24 23 23 23 24 24 24 21 22 22
26 21 25 27 28 28 25 26 22 23 19 14 12 18 14 28 30 33 34 35 36 36 39 39 38 38 37 37 33 30 25 25 24 23 23 23 23 25 26 25 24 23 24 25
25 24 25 28 25 23 25 22 22 22 23 8 3 3 26 28 31 32 34 35 36 38 39 39 37 37 36 32 29 26 26 25 23 22 24 25 25 25 25 25 24 24 26 25
28 28 26 24 27 29 26 22 18 11 15 23 25 8 25 30 32 32 33 35 37 39 39 37 35 35 34 30 26 26 25 24 22 22 24 24 24 25 25 25 25 26 26 27
30 27 24 22 25 27 25 25 21 24 27 21 21 7 26 30 31 32 33 35 38 39 38 35 33 32 30 27 25 25 26 24 22 19 20 21 23 25 26 26 26 26 27 28
29 29 25 22 19 24 25 25 22 17 19 15 18 7 17 22 27 30 33 35 37 38 35 33 31 29 27 24 25 26 30 26 21 19 19 20 24 25 26 27 26 26 27 29
32 26 26 25 26 24 22 23 23 19 19 16 9 14 10 17 22 27 33 36 36 36 34 33 31 28 25 24 27 31 27 24 23 21 20 21 24 25 26 27 26 27 28 28
33 29 29 27 28 26 23 22 23 23 21 21 17 17 20 24 29 31 34 35 35 35 34 33 33 30 25 24 29 26 26 23 22 21 21 22 23 24 26 26 27 26 25 27
33 31 25 21 26 25 21 23 20 21 23 23 17 19 27 29 30 31 33 34 34 34 34 34 33 30 26 24 25 26 23 22 22 20 21 21 23 25 23 24 25 24 25 27
30 28 27 24 20 13 14 23 23 21 21 21 22 24 26 27 32 33 34 35 35 34 34 35 33 30 27 24 24 24 21 20 19 20 21 21 20 21 22 23 24 25 25 25
30 29 23 24 19 16 6 16 20 23 14 21 21 22 28 34 35 34 35 36 36 36 36 36 33 30 26 25 23 20 18 18 20 19 16 18 22 21 21 22 25 26 24 24
29 29 27 22 18 13 17 21 32 30 17 27 29 30 33 35 32 21 36 36 37 37 37 35 30 28 24 20 18 18 19 20 16 18 21 21 20 21 22 24 25 26 25 23
32 30 27 26 25 22 22 25 31 19 18 30 33 33 35 34 31 35 36 37 38 37 36 31 24 21 19 20 21 20 19 14 18 22 21 21 22 24 24 24 25 25 24 22
27 28 27 27 23 17 24 31 26 30 35 32 34 35 36 35 37 36 36 37 37 35 28 23 20 21 22 24 20 14 13 18 22 22 22 23 25 26 24 26 26 25 23 21
26 30 28 26 24 27 28 31 34 35 34 34 35 34 37 36 37 35 34 33 32 27 21 19 21 23 24 19 17 14 16 23 24 24 24 25 27 26 26 25 25 25 22 22
32 32 31 29 27 27 28 29 30 32 33 33 33 35 36 37 37 37 34 29 26 20 18 20 23 24 16 19 20 20 23 25 25 25 25 26 25 27 27 26 25 24 23 23
33 32 31 31 29 30 30 32 33 34 36 38 38 40 40 40 39 37 31 25 21 23 28 29 26 17 16 20 21 23 25 25 24 26 26 24 25 25 25 26 28 26 24 22
33 31 31 28 26 30 30 33 37 38 38 40 40 40 38 39 38 34 26 22 34 33 29 25 22 21 22 23 25 26 25 26 28 27 26 25 26 25 25 25 27 28 24 23

GFSCGP_sfc_30mbdewp_015.txt.gz
Dewpoint
25 20 16 15 14 11 8 4 2 6 12 6 6 17 19 30 31 32 34 38 41 43 47 50 51 53 52 54 56 60 59 60 59 57 54 50 47 47 47 43 43 42 41 39
22 20 17 13 11 7 6 6 9 14 15 20 12 15 22 28 30 33 34 35 38 42 47 50 53 55 55 56 56 59 59 58 56 52 48 46 46 47 42 41 42 40 40 39
22 18 19 16 10 9 10 5 15 13 19 20 16 19 26 28 31 36 37 37 39 43 46 51 53 54 55 56 57 57 55 53 49 47 48 48 47 43 40 40 38 40 40 39
28 23 17 14 13 14 15 19 16 15 19 14 17 10 22 29 31 33 36 38 41 43 47 50 52 53 53 53 52 50 48 47 48 45 42 41 41 40 41 39 39 40 39 39
22 21 19 14 20 23 26 23 21 18 16 19 16 13 28 29 27 31 35 38 41 45 48 47 46 46 46 47 46 45 43 41 42 43 43 42 40 39 38 38 38 36 31 26
29 25 22 22 26 24 26 24 23 20 17 16 13 15 18 26 26 31 36 40 42 44 43 41 41 41 42 43 43 42 41 41 42 42 43 41 38 36 33 28 23 20 18 18
20 20 26 25 23 26 22 20 15 12 12 13 18 17 15 18 27 29 36 39 42 42 38 36 37 37 40 42 43 42 40 40 41 39 36 34 29 25 21 20 19 20 19 19
15 20 23 25 22 20 22 17 15 10 11 9 21 14 13 25 25 28 36 38 41 39 36 35 36 37 40 42 41 39 39 39 36 31 28 26 23 24 21 22 23 21 21 21
14 17 24 26 26 22 19 20 22 21 23 19 12 10 19 28 28 30 35 38 38 37 36 36 37 39 40 41 40 40 37 33 29 28 27 27 26 26 25 25 25 22 22 21
19 17 21 26 27 27 25 24 19 16 15 13 8 10 6 25 26 30 34 36 37 36 36 36 38 39 40 39 40 37 32 29 30 28 27 26 25 26 26 25 25 23 24 24
19 18 24 26 23 18 24 19 19 21 22 15 6 7 17 16 26 28 32 35 36 36 36 38 38 39 39 40 37 33 29 31 28 26 26 26 26 26 25 25 25 24 25 24
20 21 24 23 26 27 26 22 21 17 13 18 23 12 19 23 25 29 30 33 35 36 36 38 39 39 38 37 34 31 31 29 27 25 26 26 26 25 25 25 25 25 25 25
29 21 22 22 25 25 20 20 21 18 25 15 19 12 21 23 24 26 29 32 35 36 37 39 39 38 38 35 32 30 30 28 26 26 22 23 23 24 24 25 25 26 24 24
30 22 21 19 20 22 23 19 20 19 17 14 14 10 13 18 20 21 26 29 33 35 38 39 38 37 37 34 31 29 30 30 30 20 19 20 22 25 25 25 26 25 24 25
31 26 23 23 25 22 19 18 19 17 16 14 14 5 4 8 13 17 22 28 29 35 38 39 37 36 35 33 30 29 32 33 24 21 20 21 23 25 24 23 25 24 26 25
33 28 29 29 26 24 21 20 16 16 17 13 12 11 11 17 18 22 23 29 30 34 36 37 36 34 33 31 29 30 33 28 24 23 23 22 23 24 22 23 25 24 24 23
34 34 28 20 27 26 24 25 20 16 17 17 15 15 18 23 23 23 24 29 31 33 35 36 35 35 33 31 29 30 28 26 24 23 22 22 22 21 22 21 20 21 23 24
36 32 31 23 24 16 14 20 18 19 17 16 17 17 17 22 27 28 29 29 32 33 34 35 35 35 35 32 28 28 26 23 23 21 21 22 19 17 18 19 19 20 23 24
31 31 27 29 17 14 13 10 16 18 15 14 19 16 18 27 31 29 31 32 32 33 34 35 35 36 35 31 27 26 24 20 20 22 21 15 16 18 18 18 19 22 24 24
30 34 26 25 24 19 22 22 28 26 12 21 21 22 22 29 28 22 32 31 32 33 35 35 36 36 34 29 26 24 21 26 21 19 16 17 17 16 17 18 21 23 24 24
33 33 29 28 28 25 21 22 28 16 22 27 28 25 27 27 27 35 36 33 33 34 35 37 37 34 31 25 22 27 23 22 16 18 19 18 18 19 21 22 22 24 24 24
28 30 29 32 31 20 22 27 24 33 30 31 30 29 33 34 34 35 36 35 35 36 36 36 32 27 23 25 27 26 24 18 21 21 20 20 21 23 24 24 25 25 24 24
28 29 29 26 25 28 26 25 28 32 32 31 32 33 33 33 33 34 35 35 34 36 32 28 23 24 28 29 25 21 22 22 21 22 22 23 24 25 25 25 25 24 23 23
30 31 29 28 22 24 25 26 28 30 31 32 32 34 35 36 37 37 37 35 32 28 22 22 28 30 28 30 27 20 24 26 25 24 25 26 26 25 25 26 26 25 24 24
32 31 28 28 25 24 27 29 32 33 36 37 38 38 40 39 38 38 37 31 26 22 30 32 32 31 29 24 22 24 25 26 26 27 27 26 27 26 25 24 25 26 27 27
32 25 31 28 31 32 30 34 38 38 39 40 40 39 35 36 37 35 26 26 32 32 33 33 32 27 23 24 25 26 27 27 28 28 28 27 27 27 26 25 26 27 28 28

GFSCGP_sfc_30mbdewp_018.txt.gz
Dewpoint
26 23 19 21 19 17 15 12 11 10 14 11 7 16 22 26 30 34 38 40 42 43 45 48 49 49 48 56 59 61 60 60 59 58 56 55 52 50 49 45 44 43 42 41
19 19 21 22 19 17 11 11 7 9 8 9 6 12 16 24 26 31 34 39 41 42 47 49 51 53 53 56 60 60 60 60 59 58 53 50 49 49 46 45 43 43 42 41
26 29 30 17 18 12 9 12 15 11 11 5 22 11 15 20 26 28 31 33 36 41 46 49 52 54 56 59 60 59 59 60 59 53 49 50 47 45 43 44 43 43 42 41
24 29 23 15 10 10 16 23 18 16 19 14 22 15 20 29 22 26 30 33 35 39 45 49 52 56 56 58 58 57 57 54 49 48 48 48 44 43 42 42 43 42 41 37
24 28 18 14 24 23 21 22 22 16 12 23 23 21 28 30 29 27 32 36 37 41 45 49 51 55 55 55 55 51 48 47 46 45 46 44 43 42 41 39 35 30 26 26
24 28 25 27 24 23 27 25 22 14 14 22 25 24 25 31 30 32 31 35 39 42 46 49 50 50 49 49 48 46 43 43 45 46 44 42 38 35 31 26 24 25 25 25
21 18 19 24 16 21 18 14 15 24 23 18 17 21 24 29 33 41 42 36 40 45 46 46 45 45 46 46 45 44 42 43 44 42 40 34 29 29 28 24 25 24 24 25
24 22 18 19 16 26 25 13 18 23 25 20 24 19 15 30 31 41 39 39 42 44 43 42 41 41 43 44 44 42 42 42 41 36 30 30 29 28 28 27 26 25 25 26
29 25 30 24 21 19 13 16 19 19 31 20 13 10 20 25 26 24 36 39 41 42 40 38 38 40 43 44 44 42 41 40 35 32 31 31 29 28 27 28 27 26 26 24
36 32 28 24 24 23 22 20 20 17 13 12 10 9 18 24 24 27 32 38 40 41 38 37 37 40 43 43 42 43 41 35 32 32 32 31 30 30 28 28 27 26 27 27
20 25 21 25 21 13 22 18 18 15 21 21 17 11 14 18 22 25 29 38 39 39 38 37 37 40 42 42 42 42 37 32 33 31 31 30 30 30 29 27 27 26 27 27
20 18 19 21 22 23 22 24 17 22 17 21 25 18 17 19 19 24 27 32 38 38 38 37 38 40 41 41 41 39 34 32 32 31 30 30 31 30 27 27 27 27 27 27
25 20 18 20 24 25 22 17 18 21 26 24 20 19 21 19 19 20 24 29 35 37 38 38 40 40 40 40 40 37 34 34 31 30 29 28 29 27 27 27 27 27 28 27
33 23 18 22 20 24 23 21 16 17 23 22 18 13 14 18 20 21 24 26 30 35 37 37 40 40 40 40 38 36 34 33 30 29 27 26 28 26 27 27 27 27 28 27
30 24 22 20 20 24 24 20 19 16 19 18 20 14 12 9 14 15 20 26 26 27 35 36 39 40 39 39 38 35 34 33 33 33 23 23 24 26 27 27 26 27 28 27
33 31 30 29 26 24 22 22 21 18 15 16 15 14 14 19 21 22 21 21 27 26 28 34 38 40 38 38 38 35 32 34 36 29 24 23 24 25 27 27 27 27 28 27
34 34 31 26 27 27 22 25 23 22 18 15 15 18 16 17 22 23 24 23 27 29 30 33 37 39 38 37 37 34 32 35 32 26 25 24 24 26 26 24 23 22 23 26
39 36 32 26 26 15 15 18 18 18 18 17 14 15 16 23 27 26 25 26 28 31 32 34 36 37 37 36 35 32 33 32 28 25 23 24 25 20 19 21 21 22 24 25
35 34 32 29 23 18 18 15 15 15 16 21 20 20 21 26 25 26 29 31 31 30 31 33 34 36 37 36 35 31 30 28 26 24 24 22 18 20 21 20 21 23 24 26
30 36 31 26 25 20 24 23 25 23 13 22 22 23 23 24 27 31 35 34 31 31 31 33 34 36 36 36 32 29 26 23 25 25 24 26 23 22 21 21 24 25 25 26
34 33 28 31 29 30 23 24 25 17 26 30 29 27 27 28 32 35 36 36 34 34 34 36 36 31 31 27 26 25 27 27 26 30 30 25 24 21 24 25 26 26 26 27
31 34 32 34 34 25 23 25 24 35 31 29 30 31 32 33 35 35 33 34 35 34 36 32 27 28 29 29 29 30 28 28 32 32 25 24 27 26 25 27 28 28 27 27
29 31 32 32 31 31 24 24 27 29 29 31 31 31 32 32 33 35 36 36 34 33 26 25 28 30 28 27 29 32 32 31 28 29 29 28 27 27 28 26 26 27 28 28
31 32 31 29 20 23 25 26 27 28 31 33 35 36 37 39 39 38 37 35 28 24 24 30 30 32 33 31 30 29 28 28 29 29 29 29 29 28 26 27 26 26 27 29
34 31 28 27 28 26 26 32 35 36 37 38 40 39 38 37 38 37 28 26 28 31 32 32 32 32 31 29 26 27 29 29 29 29 29 29 29 28 28 28 26 26 27 27
33 29 29 32 35 35 35 38 39 39 38 37 36 33 32 31 29 32 32 32 33 33 33 32 30 28 28 27 27 27 27 28 28 29 29 30 29 29 29 28 27 28 27 27

GFSCGP_sfc_30mbdewp_021.txt.gz
Dewpoint
27 24 22 24 21 21 17 13 13 14 18 17 20 23 32 40 39 39 43 46 42 44 45 45 47 50 57 57 57 59 59 59 58 57 56 56 52 52 47 45 43 43 43 43
26 23 25 23 22 22 19 19 17 14 13 11 19 22 24 40 41 42 45 41 43 44 46 48 50 54 58 58 59 59 59 59 58 57 58 55 51 48 45 44 43 42 42 41
23 26 27 26 26 22 20 21 16 12 8 7 13 16 21 25 27 39 42 38 40 45 48 50 51 54 59 60 60 59 58 58 58 58 53 50 47 45 43 43 42 42 42 41
25 27 26 26 25 19 16 22 23 19 18 12 22 16 25 26 26 28 38 44 44 47 49 51 53 57 59 59 59 59 59 59 59 56 48 44 43 42 44 44 43 36 28 26
24 25 25 26 23 19 20 20 19 21 19 22 21 18 24 28 22 25 30 33 39 46 49 51 54 57 58 59 58 58 58 57 53 49 49 45 42 42 39 34 27 25 27 26
25 26 28 27 25 19 25 23 24 26 23 18 21 21 27 26 24 28 30 34 38 45 49 52 55 56 56 56 55 51 47 46 45 45 44 42 39 29 28 25 24 24 26 28
23 22 27 29 25 24 25 21 20 16 20 20 30 24 22 30 29 30 31 32 39 47 49 52 52 51 49 47 45 43 45 44 41 37 32 32 30 29 26 24 26 25 24 26
23 22 30 30 24 22 22 24 19 17 21 24 30 25 23 26 32 34 36 37 42 48 49 48 48 48 46 44 43 43 44 42 40 34 30 28 28 28 27 27 26 26 26 26
26 27 31 31 32 24 20 21 26 29 33 30 28 24 26 31 33 37 38 38 45 46 45 45 45 45 45 44 43 43 43 40 34 30 29 29 28 29 27 28 27 27 27 25
34 24 34 31 34 26 22 23 21 25 19 17 14 17 24 26 28 32 39 38 44 43 42 42 42 44 44 44 44 43 41 36 32 31 30 29 29 30 29 29 27 26 27 26
33 29 32 34 27 21 23 20 19 20 22 18 18 14 19 22 26 29 37 41 42 42 39 39 40 43 44 44 43 43 39 34 32 31 31 31 29 31 29 29 27 27 27 27
32 31 27 27 25 24 22 25 27 17 16 23 22 19 21 19 23 27 30 40 42 41 39 38 39 42 44 43 43 42 36 32 32 31 31 29 32 31 30 28 28 28 27 28
30 22 15 15 22 27 23 22 19 28 28 21 18 17 21 19 18 22 26 30 40 40 38 38 39 42 43 42 42 41 34 33 31 31 30 30 30 30 30 28 28 29 28 28
31 26 19 15 18 25 24 24 23 20 20 20 22 20 18 18 20 22 23 26 36 39 39 38 40 41 42 42 42 39 35 33 31 30 29 30 31 30 28 28 28 28 29 27
31 24 23 25 29 27 24 25 25 21 21 18 19 20 20 19 21 22 25 25 26 31 37 38 40 40 40 41 40 38 36 34 31 30 29 28 30 30 29 29 28 28 29 27
33 29 30 27 28 28 25 25 24 23 22 19 19 19 20 23 23 21 21 26 27 27 29 35 41 41 40 41 39 38 36 34 32 32 31 28 28 28 27 28 26 26 28 27
33 32 29 26 26 23 21 20 23 23 24 23 18 19 23 24 26 26 26 27 28 29 31 34 40 41 40 41 39 37 35 35 34 34 28 28 28 27 25 24 25 23 22 25
35 34 31 26 25 18 20 22 18 21 21 21 22 27 24 24 30 31 29 30 31 32 32 33 35 39 40 40 39 36 36 36 34 29 27 27 25 23 24 23 24 25 27 26
40 32 32 23 21 22 18 22 21 17 20 24 23 25 26 27 33 35 35 34 32 31 31 32 34 36 38 37 37 34 34 31 27 26 28 29 28 26 27 27 27 28 27 27
32 35 25 31 21 13 24 24 25 23 21 29 27 27 28 27 26 35 35 35 34 35 32 30 30 29 32 33 29 27 26 30 32 32 30 29 28 29 28 29 29 29 27 26
30 30 27 27 21 27 32 25 25 12 22 31 30 31 32 33 35 35 36 36 34 31 29 30 30 29 30 30 29 28 30 33 33 33 31 30 30 31 31 29 28 28 27 27
28 29 27 34 30 23 29 25 18 33 32 31 31 32 31 34 35 37 37 34 28 28 30 29 28 30 31 32 33 33 33 32 32 32 32 32 32 31 28 28 28 27 27 27
28 33 30 31 29 33 25 28 34 30 30 31 33 37 37 40 39 39 32 25 26 30 28 32 32 32 33 33 34 32 32 32 33 32 30 31 31 30 29 28 26 26 27 28
32 33 31 30 27 29 26 27 33 36 38 40 40 38 38 38 33 28 28 31 30 30 31 33 32 30 30 30 29 29 28 29 30 29 30 30 29 30 29 27 27 27 26 26
34 31 29 29 28 35 39 39 40 39 39 34 33 33 32 29 29 30 31 32 32 32 32 32 32 31 30 29 27 28 29 29 28 28 29 29 29 29 29 29 28 28 27 26
34 31 28 27 36 37 38 38 37 36 35 35 34 34 35 34 33 33 33 33 33 33 32 30 29 28 28 28 27 28 28 27 28 28 28 29 29 29 29 29 28 29 28 27

GFSCGP_sfc_30mbdewp_024.txt.gz
Dewpoint
29 24 22 22 24 23 20 20 15 15 19 20 24 33 38 42 44 41 42 43 42 45 46 50 56 56 55 57 57 58 58 58 56 57 56 55 52 52 50 46 44 43 43 43
28 24 25 27 25 25 25 21 18 19 18 17 23 34 40 42 40 38 41 43 44 44 44 46 51 55 56 57 57 58 58 58 56 55 57 55 52 49 45 43 43 42 42 41
22 23 27 26 24 25 24 21 21 18 9 18 20 22 38 39 40 39 42 43 44 43 44 49 51 55 56 56 58 58 58 58 57 55 57 52 48 45 43 42 42 42 42 39
24 27 26 26 25 26 22 21 22 19 16 8 21 14 25 33 37 39 41 44 42 45 46 50 54 56 57 57 59 59 59 58 57 56 54 51 47 43 42 42 43 38 29 30
23 25 26 24 25 24 20 22 21 21 21 21 20 18 19 27 27 35 41 43 40 42 47 51 57 58 58 59 59 59 58 58 58 54 51 48 44 43 44 41 30 28 28 30
24 27 26 26 27 26 24 24 26 28 24 18 27 21 19 25 22 28 36 42 42 43 48 52 58 59 59 59 59 58 58 55 54 51 47 45 42 40 37 29 25 27 30 29
24 24 26 30 24 25 25 21 16 16 17 16 29 24 22 25 28 26 25 33 38 45 50 53 56 57 58 58 57 54 51 46 45 45 43 39 35 31 29 26 26 26 27 27
19 22 28 31 28 26 25 22 17 13 17 20 30 24 21 27 29 31 31 37 45 48 52 54 54 54 53 51 48 46 43 40 37 37 35 32 31 30 27 28 28 27 27 28
25 25 33 33 33 31 26 20 26 27 33 27 26 27 25 30 32 32 37 40 47 49 51 52 51 50 48 44 45 44 41 37 32 30 30 29 29 29 28 28 28 28 28 28
27 22 31 31 31 30 29 25 22 26 18 18 17 18 23 27 28 32 36 37 46 48 49 49 48 47 44 43 44 43 40 36 33 30 29 29 29 29 30 29 28 28 27 28
33 25 28 32 27 25 24 21 21 24 21 15 17 15 18 27 28 27 30 38 43 46 47 47 47 46 44 43 43 43 39 34 31 29 29 29 30 30 30 29 29 28 27 27
30 29 27 26 27 30 29 23 22 17 16 24 22 20 23 23 26 29 33 38 42 45 44 45 45 45 45 44 44 42 38 34 31 30 30 29 30 31 30 30 29 29 28 28
30 26 21 24 25 28 23 23 26 27 25 20 16 17 23 20 19 25 30 39 42 44 42 42 42 44 44 44 44 42 38 34 31 31 31 30 30 31 30 29 29 29 28 28
30 24 17 15 15 23 24 25 24 25 20 21 21 19 22 22 19 20 25 34 41 43 41 39 40 42 43 44 44 42 37 34 32 31 31 30 31 31 30 30 30 29 29 29
29 22 24 23 28 27 25 24 26 23 23 19 19 22 20 20 19 21 23 26 36 40 40 38 39 41 43 43 43 39 36 35 33 31 30 30 31 32 31 29 29 30 30 28
33 23 30 24 28 27 24 24 25 24 23 23 22 20 23 23 22 23 25 26 27 30 34 38 39 41 42 42 42 42 38 35 33 31 30 30 33 32 30 28 27 28 28 28
31 30 27 21 26 24 23 23 22 21 24 24 21 22 26 26 26 26 28 28 29 32 36 40 40 41 41 42 43 42 40 36 33 32 32 32 31 29 27 26 26 26 27 28
32 30 28 24 23 21 24 24 23 22 23 25 24 26 30 32 34 32 31 31 31 31 32 35 40 41 41 41 42 40 37 35 34 32 31 30 28 27 28 29 30 30 30 29
38 32 29 23 21 23 22 21 19 17 24 26 25 27 31 34 34 34 35 35 34 33 32 31 31 36 38 40 38 36 35 29 28 29 29 29 30 31 30 31 31 32 30 28
36 32 28 31 20 17 19 25 25 24 22 29 28 28 27 28 27 34 36 34 30 30 30 30 30 29 28 29 31 32 32 31 31 31 30 30 32 33 33 33 32 30 29 27
28 31 26 24 20 19 26 28 24 12 15 31 32 33 33 32 34 36 32 30 30 30 30 31 31 30 31 33 33 32 32 31 31 32 35 37 36 35 34 32 30 28 28 28
26 28 28 30 24 19 31 24 20 24 33 32 31 32 36 38 37 33 29 29 29 29 31 31 31 32 33 32 32 32 32 35 37 37 36 37 36 33 30 29 28 28 26 26
24 26 25 27 24 30 29 29 34 32 31 33 35 39 39 38 32 27 29 29 29 31 31 32 31 31 33 33 33 32 33 34 36 35 32 31 30 30 30 29 28 26 26 26
33 36 32 32 31 33 31 36 36 37 39 39 40 40 37 30 29 30 30 30 31 32 32 31 30 29 29 29 29 30 30 30 29 29 29 29 29 29 29 29 28 27 26 26
32 32 31 30 37 38 40 40 38 35 35 34 33 32 30 31 32 32 31 32 32 32 32 31 30 29 28 28 27 28 29 28 27 27 28 28 28 28 28 29 28 29 28 28
33 31 28 27 33 34 38 37 37 35 35 35 34 33 33 33 32 32 32 32 31 30 29 29 28 28 28 27 27 27 28 27 27 27 27 27 27 27 28 29 29 29 29 29

GFSCGP_sfc_30mbdewp_027.txt.gz
Dewpoint
29 24 21 22 24 23 23 21 21 20 19 32 32 28 39 43 46 46 45 46 46 54 54 56 57 58 59 58 59 58 57 57 56 55 54 53 51 52 50 47 44 45 44 43
27 24 25 27 26 26 24 23 21 21 17 22 23 27 39 42 44 44 44 44 44 51 52 55 57 57 57 57 58 58 57 56 56 55 56 54 52 51 46 45 43 44 42 42
24 22 27 26 23 23 24 23 21 21 14 21 24 26 38 40 40 40 41 43 43 45 47 50 55 56 55 56 57 58 57 57 56 56 56 52 47 45 43 42 42 42 42 40
25 26 26 26 24 25 22 23 22 21 13 11 18 12 27 39 40 40 38 41 44 43 45 47 52 55 55 55 57 58 58 57 56 56 55 52 49 44 42 42 42 34 33 31
23 25 25 24 23 26 22 23 22 22 20 20 24 18 19 33 37 38 38 38 43 44 44 46 49 54 55 56 57 58 58 58 57 56 55 51 47 44 43 41 32 29 32 31
24 27 26 25 27 27 25 24 25 27 24 16 25 21 19 25 31 35 38 37 41 42 46 50 53 55 56 57 58 58 58 58 58 56 54 50 45 43 40 33 28 30 29 30
23 24 27 29 24 26 25 21 12 13 16 15 28 24 21 22 26 27 28 34 40 43 44 52 56 57 57 57 58 58 57 56 56 54 51 47 44 42 38 31 28 28 27 28
20 20 27 30 26 25 25 22 17 9 13 18 30 22 22 27 29 30 30 32 38 43 47 52 56 57 57 57 57 57 54 51 51 50 45 40 39 39 33 29 29 29 28 29
23 22 32 32 32 28 25 22 25 26 31 25 22 27 23 28 31 35 34 38 38 43 49 53 56 57 57 57 55 53 50 46 44 44 38 35 33 33 31 30 29 29 30 29
25 18 30 31 32 30 27 28 23 26 19 17 20 19 17 25 27 35 36 38 44 48 51 53 54 54 54 53 51 47 43 41 39 37 36 33 32 31 30 29 28 28 30 30
30 20 22 31 27 21 25 23 22 24 21 15 15 17 19 24 27 27 29 37 44 48 50 51 52 51 50 49 48 44 39 35 35 34 33 32 30 31 30 29 30 30 30 29
28 24 17 19 28 30 29 25 21 18 16 24 22 19 22 22 26 27 28 34 39 48 49 50 51 48 46 46 45 43 39 35 33 33 33 31 30 31 30 30 30 30 28 29
30 26 19 20 23 27 26 25 27 26 24 19 16 15 22 22 21 22 28 29 38 45 47 48 48 47 45 44 44 43 40 36 32 33 31 31 30 30 30 29 29 30 29 29
28 26 20 18 19 23 25 25 26 25 21 20 20 18 20 21 20 21 21 28 37 43 45 45 45 46 46 44 44 44 41 36 34 34 32 31 32 31 30 31 30 30 30 29
28 22 21 21 20 26 25 24 26 24 23 21 22 22 22 23 22 21 22 26 34 42 43 42 42 44 45 46 45 44 40 38 37 34 33 32 34 32 32 31 31 31 30 29
31 24 26 24 28 27 25 25 25 25 24 24 23 22 23 23 26 26 24 28 32 37 41 40 39 41 42 44 44 41 40 38 35 34 33 33 34 34 32 31 30 31 30 29
29 26 25 19 26 24 22 23 23 23 23 23 20 22 25 26 27 29 28 30 33 36 38 39 39 40 41 43 44 42 40 38 36 34 34 35 34 31 29 28 28 28 29 30
29 26 26 20 23 18 23 27 24 23 24 24 25 26 29 31 33 33 32 31 31 32 33 33 35 40 41 42 43 42 39 36 35 33 33 31 29 30 31 30 31 31 33 34
35 29 26 23 22 23 23 22 23 21 23 26 27 31 33 34 33 33 35 32 31 30 30 31 30 31 34 37 37 34 31 31 30 30 31 32 31 31 32 33 34 35 35 31
33 33 28 25 22 22 23 24 25 25 21 27 29 31 32 30 21 33 34 31 30 30 30 30 30 32 33 32 32 31 30 30 30 30 32 34 35 36 36 36 36 35 31 29
32 30 29 27 24 21 22 26 22 17 16 29 30 30 29 27 31 35 31 30 30 31 31 32 32 32 32 32 32 31 31 32 35 37 38 39 39 38 37 36 35 32 29 28
29 30 28 26 23 22 27 28 17 21 32 31 33 34 35 36 33 31 30 29 30 31 31 32 32 32 32 32 32 32 34 37 38 38 37 38 38 36 35 33 30 29 28 27
24 27 27 28 26 29 31 25 27 33 31 32 32 37 38 33 30 30 29 30 31 31 31 31 31 30 31 33 33 33 34 36 36 34 32 32 31 30 30 29 29 28 27 26
32 34 27 28 31 33 31 36 35 33 33 36 39 40 35 30 30 29 30 31 31 31 30 30 29 29 28 29 30 30 29 29 28 28 28 28 28 28 28 29 29 28 27 26
32 34 33 31 37 37 38 38 36 36 36 35 34 32 31 31 30 31 31 32 31 31 30 30 29 28 27 27 28 28 29 28 27 27 27 28 28 27 27 27 27 28 28 28
34 32 30 29 35 32 36 37 36 35 34 33 32 32 32 32 31 31 31 32 31 30 29 28 28 27 27 27 29 30 30 29 29 29 29 28 28 28 28 28 28 29 29 30

GFSCGP_sfc_30mbdewp_030.txt.gz
Dewpoint
29 24 20 20 23 23 23 22 21 21 21 32 32 32 37 43 46 48 50 51 54 54 54 54 54 55 58 59 59 59 58 57 56 55 54 52 51 51 49 47 46 48 45 43
27 24 24 25 26 25 25 22 20 21 18 27 27 31 34 42 45 47 47 49 50 52 54 54 54 56 58 59 59 58 58 57 56 55 54 52 51 51 47 45 45 45 43 42
25 22 27 26 24 22 22 22 21 21 17 22 24 25 34 40 42 44 45 46 47 47 52 54 55 56 57 58 58 58 57 57 56 55 54 50 48 46 45 43 43 43 42 42
27 26 26 25 23 24 21 24 23 22 17 12 20 13 23 37 41 41 42 42 45 45 49 52 55 56 57 57 58 58 57 56 56 56 54 51 49 46 44 42 42 38 35 32
23 25 26 24 24 25 22 25 24 23 20 21 23 18 18 32 37 40 42 41 41 44 45 49 51 55 56 56 57 58 58 57 56 56 55 52 50 47 44 41 34 32 31 31
25 27 26 24 26 26 26 24 22 25 23 17 23 22 20 23 31 37 40 41 40 42 44 46 48 53 55 55 56 58 58 57 57 55 55 52 48 46 42 36 31 31 30 31
24 24 26 29 24 26 25 21 15 11 15 14 27 25 21 22 24 30 35 38 39 40 43 46 48 50 54 55 56 57 58 57 57 56 54 52 49 45 41 35 31 28 29 30
19 17 27 29 25 22 24 22 17 11 10 14 28 19 16 27 28 30 30 30 34 40 42 47 51 52 54 55 56 57 57 57 56 56 54 51 48 45 41 33 31 29 29 29
20 19 31 32 31 28 25 22 23 25 30 25 21 23 23 25 30 33 33 35 34 42 43 46 53 54 55 56 56 57 56 56 54 54 51 49 46 43 38 36 32 31 31 30
24 17 29 30 33 31 27 29 23 25 18 17 19 20 15 17 26 32 34 36 38 42 46 48 53 55 56 56 57 57 55 53 51 50 48 45 43 42 39 34 32 33 32 30
26 19 18 31 27 21 26 24 24 24 22 15 15 16 21 18 25 27 29 35 38 44 48 51 54 55 55 55 54 53 51 49 47 45 43 41 40 37 36 34 35 31 31 32
26 21 16 18 26 28 26 24 24 20 18 23 22 18 23 19 21 25 23 29 35 42 48 51 52 53 53 53 51 51 46 43 41 40 39 38 36 37 35 32 31 31 31 31
28 22 16 16 24 28 26 27 26 25 23 20 17 18 21 23 21 21 21 26 33 40 47 49 50 50 50 50 49 48 43 40 39 38 38 36 34 32 30 30 31 32 31 30
28 25 18 15 16 22 24 25 28 25 22 21 21 21 21 20 22 21 21 22 25 37 44 48 49 49 47 46 48 47 44 39 38 37 36 34 32 31 31 32 31 31 31 30
25 18 23 22 22 24 23 23 26 24 24 21 22 22 23 24 24 23 23 23 27 36 43 45 46 47 47 46 46 45 43 40 39 37 35 33 32 33 33 33 32 32 31 30
30 24 23 22 27 27 24 25 25 25 25 24 24 23 24 24 26 26 25 31 35 39 41 42 42 43 45 46 46 46 43 41 39 38 36 36 36 35 34 32 31 31 31 30
27 26 24 21 27 25 23 25 25 25 25 24 22 23 24 26 27 28 30 34 36 35 36 38 40 40 41 43 45 44 43 41 39 37 36 38 37 34 33 32 30 29 29 32
27 26 25 20 23 19 23 27 25 24 23 24 24 25 26 29 32 33 33 32 32 31 31 32 33 36 38 42 42 40 39 38 36 36 36 36 33 31 32 31 31 34 35 37
32 27 23 20 20 21 22 24 23 22 21 25 25 30 32 34 33 33 31 31 31 31 30 31 33 33 33 33 32 32 31 32 32 32 33 33 33 33 34 35 36 37 37 37
32 30 23 23 20 19 23 25 25 24 18 27 30 31 32 32 19 32 31 31 31 31 31 32 33 33 32 32 31 31 30 31 32 33 35 36 37 37 37 37 37 37 36 33
32 30 25 24 23 25 26 25 23 18 18 27 31 32 32 26 26 33 30 30 31 31 32 32 32 31 31 31 32 33 34 36 37 38 38 38 38 38 38 37 36 36 36 33
31 31 29 27 26 26 26 25 20 22 26 30 31 32 31 34 32 30 30 30 31 31 32 32 32 32 33 34 35 36 36 38 38 38 38 38 38 37 36 35 33 30 29 28
28 30 28 29 27 30 29 27 27 29 28 31 31 34 35 33 31 30 30 30 30 30 30 30 31 32 33 34 34 34 35 32 31 30 29 29 29 29 29 29 28 28 28 27
31 31 27 28 29 30 33 33 34 33 32 33 35 37 34 32 30 30 30 30 30 29 29 29 28 28 28 28 29 29 28 28 27 27 27 28 28 28 28 28 28 27 26 26
31 32 30 29 34 37 36 37 35 35 36 35 36 34 32 31 30 31 30 30 30 29 29 28 27 27 27 29 30 29 29 29 28 29 28 28 27 26 26 27 27 27 28 28
34 31 28 24 30 29 29 36 36 35 35 34 34 31 31 31 31 31 31 31 30 29 28 28 27 28 29 29 29 28 27 27 26 25 26 26 25 26 26 26 24 25 27 28

GFSCGP_sfc_30mbdewp_033.txt.gz
Dewpoint
29 25 21 17 23 22 23 22 21 22 21 30 32 32 41 49 51 51 51 51 52 51 51 54 55 55 55 56 56 58 59 60 59 57 56 56 55 54 53 52 51 49 46 46
28 26 25 24 26 24 25 23 21 23 22 28 27 32 37 45 48 48 49 51 51 52 53 54 55 54 55 55 57 58 59 59 58 57 56 55 54 53 50 48 50 47 46 44
25 22 27 26 26 25 24 22 22 22 19 23 24 25 35 41 43 45 47 49 50 51 52 54 54 54 54 55 57 59 59 59 58 57 56 53 52 51 47 46 47 45 45 44
26 28 25 26 24 24 20 24 23 23 18 13 21 13 18 38 41 42 44 46 48 49 50 52 54 54 55 56 58 59 59 58 58 57 55 53 52 50 48 46 46 44 44 42
23 25 25 25 24 25 22 25 25 23 20 22 23 16 18 33 37 41 43 44 46 47 48 50 53 54 55 56 58 59 59 58 58 57 56 54 53 52 48 45 44 40 39 37
25 27 27 25 26 26 26 25 22 26 24 18 23 22 19 21 26 34 40 43 44 44 46 47 51 54 56 58 58 59 59 58 57 57 56 54 53 49 47 43 40 38 36 35
24 24 26 28 25 27 25 22 19 11 18 15 28 25 21 22 24 27 31 40 43 44 44 45 47 50 54 56 57 58 58 58 57 56 56 55 52 48 46 41 40 37 34 33
19 17 25 29 24 22 24 23 18 12 11 14 28 20 16 26 29 30 31 31 34 42 43 44 45 47 51 56 57 57 58 57 52 57 56 55 51 50 47 42 42 38 36 32
20 19 29 31 31 26 24 22 25 25 30 24 22 23 23 22 25 33 35 36 35 34 40 42 44 47 50 55 56 57 57 57 57 57 56 55 53 51 47 43 42 39 35 33
22 17 29 31 32 32 27 28 24 25 18 17 20 21 18 17 20 27 30 31 37 40 41 43 46 50 52 54 55 57 57 56 56 57 56 55 54 51 49 45 42 37 35 32
26 20 21 30 27 23 27 26 25 25 23 17 16 17 22 20 20 27 26 30 35 40 44 45 48 53 54 55 55 56 57 57 56 56 55 54 52 51 48 44 41 38 37 33
26 23 18 20 26 27 26 26 25 20 20 23 22 19 24 24 23 24 26 26 33 37 44 48 51 53 55 55 55 56 56 55 54 52 51 51 49 47 45 44 42 40 35 33
26 21 16 17 23 28 27 27 26 26 25 22 20 19 22 23 23 24 23 24 29 37 44 48 51 52 53 53 53 52 51 50 48 47 48 47 46 45 44 43 42 38 34 33
26 23 17 15 16 22 24 26 27 26 23 23 22 22 23 24 23 24 25 26 25 27 40 47 49 50 50 50 51 51 49 46 45 44 45 44 43 43 43 40 36 34 33 33
25 18 22 20 19 22 22 24 27 25 25 23 23 23 24 24 25 25 25 26 28 34 42 45 47 48 48 48 48 48 47 44 43 41 40 41 39 37 36 35 35 34 33 32
29 20 22 20 25 24 23 24 27 27 26 25 24 24 26 26 26 26 27 34 38 39 41 41 43 45 46 47 47 46 45 43 41 41 40 37 37 35 36 36 34 34 32 32
28 25 23 19 27 26 23 25 25 26 27 26 22 24 26 25 26 28 35 36 35 35 36 38 40 41 42 43 46 45 44 43 41 39 38 38 37 36 36 35 33 32 32 34
28 27 26 22 25 20 24 27 26 25 25 26 25 25 25 27 32 33 34 33 32 32 33 34 36 37 38 39 39 39 39 38 38 38 38 37 35 33 33 33 34 37 39 39
31 27 23 22 22 23 22 24 24 22 20 24 24 26 30 34 33 31 31 32 32 32 33 34 34 34 34 34 34 34 34 34 34 34 34 34 34 34 37 37 38 38 38 39
31 29 26 23 20 19 23 24 26 24 21 24 26 29 32 33 29 31 31 32 31 33 33 33 33 33 32 32 33 33 33 34 34 35 35 35 36 37 37 38 38 38 38 37
29 28 25 23 22 24 27 25 24 21 22 26 29 32 33 30 29 34 32 32 32 32 32 32 32 32 33 34 35 35 35 35 36 36 37 37 38 38 38 38 38 37 36 34
29 27 26 26 24 22 27 24 22 26 26 28 33 34 34 33 32 32 32 31 32 32 32 32 33 34 35 35 35 35 36 37 38 37 35 34 33 32 31 31 30 29 29 29
30 30 28 29 27 33 28 27 28 28 26 31 33 35 35 33 31 31 31 31 31 31 31 32 33 34 34 34 33 30 30 29 29 28 28 28 29 29 29 28 28 28 28 28
32 32 29 29 30 30 30 30 33 32 31 33 35 36 34 33 31 31 30 30 29 30 31 31 29 28 28 28 28 28 28 28 29 29 29 28 27 26 25 25 25 24 24 24
32 32 29 29 29 35 35 35 34 34 36 36 36 35 34 32 31 30 30 29 29 29 28 28 28 28 29 28 28 28 28 28 26 25 24 22 21 19 19 18 20 20 21 23
34 30 28 26 28 27 27 35 36 35 35 35 34 32 32 32 31 30 30 29 29 28 27 28 29 28 27 25 24 23 24 22 20 19 18 19 19 19 18 17 16 20 21 22

GFSCGP_sfc_30mbdewp_039.txt.gz
Dewpoint
26 23 19 15 14 12 17 14 15 24 26 25 25 24 34 41 39 41 42 39 39 41 44 48 46 47 48 50 49 51 51 53 55 54 49 48 47 50 56 58 57 57 55 54
24 23 20 18 14 14 18 15 13 16 19 20 19 18 22 38 39 39 40 40 38 39 41 46 48 47 48 49 49 49 50 52 55 54 50 47 48 50 53 56 57 57 56 54
23 21 20 20 15 16 16 15 14 16 20 20 18 15 16 27 37 41 40 40 40 39 39 42 45 48 49 50 51 52 52 54 56 55 51 48 50 53 54 54 54 56 56 53
22 22 21 17 15 17 15 16 19 19 18 16 19 14 23 21 29 36 40 40 39 40 40 40 44 46 48 49 51 52 53 53 57 57 53 48 49 53 55 55 54 54 54 53
21 22 23 18 18 19 19 23 20 20 18 18 15 12 19 15 20 26 33 38 38 38 39 40 42 45 48 49 50 52 52 52 53 58 56 52 51 52 54 55 54 54 52 51
22 21 21 20 20 21 20 23 21 21 19 17 16 15 16 17 15 16 24 32 36 37 38 39 40 44 45 48 51 53 51 51 52 56 57 56 54 54 56 56 54 52 52 51
20 22 20 23 22 23 23 20 18 16 17 15 17 16 14 24 17 17 19 25 33 36 36 37 38 41 45 48 50 52 52 52 52 55 58 59 59 59 58 57 55 53 52 51
18 17 19 23 20 20 21 20 20 26 17 16 21 13 13 17 18 19 19 23 24 34 36 36 35 40 44 47 51 53 53 54 54 57 60 60 57 57 58 58 56 54 52 50
17 17 18 20 21 21 21 18 21 22 22 18 16 15 16 14 15 19 21 29 30 28 33 36 36 36 42 45 50 55 54 55 56 59 59 59 58 57 58 58 57 55 50 46
18 16 18 21 22 23 22 25 20 20 18 18 13 14 13 16 16 17 17 20 29 31 31 32 36 37 40 43 47 54 56 56 58 59 58 58 57 58 58 57 56 53 48 47
19 19 18 24 24 20 23 24 22 22 19 19 18 14 19 18 18 16 18 20 22 26 35 37 37 37 40 42 46 50 55 56 58 58 58 55 55 56 57 57 55 51 49 47
21 18 18 23 21 20 22 21 22 21 19 21 20 19 19 18 19 22 20 22 23 27 30 38 41 43 43 44 46 49 54 55 55 58 56 54 56 56 57 57 56 53 51 49
23 19 18 16 22 24 23 24 22 22 22 22 26 21 20 21 20 18 20 22 24 26 28 38 43 46 48 48 49 50 53 53 54 57 55 56 57 57 57 56 55 53 51 49
27 19 18 17 17 20 19 19 19 19 21 21 19 18 20 19 20 20 20 24 25 25 26 33 41 46 49 51 52 52 54 54 54 54 55 56 55 55 54 53 52 50 49 48
26 23 19 18 16 15 16 18 18 18 19 19 20 19 21 21 20 19 26 25 24 25 26 31 41 46 50 52 53 53 54 55 54 53 53 53 54 52 51 50 50 49 48 47
26 23 22 17 16 15 13 14 13 13 14 16 15 15 19 19 18 19 21 24 27 30 34 38 42 46 49 51 52 52 52 52 52 50 49 49 49 48 48 47 45 44 40 38
26 27 22 19 18 17 16 16 16 15 15 16 17 18 20 20 19 21 23 24 30 35 38 41 44 47 48 49 49 48 47 47 46 44 43 43 42 41 40 38 36 36 35 35
31 29 26 24 25 20 21 21 19 17 18 18 17 19 20 21 19 26 28 28 35 38 40 42 43 43 44 43 43 43 43 42 42 41 41 41 40 38 36 35 35 34 36 37
32 33 28 26 24 21 18 18 21 19 18 19 20 21 22 21 28 31 32 34 37 38 39 39 39 40 40 40 40 39 39 38 38 38 37 38 37 37 38 38 37 37 37 37
36 36 33 29 23 20 21 21 23 22 19 20 19 20 22 24 28 25 33 36 37 37 37 37 38 38 37 37 37 36 36 36 36 37 37 37 37 37 37 38 38 37 38 38
35 35 34 30 26 23 22 21 22 22 19 24 22 23 23 23 29 33 35 36 35 35 36 36 36 36 36 36 37 36 36 36 36 36 36 37 37 37 37 37 38 37 36 34
35 31 33 32 29 28 27 26 23 26 26 28 29 27 26 27 36 35 35 35 34 34 35 35 36 36 36 36 36 35 35 36 37 37 36 36 35 33 31 28 25 24 25 27
26 33 31 29 28 32 31 28 28 26 24 29 31 28 29 34 35 35 34 34 34 34 34 35 36 36 35 35 35 35 36 35 35 33 29 26 24 24 25 25 24 23 23 23
31 34 33 30 31 30 32 32 30 31 31 32 32 30 32 36 35 34 34 34 34 34 34 35 35 35 35 35 34 34 33 31 28 27 25 24 23 21 20 17 14 15 20 19
31 34 32 29 27 27 31 33 34 32 33 32 32 31 33 36 34 34 34 34 33 33 34 35 34 32 31 30 30 28 27 26 24 23 22 21 18 15 14 16 16 17 21 19
32 30 32 32 30 33 32 35 36 34 33 34 32 32 36 34 34 34 34 34 33 33 33 32 32 30 29 28 27 25 25 23 21 19 19 20 18 14 12 12 20 18 19 19

GFSCGP_sfc_30mbdewp_042.txt.gz
Dewpoint
23 20 17 18 18 15 13 16 20 26 30 28 30 38 44 45 39 38 36 35 40 44 46 52 49 49 49 50 47 47 49 51 52 52 53 53 50 52 53 56 57 58 58 57
21 20 22 21 20 15 13 12 15 15 22 19 18 18 36 37 38 40 39 38 39 44 47 47 49 50 51 50 49 51 50 52 54 55 53 53 51 51 54 58 59 59 58 57
20 21 24 22 17 15 12 13 14 19 23 21 18 16 18 36 35 38 41 41 39 41 47 46 48 50 51 49 50 51 52 54 56 55 54 51 51 50 52 55 58 58 58 57
21 22 22 22 20 14 11 13 17 21 19 14 20 17 19 30 32 36 37 39 38 38 42 46 47 48 49 51 51 51 51 51 54 55 55 50 48 49 53 54 56 57 58 57
21 21 20 21 15 12 13 24 24 20 16 18 17 15 11 20 23 33 38 39 39 39 39 43 46 48 49 50 52 52 51 52 54 56 57 55 50 54 55 56 55 56 57 56
21 23 21 22 18 17 19 24 24 21 17 18 18 14 18 23 25 24 31 37 39 39 39 40 45 47 49 50 52 54 53 53 54 57 57 56 52 54 55 55 56 56 55 54
20 20 21 20 17 18 19 19 18 17 18 19 20 15 16 26 25 25 23 26 38 39 38 40 41 45 47 49 52 53 54 53 54 57 58 57 56 56 55 55 56 57 54 53
18 18 19 21 20 19 20 19 20 23 26 24 26 18 15 22 20 19 20 20 29 38 39 39 39 43 45 49 51 52 53 52 53 56 58 58 58 58 58 58 58 56 55 55
19 19 19 21 19 22 20 19 21 32 34 30 31 20 14 18 16 17 18 23 26 27 37 39 39 40 44 48 51 53 53 52 53 54 59 59 59 58 58 58 58 57 56 55
21 19 21 20 21 21 19 23 23 23 24 24 16 14 15 18 15 18 17 20 28 29 28 35 38 39 42 48 51 54 53 53 53 55 59 60 60 58 57 58 59 57 56 49
21 21 22 20 19 18 19 19 25 26 22 21 19 19 28 29 29 18 17 20 23 27 32 35 36 37 40 43 47 54 54 54 55 56 60 60 59 58 59 59 59 58 51 50
20 21 21 23 21 22 20 20 21 24 22 26 28 24 22 24 27 20 22 22 23 25 28 36 39 39 40 41 44 55 56 56 57 59 60 59 58 56 57 57 58 54 51 50
22 20 21 21 22 22 21 19 22 22 24 24 27 26 22 21 20 21 19 21 24 25 26 34 40 43 44 44 45 49 54 56 58 59 59 59 56 57 57 57 57 52 51 50
27 21 21 22 20 23 20 19 25 26 25 26 28 26 27 24 26 28 25 21 22 26 26 29 40 44 47 48 49 50 54 55 57 59 59 57 57 57 56 55 54 53 52 50
26 24 22 23 20 19 21 20 18 22 26 22 24 20 20 21 28 30 30 26 26 24 23 27 35 45 49 52 52 53 56 57 56 57 56 56 55 54 53 52 51 51 50 49
28 24 26 25 23 18 18 18 19 17 17 16 17 18 21 20 28 28 27 21 25 25 24 27 33 46 50 53 53 55 54 54 54 54 53 54 53 52 52 51 50 48 45 41
27 27 26 25 25 21 20 19 16 19 18 15 15 18 18 18 21 26 25 21 23 26 32 36 38 47 50 52 53 53 53 53 51 49 48 50 49 48 45 43 41 39 38 38
30 27 26 27 27 19 21 21 19 17 17 17 18 16 17 18 20 23 25 25 30 34 37 41 46 49 50 51 50 50 49 47 46 44 43 43 42 40 38 37 36 37 37 37
36 37 33 28 25 23 19 21 21 20 19 20 19 18 18 18 21 29 30 30 35 38 41 43 45 47 46 45 45 44 43 42 42 41 41 40 39 38 37 37 37 37 38 37
32 32 35 31 25 23 25 24 22 21 19 23 20 20 20 23 26 27 33 36 38 40 42 42 42 42 42 42 41 40 39 39 38 38 38 39 39 39 39 39 40 39 39 38
32 33 33 33 29 28 26 25 23 19 23 25 25 24 23 25 26 32 34 37 38 39 39 39 39 39 39 38 38 37 37 37 38 38 38 38 39 39 39 39 39 38 38 37
32 33 33 33 31 29 29 28 22 26 28 30 27 28 29 28 35 36 37 37 37 36 37 38 37 37 37 38 37 36 36 37 37 38 38 38 38 38 38 37 34 32 31 30
29 31 31 35 33 38 40 29 31 31 31 31 30 30 31 34 36 36 36 36 35 35 36 36 37 37 37 37 37 36 37 38 38 37 36 35 32 29 27 27 26 26 28 27
22 33 32 29 31 32 39 36 35 33 35 35 32 32 33 34 37 36 36 35 35 35 35 36 37 37 36 36 36 37 36 36 35 31 27 26 24 23 23 19 19 24 24 21
26 34 33 32 32 28 30 32 33 36 36 36 34 33 33 34 37 36 36 35 34 34 35 36 36 36 36 36 36 35 34 30 29 27 25 24 21 18 20 19 22 22 19 21
27 26 29 29 30 36 35 38 37 37 37 35 35 35 34 33 37 36 36 35 35 34 35 36 36 35 34 33 31 30 28 27 25 23 23 22 20 17 19 18 18 21 19 19

GFSCGP_sfc_30mbdewp_045.txt.gz
Dewpoint
26 23 21 20 20 21 20 17 15 25 28 31 34 35 35 35 43 42 45 44 50 51 50 48 49 49 50 50 51 50 50 50 48 48 47 46 47 49 52 52 54 54 52 57
24 22 22 21 20 20 22 18 13 21 27 28 28 35 37 38 42 39 38 44 44 49 50 48 48 48 48 49 49 49 48 49 49 49 49 49 50 52 52 55 56 55 53 58
23 24 23 22 23 22 19 15 13 15 23 23 22 22 37 40 44 40 36 38 42 46 51 49 47 47 48 47 47 48 48 48 49 49 52 53 53 50 51 54 56 56 58 58
24 24 22 21 22 22 17 16 18 21 21 18 21 17 35 40 42 40 38 36 38 44 48 49 48 50 49 49 47 47 48 48 49 53 54 51 51 48 50 53 57 58 59 58
22 22 22 22 22 22 20 21 21 21 22 21 17 21 24 36 37 39 40 40 40 43 47 47 48 50 50 49 49 50 50 49 52 54 54 54 51 50 50 53 56 58 58 58
23 23 23 22 23 23 18 23 23 25 24 19 18 21 19 30 27 35 38 40 40 42 47 46 49 50 50 49 48 49 50 51 53 54 55 56 54 50 52 54 55 56 57 57
24 22 23 23 21 22 19 21 21 20 20 18 31 26 24 24 26 35 32 39 40 40 46 46 46 48 48 50 49 49 50 50 51 52 55 55 55 54 54 54 55 56 55 55
22 20 22 22 21 19 19 19 19 17 20 26 32 25 22 23 24 24 29 38 39 39 40 45 46 47 48 48 50 51 51 50 51 53 54 55 56 55 55 56 56 56 56 56
20 20 22 21 21 20 21 20 24 31 34 29 30 29 30 25 25 17 18 23 36 39 39 40 45 47 48 48 49 51 52 52 53 55 56 56 57 57 56 56 57 57 57 55
23 21 22 22 21 21 20 24 23 30 23 24 28 29 26 22 22 20 18 18 24 32 39 39 41 45 47 49 50 51 52 53 53 54 57 57 57 57 57 58 57 56 56 54
23 22 22 24 23 20 20 20 21 28 28 24 20 21 28 26 26 23 22 25 28 29 35 38 41 44 46 50 51 53 52 53 54 54 56 58 58 58 57 57 57 57 54 52
22 23 20 22 25 25 24 20 21 22 23 28 25 23 29 27 26 22 22 22 26 29 32 38 44 45 47 52 53 52 53 56 56 55 56 59 59 58 57 57 57 57 54 51
23 20 18 21 21 25 22 21 22 23 25 24 24 25 28 27 26 27 23 23 26 25 28 38 40 42 43 45 51 51 55 55 56 57 60 59 58 59 58 58 57 55 52 51
26 21 19 18 20 24 23 24 22 21 22 22 27 27 28 28 28 23 29 31 32 27 25 38 41 44 45 47 51 54 55 57 58 59 59 59 57 57 56 56 55 53 51 50
34 22 22 20 23 24 25 25 22 21 21 26 27 27 26 24 26 27 32 32 32 28 27 33 41 45 48 49 53 56 56 58 59 59 58 56 55 55 54 54 53 52 51 50
38 26 24 23 23 22 21 23 23 23 24 28 27 26 28 27 28 29 29 30 31 25 23 27 42 48 52 53 55 55 56 56 58 56 55 54 53 53 52 52 51 50 48 46
38 35 26 22 24 23 22 24 22 22 24 23 23 24 21 21 27 27 28 28 27 26 27 28 43 50 53 54 54 53 54 54 54 54 54 53 52 52 50 46 45 43 42 40
38 37 34 24 26 23 24 25 24 22 21 21 18 19 19 19 19 24 28 27 26 30 35 39 48 51 53 53 53 53 51 49 50 50 49 48 45 42 41 40 39 38 38 38
39 36 33 27 24 25 26 23 21 20 20 22 20 19 20 20 20 27 29 31 33 36 41 47 50 51 51 51 50 49 47 45 45 44 43 41 39 38 37 37 37 37 37 38
38 37 33 33 25 23 26 28 27 24 20 23 23 24 25 21 22 26 32 35 39 42 45 46 47 47 47 46 45 44 43 42 42 41 40 39 38 37 37 37 37 37 37 36
32 32 31 30 31 30 32 27 25 20 21 23 26 25 28 25 29 32 37 39 41 42 43 43 43 43 42 42 41 40 40 39 39 40 39 40 40 40 39 39 39 39 38 37
31 30 31 33 31 28 37 33 25 35 34 32 29 28 28 33 34 34 38 39 40 40 41 41 40 40 40 39 38 38 38 39 39 39 39 39 39 38 38 38 38 37 36 35
26 30 31 33 35 37 37 36 40 39 38 38 34 34 34 36 34 36 38 38 38 39 39 39 38 38 38 38 37 37 37 39 39 38 38 38 38 38 38 36 35 33 33 31
29 34 29 32 32 31 30 36 42 44 40 37 38 36 36 37 37 37 38 37 37 37 37 37 38 37 37 37 37 38 38 38 37 37 37 36 32 29 24 26 26 25 24 22
28 33 32 31 30 30 33 35 40 39 43 37 39 38 34 37 37 37 37 36 36 36 36 37 37 37 37 37 37 37 37 36 34 30 27 25 23 20 23 24 21 20 22 23
30 30 31 29 32 34 36 37 38 39 39 39 39 37 36 35 37 37 37 36 35 35 37 37 37 36 36 35 35 35 33 30 27 24 23 22 21 19 20 21 18 20 19 19

GFSCGP_sfc_30mbdewp_048.txt.gz
Dewpoint
24 23 22 22 22 21 21 21 20 20 25 31 32 32 33 41 43 43 44 48 51 50 48 50 50 50 51 52 51 52 52 51 51 49 48 48 48 49 48 45 48 50 52 56
22 22 24 25 23 21 20 19 20 19 26 28 29 32 36 38 42 42 43 48 50 50 48 49 49 50 50 51 51 50 50 50 49 48 47 47 47 48 47 46 49 53 54 55
21 23 24 24 22 21 21 20 20 15 21 26 28 28 31 37 39 42 43 45 50 50 48 47 48 48 49 50 51 50 50 48 48 47 46 47 47 47 46 46 50 55 54 53
25 23 23 24 22 21 20 23 19 21 21 18 21 17 29 33 37 41 41 43 46 50 49 47 48 48 48 49 50 49 49 48 48 49 47 46 47 46 46 47 50 54 56 56
27 25 24 23 23 23 22 24 21 20 20 21 19 19 23 32 38 39 39 39 42 50 50 47 47 48 48 48 48 49 48 48 48 49 49 48 51 52 51 51 52 55 56 57
27 26 24 23 24 24 24 21 23 25 25 21 24 24 21 35 35 39 41 36 37 44 51 50 47 47 48 47 46 47 48 47 47 48 49 52 53 52 50 50 52 53 56 58
22 23 24 25 22 23 22 22 19 20 20 20 29 27 26 26 36 36 39 40 38 38 46 50 48 48 48 48 46 46 47 47 47 48 49 52 54 52 51 50 51 53 55 56
20 20 23 25 23 21 21 20 17 16 18 21 31 22 23 29 30 29 39 40 41 40 42 46 48 49 50 49 48 46 47 49 48 49 51 53 54 55 54 52 53 54 55 56
22 21 24 23 23 22 20 19 22 27 34 29 26 29 28 27 25 25 32 37 40 41 42 46 47 49 49 50 48 47 47 49 49 50 52 53 54 55 55 55 55 56 56 56
22 21 23 22 23 22 21 26 23 29 21 20 25 28 26 26 21 21 21 30 39 40 41 46 46 47 49 50 49 48 47 47 48 50 51 52 52 54 55 56 55 56 56 55
21 21 21 24 24 20 21 20 24 27 26 21 22 22 26 26 25 25 23 22 27 37 40 41 46 47 48 49 49 50 50 50 51 52 52 53 54 55 57 56 56 56 56 55
23 21 18 19 23 25 22 20 21 21 25 27 25 24 27 28 28 26 25 24 29 33 36 40 41 45 48 48 49 49 51 52 52 53 53 54 56 57 58 58 58 58 56 54
35 23 20 20 21 22 22 24 22 24 26 27 25 26 30 29 28 26 27 25 26 28 35 39 42 44 46 48 49 50 50 51 53 54 54 55 57 58 57 58 59 59 56 54
37 30 21 18 19 22 22 23 23 22 21 21 23 22 27 28 26 27 27 29 29 26 30 39 43 45 46 47 49 51 51 53 53 55 55 56 58 58 58 58 58 56 54 53
40 33 30 25 21 22 21 20 23 24 23 20 21 25 27 29 28 28 29 30 32 29 27 35 41 42 44 45 48 49 52 52 55 56 56 57 58 58 58 57 55 54 53 52
40 36 35 26 24 21 20 25 23 24 24 23 22 26 29 29 29 28 29 30 30 30 28 28 40 45 48 51 53 53 53 54 56 56 57 58 57 56 55 54 53 52 50 49
35 36 35 28 24 24 21 22 24 24 24 25 24 27 28 28 27 28 29 31 29 28 26 27 37 45 50 54 55 55 56 58 58 58 57 55 55 54 53 51 50 49 47 45
36 34 35 32 27 21 25 24 23 22 24 23 23 22 23 25 23 23 29 30 30 30 29 27 40 49 53 54 54 54 55 55 55 54 54 53 51 50 48 48 46 43 43 43
37 33 30 29 29 27 26 26 25 23 23 25 23 21 20 21 22 23 26 29 30 29 30 33 46 52 53 53 53 51 52 52 51 51 49 47 46 44 43 42 42 40 39 38
37 36 29 30 25 26 27 27 28 26 21 25 25 23 23 25 21 22 27 31 32 36 40 46 50 52 52 51 49 48 47 47 46 45 45 43 42 41 40 38 38 38 37 36
31 32 30 30 27 29 34 35 33 22 23 37 38 33 28 26 26 26 30 36 40 42 45 49 50 50 48 47 46 45 44 44 42 41 39 38 38 38 38 37 37 37 37 36
29 29 29 30 27 20 39 33 28 34 39 38 38 37 37 35 32 33 36 38 41 43 45 46 47 46 44 43 43 42 41 40 40 40 39 39 38 38 38 37 37 37 37 35
25 29 29 31 26 33 38 33 40 40 39 39 39 36 38 36 35 36 36 40 42 43 43 43 43 41 40 40 40 39 39 40 40 39 39 39 38 38 39 38 37 36 34 32
24 34 31 33 30 33 32 39 40 41 40 40 39 39 40 39 38 37 39 40 40 40 40 40 39 39 38 38 38 39 39 39 39 38 38 38 36 32 31 31 32 33 31 29
26 31 28 32 31 32 32 34 36 36 36 35 37 39 39 40 39 39 39 38 38 38 38 39 38 37 37 38 38 38 38 38 36 34 30 26 27 25 22 21 23 24 25 25
37 36 35 30 38 38 32 34 38 35 37 36 36 36 37 38 37 38 38 37 37 38 38 38 37 37 37 37 37 35 34 32 30 27 24 23 23 20 17 17 19 22 23 25

GFSCGP_sfc_30mbdewp_051.txt.gz
Dewpoint
25 22 21 22 22 22 20 20 19 20 21 23 25 32 32 41 44 47 45 47 47 48 50 50 51 51 51 52 52 54 54 54 54 53 52 52 52 49 45 45 49 49 53 57
25 21 22 24 24 22 21 20 19 20 21 27 27 28 34 39 40 43 43 45 47 49 49 49 50 50 50 52 52 53 53 52 53 53 53 52 51 50 46 45 46 49 52 53
26 23 24 24 23 22 22 21 19 19 21 29 28 24 27 37 41 43 43 45 48 48 49 48 49 49 50 50 51 51 51 50 49 49 49 49 50 49 47 47 46 47 52 53
26 26 23 24 22 23 21 22 22 22 20 18 24 19 20 30 37 41 42 44 48 50 50 48 48 49 49 50 51 51 50 50 48 48 46 46 46 46 46 46 46 47 50 53
28 26 24 23 22 24 22 24 23 23 22 21 20 18 19 32 34 37 41 42 45 50 50 48 48 48 48 49 50 50 50 49 48 48 47 46 46 46 47 47 47 47 51 54
27 28 26 24 25 25 24 23 23 25 24 20 20 21 21 23 25 32 38 41 43 48 50 49 48 48 48 48 49 50 49 49 48 48 48 47 47 48 48 49 49 50 52 54
21 24 26 25 23 24 24 22 19 17 19 19 25 28 26 25 28 30 34 40 41 45 50 49 47 47 48 48 48 49 49 48 48 48 48 48 48 49 51 51 51 51 51 53
18 16 20 24 24 22 22 22 19 15 16 18 30 24 23 28 29 32 37 41 39 41 48 50 48 47 47 47 47 47 48 48 48 47 48 48 50 51 53 52 52 51 52 53
19 18 23 23 24 24 22 20 22 23 32 27 24 26 28 27 27 29 29 39 41 37 41 48 50 47 47 47 47 46 46 47 47 47 47 47 48 50 51 54 53 52 53 53
22 21 24 23 23 23 22 25 22 27 18 19 23 26 21 22 25 23 22 31 40 41 38 41 49 49 48 48 48 47 45 46 46 47 47 47 48 50 52 53 54 54 54 55
20 21 20 22 23 21 21 21 25 25 24 17 18 19 29 28 28 24 23 23 31 41 42 41 44 49 49 50 50 49 46 46 48 48 48 48 49 51 53 54 54 55 56 56
24 22 19 19 21 23 22 21 23 21 24 27 24 21 27 28 28 28 25 26 25 32 41 42 44 46 48 49 51 50 49 47 47 48 50 50 50 52 53 54 56 56 56 56
34 28 20 20 21 22 20 21 23 27 27 23 21 22 29 29 29 28 26 27 25 29 34 40 43 46 47 49 50 50 50 49 48 48 49 50 52 53 53 55 56 57 57 57
35 34 30 25 23 23 22 21 22 22 21 21 24 23 26 27 27 27 28 28 26 26 29 36 40 42 46 47 49 49 50 51 50 50 50 51 52 54 55 56 57 57 57 57
36 32 35 36 34 31 23 22 23 22 23 21 22 23 25 25 26 28 28 28 29 29 27 33 40 42 43 47 48 49 49 50 51 52 52 52 53 55 57 57 57 57 58 56
39 32 35 32 33 29 25 23 21 21 25 24 23 23 26 27 28 29 29 29 29 29 30 27 37 42 45 46 47 49 50 51 51 51 52 54 55 56 57 57 57 57 54 53
35 32 30 26 31 33 25 24 23 22 25 25 23 25 26 27 29 29 29 29 29 30 31 30 29 40 43 45 46 47 48 51 53 53 53 55 56 56 57 56 54 52 51 50
35 32 32 26 27 25 29 26 25 24 25 25 25 24 25 27 26 28 29 29 30 31 30 30 29 39 44 48 52 53 54 54 54 55 56 56 57 56 54 52 51 49 47 47
36 32 29 24 24 25 22 28 28 33 30 27 24 24 24 24 22 21 22 26 28 30 31 31 29 41 49 51 53 54 55 56 56 55 54 54 53 51 50 48 47 45 44 43
36 35 28 29 22 18 17 18 29 33 28 33 37 34 29 26 23 23 24 26 27 29 31 34 40 48 52 52 53 53 53 54 53 52 50 50 49 48 46 45 43 42 41 40
32 32 29 29 27 28 31 31 37 23 29 37 38 37 36 30 29 31 32 30 33 35 39 45 49 49 52 50 51 50 50 50 48 47 45 44 44 44 42 40 39 38 38 37
28 28 28 30 28 24 36 36 26 33 35 39 39 39 38 39 38 36 36 37 39 40 45 48 49 49 49 48 48 46 46 43 42 41 40 40 39 39 38 38 37 37 36 33
27 28 27 30 27 31 40 32 36 35 37 37 41 39 40 39 39 38 37 39 41 44 45 46 46 45 44 44 45 44 41 40 40 39 39 38 38 38 37 36 36 35 33 32
26 32 29 29 23 27 32 38 38 37 40 40 40 39 39 39 41 39 39 39 40 42 42 42 43 42 41 41 41 40 40 40 39 38 37 36 34 32 32 33 34 32 32 31
28 32 33 29 33 36 33 37 37 38 42 41 40 38 37 38 37 38 39 39 40 40 40 41 40 39 38 39 39 39 39 39 36 32 31 29 27 26 25 25 26 27 27 30
36 34 32 30 38 37 39 39 39 38 38 38 39 38 38 38 38 38 39 40 39 39 39 38 38 37 37 36 36 36 36 34 31 29 28 25 23 22 21 21 22 26 27 27

GFSCGP_sfc_30mbdewp_054.txt.gz
Dewpoint
30 27 24 22 22 21 17 19 18 18 20 20 19 21 23 35 47 48 49 48 47 48 50 50 51 52 52 53 54 54 55 55 55 55 55 55 53 49 50 53 55 55 55 56
24 23 25 24 23 22 21 20 18 18 19 22 23 25 29 34 39 44 46 47 46 48 49 50 50 51 51 52 53 54 54 55 55 54 53 54 53 52 51 49 52 53 54 57
24 24 23 23 23 22 22 20 19 16 20 23 26 22 25 32 39 42 43 44 45 46 48 49 49 49 50 51 52 53 53 54 54 54 54 54 53 51 51 49 48 51 51 51
27 27 24 23 22 23 20 23 21 21 20 19 26 19 21 22 29 37 41 43 44 46 49 48 49 48 49 49 50 51 52 51 52 53 52 52 52 48 50 49 47 48 51 52
25 27 25 23 22 23 20 22 22 22 22 21 21 19 19 29 27 28 34 41 43 46 49 48 48 49 49 50 50 50 51 50 49 49 49 52 52 51 51 47 47 47 48 52
24 29 27 25 25 24 25 23 24 25 23 20 20 19 18 19 22 24 30 38 41 45 49 49 49 49 49 50 50 50 50 50 49 48 48 48 49 48 48 47 46 46 48 49
22 25 26 24 23 25 24 22 18 18 21 20 22 21 21 24 25 26 27 33 41 43 48 49 48 48 48 48 49 50 50 49 49 48 48 47 47 47 47 47 47 48 48 48
18 16 22 25 24 23 23 22 19 16 17 17 29 24 22 27 29 30 31 35 40 43 47 49 48 47 48 48 49 49 49 49 49 49 48 48 47 47 47 48 47 49 49 49
19 18 22 22 25 25 23 21 23 23 30 25 23 25 26 25 27 26 27 34 39 41 45 48 49 48 47 47 48 48 49 49 49 49 48 48 48 48 47 48 51 51 51 52
22 18 23 23 24 24 22 25 22 24 19 19 22 25 18 20 20 26 24 29 37 39 41 47 49 48 47 47 47 48 48 48 48 48 48 48 48 48 49 50 51 52 52 52
22 21 20 21 22 21 22 21 25 23 24 18 17 18 27 23 26 27 26 24 31 40 39 40 47 49 48 48 48 48 47 47 47 48 48 48 47 48 48 50 51 53 54 54
31 22 17 16 20 24 22 21 24 20 21 26 22 19 26 27 28 28 28 27 25 35 41 40 40 47 49 47 48 48 47 46 46 47 47 47 48 48 49 49 51 53 54 55
31 31 22 21 22 23 20 21 21 26 26 22 21 21 29 28 28 29 29 27 28 26 32 42 42 43 49 48 49 49 49 47 46 47 47 48 48 48 49 50 51 53 54 54
37 33 31 26 30 34 31 29 23 21 19 21 22 23 24 26 26 25 27 28 28 28 27 36 42 44 46 48 49 50 50 50 48 47 47 48 49 50 50 50 51 53 54 54
37 27 34 35 33 34 31 30 27 23 23 20 20 22 24 25 26 26 26 28 29 29 28 28 36 42 46 47 48 49 51 50 50 49 48 47 48 50 51 52 53 53 55 55
36 31 34 29 32 28 26 30 26 25 23 24 24 23 25 26 28 27 27 28 28 29 29 29 30 39 41 46 47 49 50 51 51 50 49 49 49 49 50 52 53 54 55 56
33 31 28 23 29 25 21 25 22 27 27 25 23 24 26 25 27 28 28 29 29 29 30 30 30 30 38 43 46 48 49 50 50 51 51 51 51 51 52 53 55 56 56 56
34 32 29 24 25 14 20 28 31 28 26 21 23 31 28 27 26 27 30 29 29 30 31 31 32 31 34 42 46 47 48 50 50 50 51 52 53 53 54 55 55 55 54 52
38 33 27 24 22 22 19 23 29 27 22 20 29 37 37 34 26 24 24 25 25 26 28 30 32 32 33 40 45 48 50 50 51 52 53 53 54 55 54 53 52 50 48 46
36 33 28 27 23 14 15 18 31 31 18 34 36 37 38 37 29 27 28 30 28 30 30 30 32 37 39 45 51 51 52 53 53 54 54 53 53 52 51 48 46 45 44 42
30 31 28 26 26 26 28 33 35 23 13 31 36 37 37 37 36 38 40 38 37 35 38 38 41 40 45 50 52 52 53 52 50 49 49 49 49 47 45 42 42 41 39 37
28 27 26 27 26 21 34 34 28 28 32 35 35 32 35 38 40 40 40 39 40 42 45 48 48 48 49 50 50 49 47 46 46 45 43 42 41 40 40 39 38 37 34 32
25 28 26 28 25 30 39 34 34 37 34 33 32 35 36 39 39 41 39 39 41 42 44 45 45 45 45 47 47 46 42 43 42 41 39 39 38 38 38 37 36 34 33 31
30 32 30 30 27 31 36 38 38 39 38 36 37 35 39 39 39 38 39 40 40 41 42 43 43 42 41 42 42 42 41 41 40 38 36 35 34 33 33 33 33 33 32 30
24 31 30 29 33 35 38 40 37 39 39 39 41 40 37 35 35 38 39 40 40 41 41 40 39 38 38 39 40 40 40 38 35 33 31 30 30 29 28 28 29 30 31 31
35 33 30 27 36 36 36 39 35 37 35 34 32 32 30 30 36 39 36 35 36 36 35 34 33 32 31 31 32 34 34 34 33 31 29 28 27 26 26 26 26 29 29 28

GFSCGP_sfc_30mbdewp_057.txt.gz
Dewpoint
31 28 23 21 22 20 19 17 17 20 21 19 20 21 23 26 44 46 48 49 50 49 49 50 51 52 53 54 54 55 56 56 56 55 55 56 55 55 56 54 55 56 54 53
27 27 28 25 24 22 20 19 19 21 21 19 19 21 25 30 34 41 45 48 49 48 49 50 51 52 52 52 52 54 56 56 56 56 56 56 54 54 55 55 55 55 54 53
25 25 27 24 23 22 22 21 21 18 20 22 24 23 22 27 35 39 44 46 47 47 48 50 50 50 51 52 53 53 55 55 56 56 57 57 56 54 53 52 54 54 56 56
25 25 24 23 22 23 21 23 22 20 18 14 24 18 22 22 24 30 36 43 44 46 48 49 49 49 50 51 52 53 54 55 55 56 55 54 52 51 53 52 51 52 54 55
23 26 24 22 21 24 19 23 22 22 20 22 21 20 21 24 23 23 27 35 43 44 47 48 49 49 49 50 50 52 53 53 54 55 54 54 52 52 52 51 49 49 51 53
21 29 26 22 25 24 25 22 25 26 24 20 21 20 19 20 21 22 25 31 40 44 46 48 49 50 49 50 50 51 52 51 52 53 53 53 52 52 50 51 50 49 49 51
25 25 26 26 24 25 24 23 18 19 21 19 24 21 20 22 24 25 26 28 36 43 46 48 49 49 49 49 50 51 51 51 51 51 51 52 51 52 51 50 50 50 49 49
20 18 25 27 25 24 24 21 19 16 18 18 28 21 20 27 29 30 31 32 35 42 46 48 48 49 49 49 50 50 50 51 51 50 50 51 52 52 51 51 50 50 49 48
17 17 23 25 26 25 24 22 24 23 29 23 23 25 25 24 24 25 28 28 32 39 44 47 48 49 49 49 49 49 49 50 51 51 50 49 50 50 50 50 51 51 51 51
22 18 23 23 25 26 24 26 22 24 17 17 21 23 19 20 20 23 28 25 31 38 43 46 48 49 49 49 49 50 49 49 50 51 51 50 50 49 50 50 50 50 50 51
24 21 21 24 21 21 23 22 25 24 23 18 17 20 27 24 24 25 29 28 27 30 40 44 48 49 49 49 49 49 49 49 49 50 50 50 50 50 50 50 50 50 51 51
31 21 17 19 21 24 23 23 24 21 21 26 23 19 24 26 29 31 29 29 29 28 36 41 44 49 49 48 48 48 48 48 49 50 50 50 50 50 50 50 50 51 51 52
36 30 22 21 21 26 24 23 23 27 25 22 22 21 26 28 28 28 29 31 30 29 29 40 41 46 48 48 48 48 49 48 48 49 49 50 50 50 49 50 50 51 51 52
36 33 28 23 27 33 31 31 31 25 21 20 22 22 23 24 27 29 29 29 30 30 29 31 40 42 45 48 48 48 49 49 48 48 48 49 49 49 49 49 49 50 51 51
36 28 30 33 33 34 30 28 29 27 25 22 22 23 23 25 26 26 29 29 29 29 30 31 31 39 43 46 49 49 49 50 49 48 48 48 49 49 49 50 50 51 51 52
27 32 32 27 30 31 26 27 23 26 25 25 24 24 27 30 29 28 28 29 28 29 29 29 31 33 39 45 47 49 50 51 50 49 48 48 49 49 50 50 50 51 51 52
26 32 28 19 29 24 17 25 25 27 27 27 22 20 22 33 34 32 30 30 29 28 30 31 32 32 35 40 45 47 49 51 51 51 50 49 49 49 49 50 50 51 52 53
25 31 30 25 26 12 18 29 27 28 28 25 22 21 35 37 38 37 34 29 31 31 29 31 32 34 34 36 42 46 48 50 51 51 51 51 51 50 50 50 50 51 53 53
32 30 30 25 23 23 18 21 29 26 17 29 33 37 37 38 37 35 36 39 40 39 36 31 32 33 34 35 39 44 47 48 49 50 51 51 52 51 52 52 52 54 53 52
35 35 31 28 22 16 16 22 32 27 14 31 35 35 35 37 34 35 37 41 41 40 39 37 35 34 34 35 42 45 46 48 49 50 51 52 52 53 54 54 53 49 48 45
30 30 28 27 25 26 27 29 33 19 18 29 34 35 34 35 36 37 41 40 40 41 43 46 47 45 47 48 50 49 51 50 51 52 52 52 52 50 48 46 44 42 40 38
26 25 27 27 26 21 30 35 29 34 36 34 34 33 33 36 39 39 39 39 40 41 44 46 47 47 48 50 52 50 48 48 48 47 45 44 44 43 42 41 39 37 35 33
27 28 26 27 26 30 37 37 38 39 39 39 39 37 38 40 41 40 38 39 41 41 43 44 44 43 43 45 48 46 44 44 43 41 40 40 39 39 38 37 35 34 33 32
30 32 29 28 28 32 38 39 37 38 37 35 37 34 33 32 34 36 39 39 39 40 40 41 41 40 40 41 42 43 42 41 40 38 36 35 34 33 33 34 34 32 32 31
25 30 30 30 31 34 38 37 36 36 35 34 33 31 29 28 30 33 31 31 32 32 33 34 35 35 35 35 35 36 37 37 35 34 33 32 31 30 29 29 30 30 31 31
34 32 30 27 35 35 35 35 33 34 32 31 30 29 28 28 27 27 27 27 27 28 28 28 28 28 29 30 31 31 33 33 32 30 30 29 28 28 27 26 26 28 28 27

GFSCGP_sfc_30mbdewp_060.txt.gz
Dewpoint
30 26 20 18 19 15 12 13 11 8 16 20 18 18 18 20 28 35 39 42 44 46 46 47 49 52 53 54 56 56 57 57 56 55 55 55 55 54 56 56 56 54 50 53
30 26 23 23 20 18 14 13 11 11 18 17 12 12 18 20 24 28 35 40 43 46 46 47 49 51 52 53 54 55 56 56 56 55 54 55 55 56 56 56 55 55 54 52
24 23 26 26 20 19 16 13 13 13 16 17 16 15 17 19 26 29 35 37 41 44 46 47 48 49 51 51 52 54 55 56 56 55 55 55 56 55 56 55 52 53 54 55
18 18 24 25 21 18 14 16 16 17 17 7 18 10 15 19 20 20 22 36 39 43 45 46 48 49 50 51 52 52 54 56 56 57 55 55 53 52 52 53 54 52 54 55
20 20 17 21 21 19 17 18 20 19 18 14 10 12 12 18 19 19 19 23 38 41 44 46 48 48 48 50 51 52 53 54 56 56 56 54 53 52 51 53 53 53 55 56
23 26 22 18 19 22 21 21 21 20 16 14 13 14 12 13 17 16 17 19 30 38 43 45 48 49 48 49 50 51 52 53 56 56 56 55 54 53 52 54 53 53 53 55
19 22 25 25 16 21 21 18 15 14 16 13 17 17 17 19 21 20 20 21 31 39 41 44 47 48 48 48 50 50 51 52 54 55 55 55 54 53 53 53 52 52 52 53
12 16 22 26 22 20 21 19 13 13 14 15 22 17 18 21 24 26 27 27 30 36 41 44 46 48 48 48 49 49 51 51 53 55 54 55 55 53 52 53 52 52 51 50
14 14 22 25 25 22 22 20 20 17 25 21 20 21 23 21 20 22 21 24 26 29 39 43 45 48 49 49 49 49 49 51 52 53 54 54 54 54 52 51 52 52 52 51
19 15 18 24 26 25 25 24 21 20 15 16 16 19 17 19 19 20 24 26 27 33 38 42 45 47 49 49 49 50 49 49 51 52 53 54 54 53 52 52 51 51 51 51
20 23 23 23 23 23 24 23 22 21 18 15 14 17 22 21 24 26 26 27 29 29 38 42 44 46 48 49 49 49 49 48 49 51 52 52 52 52 52 51 51 52 52 51
19 23 17 19 23 23 22 21 22 19 19 21 20 17 23 26 25 28 28 27 30 31 34 39 44 46 47 49 49 49 49 48 48 50 51 52 52 52 51 52 52 53 53 53
34 18 12 10 15 22 21 21 22 22 22 22 21 19 23 25 24 24 24 28 29 31 30 38 41 44 47 48 49 49 49 48 48 48 49 51 52 52 52 52 52 52 52 53
37 32 17 13 14 24 25 24 27 23 20 20 19 20 21 22 22 25 26 27 28 29 30 32 38 40 44 46 48 48 49 50 49 48 48 49 51 52 52 52 52 52 52 51
34 30 29 29 29 29 28 27 26 26 25 22 20 20 21 23 27 30 30 28 28 28 28 30 32 34 39 43 47 48 48 49 50 49 48 49 50 51 51 51 51 51 51 51
28 24 28 23 25 27 23 23 23 23 26 25 24 23 26 23 25 31 33 32 31 30 30 30 30 31 32 37 43 47 48 49 50 49 49 49 49 50 50 50 50 50 50 50
25 28 23 16 23 23 17 19 20 25 27 26 25 24 22 18 26 32 34 33 33 35 34 33 31 31 32 35 38 42 47 48 49 50 49 49 49 49 50 50 50 50 50 51
23 30 30 18 26 13 18 27 26 27 27 27 22 21 27 31 34 35 36 38 38 39 39 39 39 37 34 34 35 40 42 47 49 50 49 49 49 49 49 50 50 50 51 51
25 27 27 21 17 13 15 21 24 27 20 26 25 27 29 31 35 32 37 38 39 39 40 40 41 40 39 37 35 35 38 42 46 48 49 49 50 50 49 50 50 51 51 52
26 27 27 27 18 15 15 26 29 25 13 25 26 26 28 30 31 30 37 39 38 39 41 44 46 46 46 42 41 37 39 41 43 46 48 50 50 51 50 51 51 52 53 53
26 26 23 24 21 21 25 26 30 15 24 32 31 31 31 31 33 37 39 38 39 40 42 45 47 47 47 49 50 45 42 43 46 49 49 50 51 51 52 53 51 47 43 40
24 21 23 22 22 20 31 29 23 35 36 38 38 38 37 36 38 39 37 39 39 40 41 43 44 45 44 45 50 50 49 50 51 51 49 47 47 45 45 44 41 40 38 35
24 22 22 22 22 34 37 36 38 39 38 37 37 37 37 37 36 36 38 36 36 36 37 39 40 39 39 40 43 43 43 43 42 41 39 38 38 38 39 38 37 36 35 33
25 30 28 27 24 30 36 38 38 38 37 36 35 34 34 34 34 34 33 32 33 32 32 34 34 33 32 33 35 38 40 39 38 36 34 33 33 32 33 33 33 33 32 30
24 28 23 23 24 33 37 37 36 37 37 35 33 32 31 31 32 32 32 31 31 30 30 30 31 30 30 30 31 33 36 35 33 32 32 31 30 29 27 27 29 29 30 31
27 23 25 22 35 34 35 36 35 35 33 31 30 29 29 28 29 30 30 30 29 28 27 27 27 27 28 28 29 30 32 32 31 30 30 30 29 28 26 25 25 28 28 28

GFSCGP_sfc_30mbdewp_063.txt.gz
Dewpoint
14 20 23 21 21 21 17 14 13 15 13 14 15 14 18 18 21 25 30 32 36 41 44 46 46 49 52 54 57 58 58 57 55 56 56 56 56 57 57 57 54 53 51 51
23 17 18 21 21 20 19 15 14 14 12 16 14 10 13 15 15 20 24 29 34 39 43 45 46 48 51 52 55 57 58 56 55 55 55 55 56 56 56 58 57 55 52 52
26 20 24 20 21 19 19 18 15 14 14 17 16 10 9 12 16 19 23 25 29 36 42 44 46 47 50 51 53 55 57 57 56 55 56 56 56 56 55 56 56 55 55 51
28 24 25 24 23 23 18 19 17 15 14 13 16 9 11 11 14 18 21 23 27 31 39 44 46 47 49 50 52 54 55 57 56 56 54 54 53 53 53 53 56 56 54 53
29 20 16 21 23 24 21 19 17 16 15 16 17 11 10 13 15 17 18 19 24 31 37 42 45 46 47 50 52 52 55 55 56 56 55 54 52 53 53 53 53 53 53 54
22 23 24 20 17 21 20 19 19 19 18 17 19 15 12 13 15 18 15 17 19 30 34 41 44 46 45 48 51 51 52 54 56 56 56 54 53 52 53 54 53 52 52 53
25 22 24 24 18 20 18 18 17 17 16 16 18 16 16 16 18 19 19 17 22 27 34 39 44 46 44 46 50 51 52 52 55 56 56 55 54 53 52 53 53 52 51 53
19 18 23 24 23 17 17 18 17 15 16 16 18 16 17 20 20 20 20 21 22 31 35 39 42 46 46 46 49 50 51 51 54 56 56 56 55 55 53 52 52 53 52 53
14 9 17 19 25 23 18 17 19 17 25 22 18 19 21 22 19 20 21 21 21 23 32 38 41 46 46 46 47 49 49 50 52 55 55 55 56 55 54 53 53 53 53 53
17 14 15 21 24 26 22 21 17 18 17 18 18 22 18 18 19 20 21 25 26 26 25 36 40 44 47 47 47 49 48 49 51 53 55 55 56 56 55 54 54 53 53 53
20 20 17 19 21 22 23 21 24 19 18 17 17 18 22 21 24 24 25 25 27 29 33 36 40 43 47 48 47 48 48 47 49 52 53 54 55 55 56 55 54 54 54 53
23 19 15 27 20 22 24 23 23 22 26 21 21 20 24 27 25 24 25 25 28 29 30 37 41 43 46 48 49 48 48 47 47 50 52 53 54 55 55 55 55 55 54 53
32 17 17 19 27 21 20 24 26 25 26 28 26 22 24 24 24 24 25 26 28 29 31 36 40 42 45 47 48 49 49 48 47 47 50 53 54 55 55 55 55 54 54 54
31 32 18 11 16 16 18 21 23 21 23 24 26 26 25 24 22 24 28 29 28 29 28 29 36 39 43 45 47 48 49 50 48 47 48 50 53 53 54 54 54 54 54 54
27 33 34 24 25 25 17 19 19 22 24 23 25 22 22 22 24 27 29 31 30 30 31 30 31 31 35 41 45 46 48 49 50 49 47 49 52 53 53 54 54 54 54 54
25 27 35 28 26 26 24 25 22 23 22 23 22 22 24 26 22 23 30 32 33 35 36 36 36 32 31 32 37 43 46 48 49 50 49 49 50 51 52 53 53 54 54 54
24 21 30 28 24 22 22 23 23 23 22 22 21 24 28 22 22 26 30 36 37 37 38 38 38 38 38 36 35 36 40 46 48 49 50 50 50 50 52 53 52 53 53 54
24 23 21 24 23 21 20 22 22 21 25 24 24 22 24 26 27 26 35 37 38 38 39 40 42 42 43 43 40 38 36 39 46 48 49 49 50 51 51 52 52 52 52 53
25 25 23 22 18 16 14 15 23 25 23 25 22 23 24 25 27 30 38 39 38 38 39 41 44 46 47 46 47 45 39 35 38 45 47 49 49 49 50 51 52 52 52 53
24 25 24 22 18 15 16 22 26 27 22 25 26 26 26 27 23 33 37 37 38 38 39 41 43 45 44 45 46 48 47 41 37 38 42 47 48 49 49 51 52 53 53 53
23 23 21 21 19 16 18 22 26 18 25 32 32 33 32 29 31 35 38 37 38 37 38 40 42 42 39 38 40 49 49 49 51 52 50 47 48 49 50 51 51 52 50 43
20 20 21 20 17 16 26 23 24 32 35 35 36 37 38 38 38 37 37 36 36 35 35 36 38 38 35 34 35 39 41 43 45 46 44 44 44 45 47 46 43 41 39 36
20 20 19 18 17 31 35 35 37 37 36 36 37 36 36 36 36 37 36 35 34 34 34 34 35 34 33 32 33 32 36 39 39 37 37 36 36 36 36 37 37 36 36 33
30 24 26 22 31 32 37 36 36 36 36 36 36 36 35 35 35 34 35 34 33 33 32 32 32 30 30 31 31 32 33 35 35 33 32 31 30 30 31 31 32 32 31 30
29 25 25 25 30 35 35 35 35 36 35 34 34 33 32 32 33 32 33 32 31 31 30 30 29 28 27 28 29 30 32 32 32 31 30 29 28 28 27 27 28 28 28 30
26 25 23 24 35 34 36 36 34 34 33 31 31 31 30 29 30 30 29 27 26 26 26 25 25 25 25 26 26 28 30 30 29 28 28 28 27 26 25 24 24 28 28 28

GFSCGP_sfc_30mbdewp_066.txt.gz
Dewpoint
27 24 14 24 24 23 19 19 18 17 14 14 15 15 14 18 19 26 27 29 30 38 42 46 46 49 52 56 56 58 58 57 57 57 57 56 56 57 57 56 55 55 55 54
30 30 25 20 23 21 20 23 23 21 16 15 14 14 15 15 17 18 22 28 31 34 41 45 46 48 51 56 58 58 58 56 56 56 56 56 56 56 55 57 54 56 54 53
31 28 26 26 21 22 21 21 20 18 16 15 14 14 16 15 12 15 16 22 27 33 40 45 46 48 51 54 56 57 57 56 55 56 57 56 56 55 54 56 56 54 53 52
36 38 29 31 29 19 18 20 19 19 18 14 16 13 16 16 13 13 16 22 24 24 37 45 46 47 51 52 57 57 57 56 55 56 56 55 54 53 52 54 55 54 54 52
36 34 31 32 33 25 22 25 25 22 18 17 15 15 17 14 13 13 17 21 24 27 31 43 46 47 49 51 55 56 56 56 55 55 55 55 53 54 52 53 55 55 55 54
30 30 35 34 31 31 29 30 29 24 21 17 17 17 17 18 15 14 17 19 20 26 30 39 46 47 47 51 54 54 56 56 56 55 54 54 52 53 52 52 53 54 53 53
24 27 30 25 26 25 23 29 23 21 20 18 19 18 20 21 17 17 18 17 18 28 32 36 44 46 47 50 53 53 55 55 56 56 55 54 53 53 53 51 52 52 52 51
27 25 28 27 26 28 22 26 23 24 21 18 19 17 18 21 20 20 19 19 19 26 34 35 42 46 47 49 52 52 52 54 55 56 55 54 54 53 53 53 51 52 52 51
21 24 23 27 28 30 25 27 25 20 25 24 25 18 19 22 20 18 19 21 21 28 33 34 39 46 47 48 51 52 52 52 55 56 56 55 55 53 53 54 54 53 52 52
19 18 21 19 26 27 26 25 23 21 23 23 22 19 19 20 21 19 20 23 25 27 28 36 39 46 47 47 50 52 51 51 54 55 55 55 55 55 54 53 53 53 53 52
25 21 20 23 18 24 25 24 27 27 22 23 21 25 28 24 24 25 26 25 28 29 30 34 38 45 48 48 48 51 51 50 52 55 55 55 55 55 55 54 53 53 53 53
32 23 19 19 23 29 25 27 25 27 24 23 23 25 28 26 26 26 26 29 30 31 31 34 38 43 47 48 48 49 50 49 51 53 55 55 54 55 56 55 55 55 54 53
27 25 18 18 25 27 28 25 29 30 35 33 27 23 29 25 25 26 29 30 29 30 31 35 40 41 46 48 49 48 50 49 49 52 53 55 55 54 55 56 55 55 55 55
30 29 28 18 19 32 25 24 28 29 31 32 32 30 33 30 29 28 29 29 29 30 33 35 37 41 43 46 48 49 50 50 49 48 51 53 54 55 55 55 56 55 56 55
32 31 32 32 32 24 21 23 26 35 35 31 32 31 30 34 30 27 29 33 34 36 37 37 38 39 39 43 46 48 50 51 51 49 48 50 54 55 56 56 56 56 56 55
28 31 28 29 30 28 23 26 23 28 25 21 25 29 32 30 29 28 32 37 37 37 38 39 41 41 42 42 42 41 46 49 52 51 50 49 50 53 54 54 55 56 56 55
29 24 27 27 33 30 24 24 28 29 32 26 31 34 37 32 23 26 36 37 37 38 39 41 43 45 47 47 48 47 45 41 49 50 51 51 50 50 53 54 54 54 54 54
25 25 30 27 31 22 22 23 24 23 24 24 30 30 28 28 26 35 38 38 37 38 39 41 43 46 45 44 45 46 46 48 46 44 50 51 52 51 51 52 53 53 54 54
24 23 27 27 26 28 23 20 21 23 28 37 37 24 25 25 31 38 38 37 37 38 39 40 43 43 42 41 42 45 48 49 48 50 50 49 51 51 51 51 52 53 53 54
23 26 25 25 25 20 19 20 20 24 27 29 29 27 27 27 34 38 37 37 37 36 37 38 40 39 37 37 39 42 43 42 42 44 47 47 49 50 51 51 52 53 53 53
22 24 23 24 25 23 19 24 25 22 29 33 35 36 38 37 37 37 37 36 35 35 35 36 38 36 34 34 35 36 37 37 39 40 41 41 42 44 48 51 50 52 46 41
21 23 24 22 20 19 25 26 25 35 34 35 35 37 37 37 36 37 36 35 34 34 33 34 34 34 32 32 32 33 34 35 35 34 34 34 35 36 40 42 40 40 39 36
25 23 22 20 20 33 35 36 36 36 36 36 36 36 36 36 35 35 34 34 33 32 31 31 32 31 30 30 31 31 33 33 32 31 30 30 29 30 32 34 35 34 34 32
27 26 22 23 18 31 36 35 35 36 35 34 34 34 33 34 33 33 32 31 29 28 28 28 28 27 27 27 28 30 32 31 30 29 29 28 27 27 28 28 28 29 30 29
35 30 30 28 36 37 37 35 35 34 32 32 32 31 31 31 31 31 28 27 26 25 25 25 24 24 24 25 26 28 30 31 29 28 27 26 27 27 25 26 27 26 27 28
34 35 31 34 39 38 34 33 33 32 31 30 30 30 29 29 28 28 25 24 23 23 22 22 23 23 25 26 26 27 29 29 28 27 27 27 26 26 25 24 24 28 28 27

GFSCGP_sfc_30mbdewp_069.txt.gz
Dewpoint
28 23 20 19 22 26 25 24 20 19 23 24 22 18 15 16 18 24 28 28 29 44 48 47 48 53 54 58 58 58 58 58 58 57 57 56 56 58 58 58 59 58 57 57
31 26 27 27 28 24 25 23 20 21 24 24 20 16 15 16 17 20 27 27 28 40 47 46 48 51 54 57 58 58 58 58 57 57 57 56 56 58 58 58 58 57 57 55
29 31 31 31 30 28 26 22 20 21 23 23 20 16 14 16 17 17 22 28 30 40 46 46 48 50 55 56 58 57 57 57 57 57 57 56 56 56 56 56 56 56 56 54
36 36 33 28 27 27 28 28 23 21 20 20 24 16 16 16 17 18 16 22 30 37 46 45 47 49 55 56 57 58 56 56 56 57 56 55 54 53 54 54 55 54 55 53
31 36 36 34 29 29 32 32 28 29 29 28 24 17 17 18 18 18 17 15 25 32 45 45 46 49 51 56 56 57 56 55 55 56 56 54 52 53 53 54 53 53 54 53
34 38 37 33 32 34 33 33 33 31 30 25 24 20 16 17 18 21 19 17 24 25 45 46 47 50 51 56 56 56 55 55 55 56 55 54 53 52 52 53 54 54 54 54
29 30 32 37 34 33 31 34 28 24 22 22 22 20 19 20 22 22 20 19 22 27 45 46 47 48 50 55 56 56 55 54 55 55 55 54 54 53 51 52 53 54 53 53
20 24 26 31 30 26 29 33 29 23 26 24 24 19 19 22 22 23 19 21 26 33 45 46 47 47 50 53 54 55 55 54 55 55 54 54 54 54 53 51 52 53 53 53
17 23 27 31 28 28 33 28 30 30 28 28 28 25 21 22 22 21 19 20 26 32 39 46 47 47 49 52 53 53 55 55 55 55 55 54 54 53 53 52 51 52 53 52
20 18 21 28 30 30 35 33 30 31 25 24 25 26 20 26 20 20 22 23 25 32 34 44 47 47 49 52 53 53 54 54 55 55 55 55 54 53 53 54 52 51 51 52
28 26 21 23 26 26 30 34 35 35 30 25 27 28 32 26 29 29 30 31 31 32 35 37 46 47 48 51 53 52 52 52 55 55 55 54 55 54 53 53 54 53 52 52
28 29 25 23 28 31 31 29 34 31 30 28 24 25 32 26 29 30 30 30 32 36 37 40 47 48 48 49 52 52 52 52 53 54 55 53 55 55 55 54 53 54 53 53
27 27 26 21 24 30 29 30 31 35 34 32 30 26 34 33 31 29 29 32 37 37 38 40 43 46 48 47 50 51 51 51 53 54 54 54 54 55 55 55 55 54 54 53
30 28 28 26 29 31 29 32 32 34 32 32 34 34 36 37 38 31 32 36 38 39 41 43 44 46 48 49 50 50 51 50 51 54 55 54 53 54 54 54 54 55 54 54
32 28 31 32 28 30 31 32 30 33 35 34 34 34 35 39 39 37 38 38 39 40 42 43 45 47 47 48 49 50 50 51 51 51 53 54 55 54 54 54 54 56 55 54
32 29 30 27 32 32 31 31 26 27 34 38 36 35 40 41 41 40 37 38 39 40 41 43 46 44 43 44 45 46 47 49 51 52 50 53 54 55 55 54 54 54 56 55
31 28 29 25 31 30 26 28 27 30 37 35 34 36 39 39 40 37 37 38 39 40 42 44 43 41 41 41 41 43 47 47 49 49 50 52 52 54 55 55 55 54 55 56
28 28 28 27 28 22 27 30 29 29 33 34 35 39 41 41 41 38 38 38 38 38 42 41 39 38 37 37 38 42 43 43 43 43 45 46 46 47 51 55 55 55 56 55
25 26 25 21 25 28 24 24 22 33 34 35 35 34 41 40 39 36 36 36 36 36 39 38 37 35 34 34 36 37 38 38 39 39 41 42 41 42 45 50 53 54 54 54
24 26 24 27 20 23 24 26 26 33 31 37 37 38 40 38 36 35 35 35 34 35 36 35 34 32 32 32 34 35 35 35 35 35 36 36 36 38 39 43 44 53 54 54
22 24 23 22 21 24 29 29 29 28 33 38 38 38 36 36 36 36 34 33 32 32 32 33 32 30 30 30 32 33 34 33 33 32 32 32 32 33 34 38 39 41 44 41
28 22 24 25 22 20 29 30 31 36 37 37 37 38 36 36 35 34 32 30 30 29 29 29 29 28 27 28 30 31 31 32 31 30 28 28 28 29 30 31 33 34 35 32
28 26 26 26 22 34 38 38 39 39 37 35 34 35 35 34 32 31 29 28 26 26 26 26 26 25 26 27 28 29 30 30 29 28 26 26 26 27 27 27 28 30 30 30
34 34 29 24 23 32 37 36 35 34 33 32 32 33 32 31 29 27 26 25 25 24 24 24 24 24 25 26 27 29 30 29 28 27 26 26 25 25 26 26 26 26 27 26
33 35 30 30 37 38 38 33 32 32 32 31 30 30 30 29 26 25 24 23 23 22 23 23 23 24 25 25 26 27 30 29 27 26 26 25 25 24 24 25 26 25 27 27
34 35 33 31 36 34 35 34 31 30 29 29 28 26 26 26 24 23 22 22 21 22 22 22 23 23 25 25 26 26 28 29 28 26 26 26 25 24 23 22 22 27 27 28

GFSCGP_sfc_30mbdewp_072.txt.gz
Dewpoint
27 23 19 19 20 25 25 25 24 25 26 23 22 22 23 23 22 16 19 24 35 43 47 50 54 56 57 57 57 57 58 58 57 57 57 58 57 58 59 60 60 59 60 58
29 26 26 26 26 27 26 25 25 24 24 22 23 22 23 22 20 17 21 27 33 44 47 49 54 55 57 56 56 57 57 58 58 56 57 56 57 58 58 59 59 59 58 59
28 30 31 28 28 28 25 25 26 27 25 23 22 21 22 24 18 17 22 28 30 44 47 47 52 54 57 57 57 57 57 57 57 57 56 56 56 57 57 57 58 59 58 57
33 37 33 31 30 30 25 27 31 30 26 21 26 22 22 23 20 18 18 22 28 42 47 46 50 53 56 57 57 57 57 57 57 57 56 55 54 54 55 56 57 57 58 57
30 34 34 33 31 29 29 31 34 32 30 29 25 23 22 22 19 19 20 20 27 42 46 46 48 52 55 57 57 56 56 56 56 56 55 55 54 54 55 56 56 56 57 56
33 37 35 34 36 34 32 35 34 32 29 24 24 24 22 20 18 18 20 21 23 42 46 46 48 53 55 57 56 56 55 55 56 56 56 55 54 54 54 54 54 55 55 55
30 33 34 36 33 35 34 35 27 25 24 22 24 23 22 23 23 22 23 23 23 41 45 45 48 51 55 55 55 55 55 54 55 56 55 54 53 53 53 53 53 53 54 54
16 16 32 34 32 32 32 35 29 21 23 25 28 20 20 22 22 22 22 22 26 42 45 46 48 49 54 55 55 55 54 53 54 55 55 55 54 53 52 53 53 52 53 53
15 21 28 31 31 31 32 32 34 31 32 28 27 27 26 28 27 25 23 24 30 42 45 46 47 49 54 55 55 55 54 53 54 55 55 55 54 53 52 52 53 53 53 53
20 18 21 29 33 33 33 34 30 31 24 23 25 25 28 27 29 27 31 33 35 41 45 46 47 48 52 54 55 55 55 54 54 54 54 55 54 54 53 52 51 53 53 53
30 24 22 27 31 29 35 34 35 33 31 27 26 31 34 34 31 30 34 37 38 40 40 46 47 48 51 53 54 55 55 55 54 54 54 54 54 54 54 53 52 51 52 53
28 29 28 25 28 30 33 34 35 30 29 30 30 30 40 42 39 35 37 38 41 44 44 46 47 48 51 52 52 53 55 55 55 55 55 54 54 54 53 53 54 53 51 51
26 29 25 23 29 31 30 31 35 36 35 31 29 29 42 44 41 39 38 41 43 45 47 49 50 50 50 51 52 52 53 53 55 55 55 54 54 54 54 54 54 54 54 52
29 26 24 22 29 32 33 32 33 35 31 29 31 34 39 41 42 42 39 42 43 45 47 46 46 47 48 49 49 50 51 52 53 54 55 54 53 54 54 54 54 54 54 54
30 23 30 31 30 29 31 31 34 35 33 32 31 35 37 42 44 44 40 41 43 44 42 42 43 43 43 44 45 48 49 50 53 54 54 54 54 54 54 54 54 55 55 54
32 26 30 27 30 30 27 30 33 34 36 36 36 35 42 46 45 44 40 40 42 42 41 39 39 39 38 39 42 44 44 44 45 46 50 51 54 54 54 54 54 54 54 54
29 28 26 22 28 27 25 28 30 34 34 35 35 38 43 43 42 40 40 40 41 39 38 37 37 36 35 36 38 39 40 41 41 42 43 43 44 46 51 54 54 54 54 54
27 27 28 24 25 18 24 24 26 29 34 39 39 40 42 40 39 37 37 38 39 37 35 34 33 33 33 34 36 37 37 37 37 38 38 39 40 41 43 46 48 54 54 54
28 26 23 18 17 19 16 28 31 31 36 40 39 42 42 39 36 34 35 36 37 35 33 32 31 31 31 32 34 35 34 33 33 33 34 35 36 38 39 41 42 44 46 54
26 26 23 24 17 13 26 27 32 35 32 40 41 42 40 39 33 33 33 32 33 32 31 30 29 29 29 30 33 33 32 31 30 30 30 31 32 34 34 37 38 39 42 44
24 24 22 22 21 19 24 29 31 28 33 41 41 41 38 35 33 31 30 29 29 29 29 29 27 27 28 29 31 31 31 29 29 28 27 27 29 29 30 32 34 35 33 32
23 24 23 23 21 17 24 33 23 39 40 40 39 37 34 33 31 29 28 27 27 26 27 27 26 26 27 29 30 30 29 29 28 27 26 26 27 27 27 29 30 31 30 29
24 30 28 23 21 36 39 39 40 38 37 38 36 35 33 31 29 27 26 25 24 24 25 25 25 26 26 27 29 28 28 28 27 26 25 25 25 25 26 26 27 27 28 28
32 35 32 30 28 34 35 34 34 33 33 34 33 32 30 27 26 25 24 23 23 23 23 24 24 24 25 26 27 29 29 27 26 25 25 24 23 24 25 25 25 26 26 26
32 34 34 33 35 35 35 35 33 31 29 29 29 28 27 25 24 23 23 22 22 22 23 23 23 24 24 25 25 26 28 27 26 26 25 23 23 22 23 25 25 25 27 27
31 30 30 29 33 34 34 34 29 28 28 27 25 24 24 23 22 22 22 22 21 21 20 20 20 21 23 23 23 24 26 26 25 24 23 23 22 22 22 21 22 25 24 25

GFSCGP_sfc_30mbdewp_075.txt.gz
Dewpoint
26 21 19 19 19 24 25 25 24 25 26 25 24 24 23 24 24 24 23 22 21 37 41 49 55 57 57 58 58 58 58 58 58 58 58 56 57 58 60 61 61 60 58 56
25 23 24 23 22 23 26 25 24 26 26 27 24 23 24 24 24 23 23 22 20 35 46 52 55 56 57 57 57 57 57 57 57 57 57 57 57 58 59 60 60 61 59 57
23 25 32 29 27 27 27 25 25 25 28 28 26 24 23 23 24 24 21 20 25 35 45 52 54 56 56 56 56 56 57 57 56 56 57 56 57 57 57 58 58 59 60 58
30 31 32 30 29 30 28 27 26 31 29 25 26 22 24 24 24 23 22 22 28 40 46 50 53 55 56 56 56 56 56 57 57 57 55 55 54 55 55 57 58 58 59 59
29 33 34 33 31 31 30 31 33 33 32 30 29 26 24 24 23 23 22 21 23 38 46 47 52 54 56 56 56 56 56 56 56 56 55 55 54 54 56 56 57 57 58 58
33 37 35 34 34 34 31 35 35 33 31 28 28 24 23 22 22 21 22 23 22 28 44 46 50 53 56 56 55 55 55 55 56 56 55 55 54 54 54 55 56 56 57 56
30 32 35 36 31 35 34 33 26 25 26 24 24 23 23 23 24 25 24 24 24 28 42 46 49 53 55 55 55 54 55 54 55 56 55 54 54 54 53 55 55 55 56 56
20 11 33 35 31 32 33 33 27 21 23 22 24 22 23 24 25 28 30 26 24 25 40 46 49 53 54 55 54 54 54 54 54 55 55 54 54 54 53 54 54 55 55 55
15 16 30 34 33 33 35 31 33 30 32 27 25 27 26 32 31 32 36 32 26 31 41 46 49 53 54 55 54 54 54 54 54 54 54 54 54 53 53 53 54 54 55 54
18 17 22 30 32 34 35 35 30 31 23 22 24 24 30 36 37 36 37 40 40 43 45 46 48 52 54 55 55 54 54 54 53 53 53 54 54 53 53 52 53 53 53 53
27 21 21 32 32 32 35 34 34 33 31 25 24 31 38 41 43 38 40 43 46 42 46 46 48 51 54 55 54 54 53 53 53 53 53 54 54 54 53 52 52 53 53 53
28 30 26 25 27 32 35 34 35 29 28 29 30 29 40 43 44 40 42 45 47 48 48 48 50 52 53 53 54 53 53 53 53 54 53 52 54 54 54 54 53 52 52 53
26 27 20 22 29 32 32 34 36 36 34 30 27 29 42 42 43 43 42 45 44 45 46 47 48 49 50 52 53 54 54 54 54 54 53 53 53 54 53 54 54 53 52 52
27 26 23 18 25 32 31 31 35 35 30 30 31 35 38 39 41 43 41 42 42 42 42 42 43 44 46 49 50 50 50 53 55 55 54 53 54 54 54 53 53 54 54 53
27 20 29 29 29 29 29 29 30 33 34 31 30 31 35 40 41 42 44 42 39 38 39 40 39 40 41 43 44 44 46 46 48 54 55 54 54 54 54 54 54 54 54 54
32 25 29 24 26 28 23 24 27 28 34 35 35 34 39 42 45 44 44 41 37 36 36 36 36 36 37 38 39 40 40 41 43 43 43 44 45 49 54 54 54 54 54 54
27 27 25 18 24 21 17 26 21 26 34 33 31 35 41 43 44 44 42 39 36 35 33 33 33 33 34 35 36 35 36 37 38 38 39 40 41 42 43 44 48 53 54 54
27 27 27 19 21 9 17 15 31 31 32 35 36 39 42 40 39 40 42 38 35 33 32 31 31 32 32 34 34 34 33 32 33 33 34 35 36 38 39 41 42 43 44 47
29 26 21 16 16 12 12 28 32 34 36 40 38 41 37 36 35 35 37 35 33 32 31 30 30 30 31 33 33 32 30 30 29 29 30 31 33 34 35 36 37 39 41 40
28 27 22 23 16 9 20 23 31 29 31 39 41 40 37 38 33 31 34 32 30 29 29 28 28 29 30 31 32 30 28 28 27 27 28 29 29 30 31 34 34 35 35 32
24 25 23 22 19 19 21 22 30 21 33 40 43 40 40 37 36 33 31 29 28 28 28 28 28 28 29 30 30 29 27 27 26 27 27 27 27 28 29 30 31 31 30 29
23 23 22 22 20 16 34 34 27 31 41 39 39 36 33 32 30 28 27 26 26 25 26 26 26 27 28 29 29 28 27 27 26 25 25 25 26 26 27 28 28 29 29 28
22 27 26 24 22 34 35 36 37 40 38 37 37 35 33 31 29 28 25 24 24 24 25 25 26 26 27 27 29 27 27 26 25 24 24 24 25 25 25 26 26 26 26 26
31 34 31 31 33 34 34 33 32 35 37 37 37 35 32 28 26 24 24 23 23 24 24 24 24 24 25 26 26 28 27 26 25 23 23 23 24 24 24 24 25 25 24 24
30 30 30 30 34 33 33 33 33 32 30 28 27 27 26 25 24 23 23 22 22 21 22 22 23 23 23 24 24 25 26 24 23 23 22 22 22 23 22 23 24 23 25 25
30 28 26 28 34 33 31 32 33 30 29 26 24 23 23 23 22 22 21 21 20 19 20 20 20 20 22 22 22 22 24 25 23 22 22 22 21 21 20 20 21 22 22 22

GFSCGP_sfc_30mbdewp_078.txt.gz
Dewpoint
24 21 19 19 20 19 22 22 22 25 26 25 25 25 25 25 25 24 24 24 23 23 29 44 54 57 57 57 58 58 58 58 57 56 56 57 57 58 59 61 61 60 59 60
25 22 23 21 20 19 19 20 23 25 26 26 27 27 28 27 26 25 24 23 23 24 34 46 54 56 57 57 57 57 57 57 57 58 58 56 57 58 59 60 59 58 58 58
24 22 29 25 25 25 25 25 25 25 26 29 28 25 24 24 24 24 24 24 24 22 33 48 53 55 56 56 56 57 57 56 57 57 57 57 57 58 58 58 59 58 58 57
28 28 26 30 29 29 27 29 28 27 29 24 30 24 25 26 26 25 24 24 23 25 36 49 52 54 55 56 56 57 56 55 56 56 56 56 55 55 56 58 59 59 58 57
28 33 33 31 30 31 29 31 32 32 30 30 29 26 25 25 24 24 24 25 23 26 41 49 52 53 55 56 56 56 56 55 55 55 55 54 55 55 56 57 58 58 59 57
31 37 35 32 34 34 32 32 33 33 31 25 26 27 25 24 23 22 23 23 25 24 43 48 52 54 55 55 56 56 56 56 55 55 54 54 54 54 55 55 56 57 57 58
28 31 35 36 32 35 35 31 25 25 24 22 26 27 26 24 23 24 27 31 31 26 35 47 51 54 54 54 55 55 54 54 54 54 54 54 54 54 54 55 56 56 56 56
19 10 32 35 31 29 34 31 24 21 23 25 25 22 23 35 39 36 38 40 40 34 30 45 50 53 54 54 54 54 54 53 54 53 54 54 54 54 54 55 55 56 56 56
16 14 32 35 33 33 33 31 35 30 30 27 25 26 32 40 41 40 42 44 46 46 39 43 49 53 54 54 54 54 54 53 54 54 53 54 54 54 53 54 55 55 55 56
17 16 24 31 33 35 35 36 30 30 22 22 23 26 32 38 39 41 43 45 47 46 45 46 50 53 54 54 54 54 54 53 53 53 54 54 54 54 53 53 53 54 55 55
23 20 22 31 31 31 34 33 34 34 31 24 22 28 39 41 42 40 43 43 45 47 47 49 52 54 53 54 53 53 53 53 53 53 53 54 54 53 53 52 53 53 53 54
29 29 24 25 29 34 34 33 34 29 28 31 30 27 42 43 40 43 42 43 44 46 49 51 52 52 52 53 53 53 53 53 52 53 53 54 54 54 53 53 52 53 53 53
28 29 20 23 28 33 34 35 35 35 34 28 26 27 42 43 40 42 41 40 42 43 43 45 48 51 52 53 53 53 53 53 53 54 53 52 53 54 54 54 53 52 52 53
27 27 19 15 18 29 27 28 29 33 29 30 30 30 37 39 39 40 42 39 39 40 41 41 42 44 46 47 48 49 49 52 54 53 52 52 53 53 53 54 54 53 53 52
26 21 28 27 26 29 28 27 27 27 31 29 28 31 33 39 40 43 43 38 37 36 36 37 39 40 41 42 42 43 44 45 48 53 51 48 52 54 54 54 53 53 54 53
30 26 27 20 24 21 16 13 16 22 26 31 33 33 36 41 44 44 42 37 34 33 33 34 34 35 36 37 37 37 38 39 41 41 41 43 44 45 45 48 52 54 54 54
27 26 22 15 20 17 5 18 14 22 24 28 28 33 37 40 43 42 40 38 34 33 32 32 32 33 34 33 33 33 34 35 35 36 36 37 39 39 41 42 43 44 45 46
27 26 25 17 17 1 6 14 23 31 34 34 34 38 41 39 38 39 38 36 34 33 31 31 31 32 32 32 31 30 30 30 30 31 32 33 35 36 37 38 38 39 41 38
29 26 21 12 17 13 13 26 26 27 25 32 37 39 38 36 34 33 35 34 33 32 32 31 30 31 31 31 29 29 28 28 28 29 29 30 31 33 34 35 35 35 34 33
29 27 20 22 14 5 11 20 27 28 24 39 41 38 36 37 32 29 33 32 31 30 29 29 30 30 30 30 29 27 27 27 27 27 27 28 29 30 31 32 32 32 31 30
24 25 23 22 18 19 24 32 34 21 25 39 41 38 37 37 35 31 32 29 28 28 28 28 28 28 29 29 28 27 26 25 26 26 26 27 27 28 29 29 30 30 29 28
21 22 22 23 21 16 35 36 29 35 38 36 36 37 33 32 31 30 30 28 26 26 26 27 27 27 27 29 27 26 25 25 25 25 25 25 26 26 27 27 27 28 28 27
21 25 26 24 22 34 33 32 36 38 37 34 32 32 32 30 28 28 26 26 25 24 25 25 25 25 25 26 27 25 25 25 24 24 24 24 24 25 26 26 25 25 26 26
31 32 30 30 33 33 34 33 31 31 32 35 35 34 32 28 27 26 25 24 23 23 24 23 23 23 23 24 25 26 25 24 23 22 23 23 22 23 23 23 24 24 24 23
30 30 28 28 33 33 32 33 31 30 29 28 29 29 28 26 24 23 22 21 21 21 21 21 21 21 21 22 23 24 25 23 22 22 21 21 21 21 21 23 23 22 24 24
29 27 25 26 29 30 29 31 31 28 27 27 25 24 25 23 22 20 19 19 19 19 19 19 19 19 20 20 20 21 24 24 22 20 19 19 18 18 19 19 19 21 21 21

GFSCGP_sfc_30mbdewp_081.txt.gz
Dewpoint
23 20 17 17 19 16 17 18 18 22 24 23 20 21 23 26 28 28 28 27 27 27 27 27 42 55 57 58 59 58 59 58 58 57 57 58 57 58 59 60 60 60 60 60
26 22 22 22 21 20 20 18 18 22 25 24 23 23 25 27 27 27 27 27 27 27 26 29 45 55 56 57 58 58 58 58 58 57 57 57 57 58 59 60 60 60 59 60
26 23 28 23 22 21 23 23 24 24 26 27 27 23 20 23 25 26 27 27 27 27 26 29 46 53 56 57 58 57 57 58 58 58 58 58 58 58 58 58 58 58 59 60
27 26 25 27 27 28 26 29 28 28 28 24 29 22 24 24 24 25 27 28 28 27 27 27 44 51 54 56 58 57 57 57 57 59 56 56 55 55 57 58 58 58 58 57
22 32 32 27 26 30 29 31 31 31 29 29 27 26 24 26 24 25 27 28 28 29 28 30 44 49 54 57 57 56 56 57 57 57 55 56 55 56 58 58 58 58 57 57
25 36 35 32 34 33 32 32 31 32 30 25 24 25 23 24 25 25 26 27 31 33 31 40 48 52 54 56 56 55 55 55 56 56 55 56 54 55 56 57 57 57 57 57
29 32 35 35 31 35 33 30 22 22 24 20 25 26 25 30 39 38 39 41 43 44 33 46 50 52 54 55 55 54 55 54 55 56 55 55 55 55 55 56 56 56 57 56
21 13 31 35 30 26 32 30 23 19 21 24 28 24 27 40 41 42 44 45 46 47 47 42 49 52 53 54 54 55 56 54 54 55 54 54 55 55 55 55 56 56 56 57
18 14 32 35 33 31 33 30 33 28 28 26 24 26 36 39 40 41 43 43 45 47 46 45 47 52 54 54 54 55 54 54 54 54 54 54 55 54 54 55 56 56 57 57
18 15 26 33 34 35 35 36 30 30 21 20 23 26 30 37 39 40 41 42 44 47 48 46 48 53 54 53 54 54 54 53 54 54 54 54 55 55 54 55 55 56 56 57
22 20 26 32 30 30 33 33 33 33 31 23 21 24 39 39 40 42 41 42 43 44 49 52 52 53 54 53 54 54 54 53 53 53 54 54 54 54 54 54 54 55 55 56
28 25 21 27 31 33 34 33 32 28 27 30 28 26 42 42 42 42 39 40 42 43 44 49 52 52 53 53 54 53 54 53 53 53 53 53 54 54 53 53 54 54 54 55
33 29 23 24 31 35 33 35 36 35 33 27 25 24 40 41 38 42 39 38 38 40 42 43 44 50 53 53 53 53 53 52 52 53 53 54 54 54 53 54 54 54 54 54
35 29 23 18 22 27 26 27 27 30 26 28 27 27 31 38 39 42 40 38 36 37 37 39 40 41 43 45 47 49 51 53 53 53 53 53 53 54 54 54 55 54 53 53
33 27 29 27 26 28 28 24 21 21 24 23 19 23 27 32 39 43 39 37 35 34 35 35 36 36 38 39 41 42 43 46 50 48 47 47 48 53 54 54 55 55 54 53
35 28 29 21 25 20 14 13 14 18 21 22 25 26 31 34 41 43 38 36 34 33 33 33 33 33 33 34 36 37 38 38 40 40 40 41 42 43 44 46 47 49 49 48
29 27 22 14 20 16 8 15 14 20 28 29 27 29 32 39 42 42 38 35 34 32 32 32 32 32 31 31 32 33 33 34 34 35 36 37 38 39 39 40 41 42 40 40
29 24 25 16 17 -1 9 18 21 21 27 23 29 37 39 39 37 38 37 35 33 32 31 31 31 31 30 29 29 30 31 32 32 32 32 33 35 36 37 37 37 36 35 34
29 26 20 15 16 11 18 22 22 19 14 38 39 39 38 35 34 31 33 33 32 31 31 31 31 31 29 28 28 28 28 29 29 29 30 31 32 33 34 34 33 32 31 30
28 27 21 22 12 0 12 28 35 32 19 36 37 39 36 36 33 28 32 31 30 30 30 30 30 29 29 28 27 27 27 27 27 28 28 29 30 31 31 31 31 30 29 28
24 25 21 21 18 18 32 34 36 11 26 36 35 38 39 35 32 29 30 29 29 29 29 29 28 29 29 28 27 26 26 26 26 27 27 28 28 28 29 29 29 29 28 28
21 22 23 23 20 15 33 32 28 33 37 34 33 33 29 29 28 27 27 27 26 26 27 26 26 26 27 27 26 25 24 25 25 25 25 25 26 27 27 27 27 28 28 27
23 28 26 23 22 33 33 32 32 36 36 34 32 31 29 27 25 26 25 26 26 24 24 25 24 24 25 26 25 24 24 24 24 24 23 24 24 24 25 25 25 25 25 25
31 31 30 29 32 33 33 32 31 31 30 31 31 30 28 25 25 24 24 23 22 22 22 23 22 22 22 23 25 24 24 23 23 23 23 23 23 22 22 22 23 23 23 23
29 29 26 27 31 32 31 31 30 29 29 28 28 28 27 25 23 22 20 20 20 20 20 21 21 20 21 22 23 24 23 22 22 21 21 21 21 21 21 22 22 22 24 22
29 26 24 25 28 28 27 28 29 27 26 27 25 24 24 23 21 20 19 19 19 19 19 19 19 19 20 20 21 22 21 21 21 20 19 19 19 19 19 18 18 20 21 21

GFSCGP_sfc_30mbdewp_084.txt.gz
Dewpoint
18 15 13 11 15 13 11 9 8 12 14 17 18 18 18 20 20 22 26 26 25 25 25 23 27 37 48 53 57 60 61 61 61 60 59 59 59 60 60 60 60 61 61 61
21 13 11 13 14 16 14 12 13 15 19 22 22 21 22 22 22 23 24 26 26 26 25 24 26 38 49 53 57 60 60 61 60 58 58 58 58 59 58 58 59 60 60 60
20 19 23 20 20 19 17 16 15 18 24 26 25 21 20 22 22 22 23 24 25 26 25 24 24 33 49 52 57 59 60 60 59 57 58 58 58 58 58 58 59 60 60 60
23 22 24 21 19 20 15 22 26 25 25 19 25 18 18 22 23 24 25 25 24 25 25 25 24 28 46 50 56 58 59 59 59 58 57 56 54 54 55 58 59 59 59 60
19 23 23 21 19 25 23 28 27 28 26 25 23 23 16 22 23 26 25 26 26 26 26 26 27 26 43 51 56 58 58 58 58 58 56 55 54 54 56 59 58 58 57 58
19 29 32 28 29 23 29 28 27 27 26 24 21 21 17 23 32 34 36 36 36 37 38 36 33 32 42 51 57 58 57 57 58 58 56 55 54 54 55 58 57 57 57 57
17 21 24 33 28 31 29 24 14 20 23 15 22 23 20 33 37 39 40 41 42 44 44 43 40 42 46 53 57 56 56 56 58 57 55 55 55 54 55 58 57 57 56 56
17 16 25 30 26 21 25 20 15 12 13 16 24 21 26 36 39 40 40 42 43 44 47 45 42 47 49 53 55 55 56 56 57 56 55 55 54 55 55 56 57 57 57 56
18 16 28 32 30 26 28 27 28 26 24 22 17 22 33 35 37 39 39 41 42 44 46 49 43 49 51 54 54 55 56 56 56 55 54 55 54 54 55 56 56 56 57 58
23 17 25 32 33 32 31 30 29 28 20 16 15 19 25 35 38 38 38 39 41 43 45 49 47 50 52 54 55 56 56 55 55 55 55 54 55 54 54 54 55 55 56 57
26 19 24 30 29 26 32 31 33 32 30 21 15 19 36 38 38 37 37 40 41 41 43 46 51 51 53 53 55 55 54 54 54 55 55 54 55 54 55 54 54 54 55 56
31 25 17 22 29 30 29 29 30 25 26 29 29 23 38 39 38 38 40 39 39 39 40 43 47 53 53 54 54 54 54 54 55 54 54 54 54 55 54 54 54 55 55 55
31 25 18 21 27 31 29 33 35 34 31 25 25 25 35 37 37 41 40 38 38 37 37 39 42 44 51 53 54 54 54 54 54 54 53 54 54 54 54 53 55 55 54 54
33 31 22 15 20 27 27 27 29 29 27 26 24 22 22 21 26 38 40 37 36 35 35 36 37 39 42 44 47 51 54 54 54 53 53 53 53 53 53 53 55 54 54 54
33 29 28 23 22 22 22 21 20 21 23 18 16 12 18 25 31 36 39 37 34 33 33 34 34 35 37 39 41 42 45 48 50 48 48 48 48 51 53 54 54 54 54 54
33 29 30 26 22 16 12 10 9 11 11 15 21 22 27 31 34 41 38 36 33 32 32 32 32 32 32 34 36 37 38 40 41 42 41 42 43 43 44 45 46 46 46 44
31 26 24 21 17 12 7 11 16 20 24 24 23 26 30 35 41 39 37 35 33 31 31 31 31 31 30 31 33 33 35 36 36 36 37 38 39 39 40 40 39 38 38 38
30 28 18 14 14 3 12 22 17 14 24 32 33 37 39 38 35 35 36 34 33 32 31 30 31 30 30 31 31 32 32 32 33 33 34 35 36 36 36 36 35 34 34 33
30 27 18 13 10 7 13 21 23 20 23 33 31 34 38 34 33 29 31 31 31 31 30 31 32 31 30 30 31 31 31 31 30 32 33 34 34 34 34 32 32 31 30 30
26 28 22 18 10 2 21 24 30 30 20 32 33 34 35 36 33 26 30 30 29 30 30 30 31 31 30 28 28 29 28 28 29 30 30 32 33 33 32 31 30 30 29 29
22 22 19 16 14 15 29 29 29 19 25 35 34 32 34 35 30 28 29 29 30 30 30 30 30 29 29 27 28 26 27 27 27 28 29 29 30 30 30 30 30 30 30 29
18 18 18 17 16 14 31 28 26 32 36 35 31 30 27 27 27 27 28 28 28 28 26 26 26 26 27 28 27 25 25 26 27 27 26 27 28 28 29 29 29 29 29 29
23 28 25 21 27 33 32 32 33 34 34 33 31 30 28 27 26 26 25 26 26 26 24 24 24 24 25 24 24 25 27 27 26 25 25 25 25 26 26 27 27 27 27 27
29 30 31 28 31 31 32 32 31 31 31 31 31 29 28 25 25 25 25 25 24 24 22 22 22 22 23 24 24 24 23 24 24 24 24 24 24 23 23 23 24 25 25 25
29 29 27 27 31 30 29 30 29 29 29 28 29 28 26 25 24 24 23 21 21 21 21 21 21 21 22 22 22 23 23 23 23 23 23 23 23 22 21 22 23 21 23 24
30 27 26 26 29 29 27 28 28 27 27 27 26 24 25 24 22 22 21 22 22 20 20 19 20 20 21 21 22 22 23 24 24 23 22 22 22 22 21 20 19 19 20 20

GFSCGP_sfc_30mbdewp_087.txt.gz
Dewpoint
17 12 10 11 14 13 10 8 5 5 4 8 10 12 13 14 14 15 16 18 23 24 24 25 22 21 28 39 48 54 61 61 62 61 60 58 59 59 60 61 62 62 62 62
15 14 15 11 12 13 13 12 9 8 10 12 15 18 19 19 19 18 18 20 20 24 24 24 25 23 34 44 50 55 60 61 62 60 59 58 58 57 59 60 61 61 61 62
16 15 19 13 11 12 12 12 12 11 12 18 18 16 16 19 20 21 21 21 21 23 25 25 25 23 36 45 50 54 58 60 61 59 58 57 57 57 58 59 58 60 61 61
17 19 19 19 16 15 13 12 13 15 20 15 18 15 15 16 17 22 23 25 25 22 24 26 26 24 31 45 50 54 57 59 60 59 57 56 55 54 56 55 56 58 59 59
15 19 19 18 19 17 14 17 23 23 22 21 18 15 14 16 20 27 30 32 32 27 25 26 26 26 24 41 49 54 57 58 59 58 57 56 54 52 53 55 57 58 59 59
17 18 21 21 21 21 19 22 24 23 20 17 17 15 9 18 30 34 36 37 39 39 38 33 32 31 25 35 49 56 57 57 58 58 57 56 54 52 53 56 58 58 58 57
14 15 17 21 24 26 21 22 18 16 19 16 16 17 15 30 34 36 37 38 40 42 44 45 41 36 32 39 51 57 58 58 57 58 56 56 54 54 53 56 57 57 57 57
12 10 14 15 22 22 23 22 17 8 9 17 21 17 20 33 37 36 37 38 40 42 45 47 48 42 39 40 51 58 58 57 57 57 56 55 54 53 53 56 57 58 57 57
20 15 21 24 24 24 19 19 20 15 17 17 17 12 30 32 36 35 35 37 40 42 45 46 49 43 45 48 57 57 57 57 57 57 55 55 54 54 53 56 58 58 57 57
27 20 22 24 29 26 21 25 24 24 17 13 11 11 23 35 33 32 33 37 39 41 43 44 47 50 49 55 56 56 57 56 57 56 55 55 54 54 54 55 56 57 58 58
29 26 21 23 26 23 25 28 29 27 23 18 16 23 36 34 33 33 34 38 39 40 42 41 43 46 54 55 55 56 57 56 56 55 54 54 55 55 55 55 56 55 56 56
31 31 22 22 24 27 30 25 26 24 19 22 25 24 36 34 34 36 36 38 39 39 40 39 40 42 52 55 55 56 56 55 55 54 54 55 55 55 54 54 54 54 54 55
29 27 21 16 26 26 24 29 29 30 30 26 22 25 37 27 23 32 37 38 38 38 37 37 37 38 41 47 54 55 54 54 55 54 54 55 55 55 54 54 55 56 55 55
34 27 22 18 20 27 21 23 29 29 27 23 23 21 21 17 25 29 39 38 37 36 35 34 34 35 36 40 43 46 54 55 55 54 53 53 53 54 54 54 55 55 54 55
32 24 24 26 28 29 28 27 26 26 26 22 19 14 14 24 27 37 39 38 35 34 33 32 32 33 33 35 38 40 43 48 51 50 49 49 50 53 53 53 51 53 52 53
29 25 26 28 19 19 17 18 15 13 10 8 10 17 34 39 39 40 38 36 33 32 32 31 30 31 31 33 34 36 38 40 43 43 43 43 44 45 45 44 43 43 42 42
27 27 28 24 24 16 12 11 9 14 18 24 27 32 36 36 33 33 35 33 32 32 31 31 30 30 31 32 33 33 35 36 37 38 39 39 39 39 38 38 37 37 36 36
25 27 28 21 17 13 20 16 16 13 28 27 27 30 36 33 31 30 30 31 29 30 30 30 31 30 31 32 33 33 34 34 34 35 36 36 36 35 35 34 33 33 33 33
28 30 25 18 21 10 14 20 22 21 30 32 30 31 34 32 30 29 30 30 29 29 29 30 31 31 31 31 31 32 32 32 32 32 33 35 34 33 32 31 31 31 30 30
27 26 26 14 7 7 26 23 25 24 22 33 32 32 32 35 32 27 30 30 29 29 30 29 29 30 31 31 32 30 30 30 30 31 32 33 33 33 32 32 31 31 30 29
20 20 18 17 11 15 28 27 27 18 28 35 32 30 28 27 28 28 29 29 29 29 29 30 30 29 29 31 31 29 29 29 30 32 32 32 33 33 33 33 33 32 31 30
15 15 16 15 13 15 31 27 27 31 34 34 30 28 26 26 27 28 28 29 29 29 30 30 29 29 30 30 30 28 28 31 30 29 29 30 31 31 32 32 32 31 31 30
23 28 27 29 28 32 32 31 32 32 32 32 30 29 28 27 27 27 27 27 27 27 27 26 25 26 27 28 29 27 28 28 28 28 28 28 27 28 29 30 30 30 29 29
27 28 28 29 30 30 31 31 30 30 30 31 32 30 28 26 27 26 27 27 27 27 27 27 25 24 24 25 25 26 28 29 28 27 24 24 24 24 24 24 24 24 27 27
29 28 27 29 30 30 29 29 30 29 29 30 29 29 28 27 26 26 26 26 26 23 22 22 22 22 22 23 24 25 25 24 24 24 24 24 23 22 21 22 22 21 23 24
30 28 26 26 28 28 27 28 29 28 29 27 26 25 27 26 24 24 23 25 25 24 24 22 21 21 22 22 23 24 26 26 26 24 24 24 23 22 21 19 18 19 19 19

GFSCGP_sfc_30mbdewp_090.txt.gz
Dewpoint
19 14 9 10 10 10 11 11 12 11 12 9 9 7 6 9 10 12 14 15 16 18 23 25 27 30 29 26 32 63 63 63 64 63 62 61 60 60 61 61 62 62 63 63
20 16 14 13 13 12 11 12 11 12 13 12 9 8 10 13 16 18 16 17 19 19 21 25 27 29 30 30 39 62 63 63 63 63 62 60 60 60 60 60 61 62 63 63
16 17 16 15 14 12 10 9 8 9 11 12 12 11 14 13 13 16 19 20 21 21 22 24 28 28 32 37 48 59 62 62 62 62 61 60 59 59 60 60 60 61 61 62
12 15 15 15 17 16 12 13 13 12 10 9 14 14 17 14 12 17 21 24 26 25 23 23 27 30 31 42 50 55 61 61 63 62 60 59 58 56 58 58 58 60 62 62
14 14 14 15 16 18 15 16 14 16 18 19 19 17 13 13 12 15 31 34 40 42 36 26 25 30 31 44 52 54 60 60 62 60 60 58 57 56 56 57 57 59 60 60
13 14 15 17 18 17 17 17 16 18 19 19 17 14 12 12 32 34 37 38 40 42 43 45 46 36 29 41 51 55 58 59 61 60 60 58 57 55 55 56 57 58 58 58
15 12 13 16 18 20 22 20 14 14 17 16 19 21 15 31 35 37 37 37 40 41 44 45 47 50 50 38 51 56 57 58 60 59 59 58 57 55 56 56 58 58 56 56
11 9 13 16 17 17 18 19 15 14 14 15 25 27 20 36 36 35 36 37 40 42 44 46 48 49 51 49 54 57 57 57 59 59 58 58 56 55 55 57 57 57 57 57
23 18 25 22 18 15 17 27 21 22 23 20 15 30 34 39 34 33 35 38 39 41 44 45 47 48 50 53 56 58 58 58 58 58 58 57 56 55 55 58 58 58 57 56
24 22 19 20 30 20 19 22 24 24 21 13 11 12 16 37 33 31 35 38 39 40 43 43 44 46 52 57 58 58 58 57 57 58 58 57 55 55 57 58 58 58 58 57
24 27 20 21 32 25 20 21 26 29 25 20 20 26 40 38 40 33 35 37 39 39 41 41 41 42 44 52 56 57 57 57 57 58 57 56 55 55 55 57 57 58 59 58
30 26 21 19 21 33 32 19 24 27 23 21 23 24 41 41 34 34 36 38 38 38 39 38 38 38 40 42 47 56 57 57 57 58 55 55 54 54 55 56 56 56 57 58
25 21 18 15 15 31 32 32 31 29 31 30 28 26 34 29 26 36 37 37 37 36 36 36 35 36 36 38 40 44 57 56 56 56 55 55 56 56 55 55 55 55 56 56
33 24 18 18 18 23 28 31 29 31 30 28 30 30 35 35 36 38 38 37 35 35 34 33 33 33 34 35 37 39 44 55 56 56 55 55 55 55 55 55 56 56 56 56
31 24 21 21 21 22 25 33 26 28 30 30 28 26 36 39 38 37 37 35 34 33 32 31 31 32 33 34 34 36 38 44 50 50 49 50 50 51 51 50 51 50 49 47
25 21 25 21 20 21 28 30 31 32 32 30 22 30 36 36 35 35 34 32 31 31 31 30 30 31 31 32 33 34 35 38 42 43 43 43 44 43 42 42 42 42 41 40
22 22 22 17 19 28 27 21 23 18 28 27 27 33 33 33 31 29 31 30 29 29 29 29 30 30 31 31 32 32 34 36 37 38 39 39 38 38 37 37 37 36 36 35
21 23 25 19 22 20 19 16 17 30 30 29 29 30 33 32 30 30 30 28 28 28 28 29 29 30 31 31 31 32 33 33 33 34 35 35 35 34 34 33 33 33 33 33
22 24 24 22 23 20 22 21 20 23 32 30 29 30 31 32 31 28 29 29 28 28 28 29 30 30 31 31 31 31 31 31 31 31 32 33 33 32 32 31 31 31 31 31
21 29 26 27 18 16 30 26 25 23 28 33 31 30 29 32 30 25 29 30 29 29 29 29 29 30 30 30 31 30 29 30 30 30 31 32 33 32 32 32 31 31 30 29
20 26 25 25 18 28 30 29 26 19 26 32 30 28 26 24 26 27 29 29 29 29 30 30 30 29 29 30 31 29 29 29 30 31 31 32 32 32 32 33 33 32 31 29
20 19 19 19 16 21 30 29 27 30 33 31 28 27 26 27 27 28 29 29 29 29 30 30 28 28 30 30 29 28 28 30 31 31 30 30 30 31 32 32 32 32 31 30
26 29 29 29 27 32 30 30 30 32 32 31 30 29 27 26 27 27 27 27 27 29 28 28 27 28 29 30 31 27 28 29 28 27 27 27 28 28 28 26 28 30 30 29
31 28 29 30 31 29 29 30 29 30 31 31 31 30 28 26 27 27 28 28 27 27 27 28 26 25 25 27 30 30 30 30 28 26 25 24 23 23 25 24 24 23 26 25
28 28 26 29 30 29 28 29 29 29 29 28 29 30 29 26 26 26 26 26 26 26 26 26 25 24 24 24 25 27 28 28 28 27 26 25 22 21 21 21 22 21 23 24
29 26 25 25 29 30 28 28 29 28 28 27 26 26 27 26 24 24 24 25 25 24 25 24 24 24 23 24 24 25 27 27 25 25 26 25 23 21 19 18 17 18 19 19

GFSCGP_sfc_30mbdewp_093.txt.gz
Dewpoint
17 12 10 10 11 13 12 11 9 12 14 12 11 13 13 12 10 9 9 10 11 15 16 17 21 27 26 26 30 60 63 64 64 63 64 63 62 63 63 63 62 60 62 62
21 17 17 15 12 12 12 11 11 13 14 11 9 10 14 13 13 13 12 12 13 15 16 18 20 25 30 28 35 60 63 64 63 63 63 63 62 61 61 61 61 62 62 62
15 20 21 19 16 14 14 13 12 11 11 11 11 11 12 13 13 16 16 15 16 16 18 19 21 24 29 32 44 62 63 63 63 63 61 60 60 60 59 59 60 61 62 62
16 16 15 16 15 16 14 16 15 15 13 12 13 11 16 19 19 19 19 29 24 41 43 35 24 27 29 33 57 62 63 63 62 62 60 59 58 58 59 58 59 60 62 62
17 16 15 14 15 16 17 19 18 17 14 17 20 19 19 20 18 14 38 40 42 43 45 45 47 49 43 43 61 63 62 62 62 61 60 59 58 57 58 59 59 60 60 61
17 17 14 13 15 17 19 18 18 17 16 15 17 19 17 16 17 38 40 42 43 44 45 46 48 49 50 50 59 62 61 62 62 60 60 59 58 57 57 57 57 59 61 61
19 21 20 13 11 16 19 19 15 15 15 15 21 25 23 33 37 41 41 41 43 44 45 46 46 47 49 50 51 60 60 61 61 60 60 59 58 56 56 56 58 58 57 57
20 15 21 21 14 14 18 19 23 14 14 15 23 25 25 40 40 42 40 41 42 43 44 44 44 46 47 53 55 57 60 61 60 60 59 59 57 56 56 57 57 57 56 56
25 21 24 22 23 25 18 19 25 26 24 20 19 20 29 38 37 40 39 39 40 41 42 42 42 43 44 48 57 58 59 60 60 59 59 58 57 56 57 57 58 57 57 56
21 19 21 20 29 25 26 20 21 28 22 19 17 16 31 37 37 41 38 38 39 40 40 39 39 40 41 44 50 58 59 59 59 59 59 58 56 56 58 57 57 57 57 56
28 24 21 21 21 25 26 25 22 25 25 20 21 26 38 37 38 41 38 38 37 37 37 36 37 38 38 41 44 49 58 57 58 58 58 57 55 57 58 57 57 57 57 56
28 24 20 18 19 19 30 33 33 28 23 26 25 25 37 37 40 42 37 36 35 35 34 34 35 35 36 37 40 42 47 57 57 58 57 56 55 56 57 57 58 58 58 57
26 20 13 6 13 25 29 31 32 32 29 25 23 29 37 40 39 36 35 34 34 33 32 32 33 33 34 35 37 39 42 48 57 57 56 56 55 55 55 57 57 58 58 58
29 24 16 10 12 18 19 24 24 31 29 28 31 31 37 38 36 35 34 33 32 31 31 31 31 32 33 34 35 37 39 43 56 56 56 56 55 55 56 56 56 56 55 56
28 22 23 23 23 23 22 21 22 29 33 29 31 31 34 35 35 34 32 31 30 30 30 30 30 31 31 32 33 35 37 40 44 49 49 49 50 50 49 49 48 47 46 45
31 23 22 20 20 20 19 24 31 31 32 33 31 32 35 33 33 32 30 29 29 28 28 29 29 30 30 31 32 33 35 38 38 40 41 43 44 43 42 42 41 41 40 40
19 20 20 14 19 20 20 29 28 31 35 33 30 33 33 30 29 29 29 28 28 27 27 28 29 29 30 31 32 32 33 34 35 35 36 36 38 38 37 37 36 36 36 36
17 20 24 18 19 17 26 28 34 31 30 30 30 32 31 29 29 28 29 27 26 27 27 28 28 29 30 31 32 32 33 32 32 32 33 33 33 34 34 34 33 33 33 32
19 19 21 19 18 27 30 32 30 30 29 30 29 29 30 30 28 27 28 28 27 28 28 28 29 30 30 30 31 31 31 31 31 31 31 32 32 32 32 31 31 31 30 30
19 21 24 23 19 20 27 29 30 31 24 30 28 27 28 31 27 22 28 28 28 29 29 29 29 29 29 30 31 30 29 29 29 30 31 32 32 32 31 31 30 29 29 28
21 25 22 21 20 26 29 29 29 22 24 29 27 25 24 23 25 27 29 29 29 29 29 29 29 28 29 30 30 28 28 28 29 30 30 29 30 31 31 31 31 29 28 27
20 24 25 26 23 19 28 28 26 30 31 29 27 25 24 26 27 27 27 27 28 28 28 29 28 28 30 30 28 26 25 27 27 27 27 27 27 28 28 31 31 31 29 28
26 30 26 27 24 30 28 29 32 32 31 29 27 27 26 25 26 26 27 27 27 27 27 27 26 26 27 30 29 26 27 27 26 25 24 24 24 25 25 25 25 26 28 26
28 29 29 27 28 28 29 29 30 30 30 29 27 26 26 26 26 26 26 26 26 26 26 26 24 24 24 26 28 29 29 27 25 23 23 23 22 22 23 23 23 24 23 22
26 27 29 27 29 28 28 29 30 28 27 27 29 28 26 25 25 25 24 24 25 25 25 24 23 23 24 25 26 28 29 29 28 25 23 22 21 21 21 22 22 22 23 22
28 26 24 22 28 27 28 29 29 28 27 26 25 25 26 24 23 23 23 24 24 24 24 23 23 22 23 23 25 26 26 27 25 25 25 22 20 18 17 16 17 19 20 20

GFSCGP_sfc_30mbdewp_096.txt.gz
Dewpoint
18 11 9 8 11 14 14 14 13 12 12 13 13 12 11 11 13 13 14 13 12 11 12 15 18 20 22 25 29 61 64 65 65 64 63 63 62 62 63 63 63 63 63 63
23 17 15 14 13 12 12 11 11 12 13 13 12 11 10 11 12 13 14 15 15 15 15 14 16 18 22 24 27 55 63 65 64 64 63 63 62 62 62 63 63 62 62 62
21 19 21 19 18 17 15 12 12 13 14 13 11 10 12 14 14 14 16 17 19 22 20 18 16 18 20 26 29 54 62 64 64 64 64 63 61 61 61 62 62 61 61 61
13 14 15 15 17 19 16 17 15 15 16 14 14 12 15 16 18 20 21 25 43 45 46 46 45 45 48 48 35 49 62 63 64 64 62 61 60 60 60 60 59 60 62 62
18 17 16 15 15 16 15 17 18 18 17 16 17 15 14 16 17 19 23 43 44 45 46 46 47 48 49 50 52 58 62 63 63 62 62 61 60 59 59 58 58 59 61 62
19 20 19 17 16 15 16 18 18 18 17 14 16 16 15 15 27 39 42 44 45 45 45 45 45 47 48 49 53 60 62 63 62 61 61 60 59 58 58 58 57 58 58 60
18 14 16 21 20 18 14 18 16 15 14 13 14 16 16 24 39 40 41 42 43 43 43 42 42 43 45 46 50 56 62 62 62 61 60 59 58 58 58 58 57 58 58 59
22 17 21 23 22 22 18 15 15 16 16 17 22 19 25 39 40 42 41 43 41 40 40 39 40 41 42 44 48 55 61 61 61 61 60 59 58 57 57 58 58 58 58 58
22 22 21 21 22 25 23 17 21 19 21 22 22 20 31 38 39 40 39 41 39 37 37 37 38 39 39 42 45 51 60 61 61 60 59 59 58 57 56 57 58 57 57 56
24 18 20 21 17 16 26 27 22 24 18 15 19 19 25 35 36 39 40 38 36 35 34 35 35 37 38 40 42 46 54 59 60 60 59 58 57 57 57 57 57 56 56 56
24 23 19 18 14 17 14 24 29 29 23 18 17 22 37 36 38 38 39 35 33 33 32 33 34 35 36 38 39 42 45 54 53 55 59 58 57 57 57 57 57 56 57 56
26 22 19 16 17 17 16 17 32 26 24 26 24 25 38 38 40 38 34 33 32 31 31 31 32 33 34 35 36 39 41 46 52 53 59 58 58 57 57 57 57 57 56 56
24 19 13 7 6 19 21 20 29 30 30 26 24 25 37 38 34 34 33 31 31 31 30 30 30 31 32 34 35 36 38 41 47 57 57 57 57 57 57 57 57 57 57 56
27 23 16 11 12 20 19 21 23 25 23 25 25 30 35 33 35 34 32 31 29 29 29 29 29 30 31 32 34 35 36 40 44 56 56 56 56 56 56 55 55 56 57 57
25 20 22 23 21 20 18 18 17 18 22 26 29 30 31 33 32 30 30 29 28 28 28 28 29 29 30 31 32 34 36 38 40 43 47 50 51 50 50 49 48 47 48 46
30 20 23 16 17 16 18 20 20 21 29 31 33 29 33 32 31 29 28 28 27 26 27 28 28 28 29 30 31 32 34 36 37 38 38 41 42 43 42 42 42 41 40 40
21 19 15 12 17 18 14 16 18 31 31 33 29 30 32 29 27 27 27 26 26 26 27 27 28 28 29 30 31 31 32 34 35 34 35 36 36 36 36 37 37 36 36 36
18 17 17 14 17 12 28 33 31 29 30 31 31 30 29 27 27 27 27 26 25 26 26 27 28 28 29 30 31 31 31 32 32 32 32 33 32 32 32 32 32 32 33 33
19 18 15 15 16 18 25 30 29 29 26 30 27 28 29 27 25 25 28 27 26 27 27 27 28 29 29 30 30 30 29 30 30 30 31 31 31 30 30 30 29 30 30 30
18 18 17 21 17 16 25 28 30 34 22 27 25 25 29 29 25 21 27 28 27 27 28 27 28 28 28 29 29 27 27 27 27 28 29 31 31 31 29 29 28 29 28 28
21 21 18 19 19 24 28 29 30 21 23 27 25 24 24 23 25 27 28 28 28 28 27 26 26 27 27 28 28 26 25 25 26 27 28 28 29 30 31 30 30 28 27 27
23 22 22 23 20 17 29 28 25 29 29 27 25 24 24 24 25 25 26 25 26 25 25 25 25 25 27 28 26 25 24 25 26 26 25 25 25 26 28 29 29 28 26 25
23 26 24 25 21 28 30 29 32 31 28 28 27 27 25 24 24 25 25 25 25 24 24 24 24 24 26 28 27 24 25 25 24 23 23 23 24 24 25 25 25 25 25 24
27 29 26 24 27 28 29 29 30 29 28 29 28 26 26 24 24 24 24 24 24 24 23 23 23 23 24 26 27 28 28 26 24 22 21 22 22 22 23 23 23 22 22 21
24 26 26 25 27 28 28 29 28 28 28 28 27 26 24 23 23 23 22 22 23 22 23 22 22 22 22 24 25 26 28 28 24 21 20 20 20 21 21 22 22 22 23 22
27 25 23 21 27 26 26 28 30 27 26 26 23 23 23 23 22 22 22 23 22 22 21 21 21 20 21 21 22 23 25 26 25 25 22 19 16 16 17 18 20 22 23 23

GFSCGP_sfc_30mbdewp_099.txt.gz
Dewpoint
17 14 10 8 11 14 16 15 14 13 13 12 11 11 13 14 12 12 12 13 14 15 15 15 15 16 19 22 25 46 61 65 65 65 64 64 63 64 64 65 64 64 64 63
23 15 15 15 13 12 11 10 10 12 12 12 12 13 14 13 12 12 14 14 15 16 16 19 22 19 18 18 24 38 58 64 65 64 64 63 63 64 64 64 64 64 63 63
18 22 23 19 17 16 16 14 15 14 15 15 14 14 15 16 17 17 18 18 24 41 46 47 47 46 47 41 31 35 57 63 65 64 64 62 62 61 61 61 62 63 63 63
14 16 16 14 15 18 17 19 19 17 16 13 16 14 16 17 17 18 23 32 45 45 45 45 45 46 48 49 50 46 55 63 64 64 63 62 61 60 61 61 62 62 62 62
15 18 16 15 15 16 14 16 17 18 17 17 15 15 14 16 16 23 41 45 44 44 44 44 44 44 46 46 48 52 51 61 63 64 63 62 61 60 60 61 60 61 61 61
18 20 19 18 18 18 18 15 16 18 17 14 14 14 13 13 24 39 42 41 41 41 42 42 42 43 44 44 46 49 56 60 62 63 63 62 60 59 59 59 59 59 60 61
21 16 19 23 21 22 22 17 12 11 13 12 18 19 15 36 40 40 41 41 40 38 39 39 39 39 40 42 43 46 52 61 62 63 63 61 60 59 58 59 59 58 58 59
19 9 22 21 23 16 20 18 13 11 14 15 21 17 19 38 40 39 39 40 38 37 36 37 37 37 38 40 42 43 49 62 62 62 62 61 59 59 58 58 58 58 57 57
19 21 21 21 18 13 19 21 25 21 20 18 18 21 36 37 37 40 39 38 36 35 33 34 35 35 36 38 41 43 46 61 61 61 60 59 59 59 58 58 58 58 58 58
23 12 21 20 12 17 19 22 22 25 18 14 16 19 19 33 36 38 38 36 35 33 32 32 32 33 35 37 40 42 44 49 59 60 60 59 58 58 58 58 57 57 57 57
22 20 17 13 13 10 13 9 19 27 24 22 16 17 35 36 38 39 35 34 33 32 31 30 31 32 33 35 37 40 41 45 49 57 59 58 58 58 58 57 57 57 56 56
25 21 17 15 16 17 17 22 27 21 17 23 23 23 37 36 36 35 33 33 31 30 30 29 30 31 32 33 35 37 39 42 44 50 57 56 57 58 57 57 57 56 56 56
24 17 12 5 10 16 17 17 21 25 26 22 21 26 36 35 34 33 32 31 29 29 28 29 29 30 31 32 33 35 37 39 41 47 57 57 57 57 57 57 57 56 56 55
25 21 15 9 10 21 19 19 18 19 18 19 20 21 33 33 32 32 31 29 28 27 28 28 28 29 30 31 32 33 35 38 38 42 54 57 57 57 57 57 57 57 56 56
24 19 21 21 21 22 19 17 17 18 18 18 17 25 31 31 30 30 29 28 27 27 27 27 27 28 29 30 31 32 34 36 36 38 40 43 50 51 51 51 51 50 50 50
28 17 23 21 17 15 15 16 17 18 21 22 20 25 32 31 31 27 27 26 25 26 26 27 27 28 28 29 30 31 32 34 35 34 34 37 40 42 42 42 42 42 42 41
21 21 17 10 12 14 10 17 20 17 30 28 28 30 31 28 25 25 25 25 24 25 25 26 27 28 28 29 30 30 30 32 33 33 33 32 33 34 35 35 35 35 36 36
17 17 16 12 12 6 18 30 28 27 29 31 30 30 29 26 26 26 26 24 24 25 25 26 27 27 28 28 29 28 29 29 30 31 31 32 31 31 31 31 31 32 32 32
19 17 14 10 14 14 18 28 27 26 24 28 28 29 27 26 24 24 27 26 25 26 26 27 27 28 28 27 28 27 27 26 27 27 29 30 31 31 30 29 29 30 29 29
19 19 14 18 14 13 23 27 31 31 20 26 24 25 28 27 24 21 26 27 26 26 26 25 27 27 26 27 26 24 24 24 24 25 26 28 30 30 29 29 28 29 28 28
18 18 15 14 15 20 26 29 32 23 22 26 25 25 27 24 24 25 26 25 26 26 26 26 26 26 26 26 24 23 23 23 24 25 26 26 27 28 28 28 28 27 27 27
23 21 19 19 17 16 28 29 24 27 28 26 24 24 23 23 24 24 24 24 24 24 24 25 24 25 27 26 23 23 22 24 24 24 24 24 25 25 26 26 26 26 26 25
20 25 22 23 20 27 29 27 30 30 27 27 25 25 24 22 23 23 23 23 23 23 23 24 23 24 25 26 26 23 24 24 23 22 22 23 23 24 24 23 23 23 24 24
26 29 24 23 26 27 28 28 28 28 27 27 26 26 23 22 22 22 22 22 22 22 22 23 22 21 22 24 25 27 25 23 21 21 21 21 22 22 23 22 22 22 21 22
24 27 24 24 26 26 27 27 27 27 26 25 25 24 23 22 21 21 21 21 21 21 21 21 20 20 21 22 23 24 26 25 20 18 18 19 19 20 21 23 22 22 24 23
26 24 23 20 26 25 25 28 28 25 24 24 22 22 23 21 21 21 20 20 19 19 19 19 19 19 19 20 20 22 23 23 24 22 19 17 17 17 18 20 21 24 24 23

GFSCGP_sfc_30mbdewp_102.txt.gz
Dewpoint
17 16 15 15 13 13 16 15 14 13 12 12 10 11 12 13 14 14 14 13 14 16 17 33 45 47 40 26 21 23 30 58 65 65 64 63 63 63 64 64 64 64 64 63
23 16 16 14 12 11 11 11 12 13 14 12 13 14 15 15 15 15 15 16 17 36 45 46 45 46 47 49 48 39 34 53 64 64 64 64 63 64 64 64 64 64 64 63
18 21 23 18 18 17 16 14 15 16 17 16 15 14 14 17 16 18 27 35 45 45 44 44 44 45 46 47 47 48 50 52 63 64 64 63 63 63 63 63 63 63 64 63
14 16 17 18 17 17 14 18 17 18 17 14 16 12 14 16 17 19 42 44 42 41 42 43 42 43 43 45 45 47 49 52 60 64 63 61 61 60 61 62 62 63 64 63
12 17 16 16 15 17 15 17 17 16 16 17 16 15 15 15 14 36 42 40 40 39 39 39 40 40 41 42 43 45 46 49 55 63 63 62 61 60 60 62 62 62 62 63
17 20 19 18 18 18 19 17 17 18 18 14 14 14 11 13 31 38 41 41 39 37 36 36 37 38 38 39 41 44 45 47 52 63 63 62 60 60 60 61 61 61 61 61
19 16 20 23 21 21 17 17 13 11 13 11 19 15 14 30 39 40 40 39 37 36 34 34 34 34 35 36 39 41 43 45 49 61 63 62 61 60 60 60 60 60 60 60
10 12 20 20 16 10 13 19 16 11 12 15 18 13 17 38 39 38 39 38 36 34 33 33 33 33 33 35 37 40 41 44 48 60 62 62 62 60 59 60 60 59 59 60
19 18 21 18 16 12 14 20 24 21 21 19 18 19 35 38 38 39 38 36 34 33 32 31 32 32 33 34 36 38 41 43 48 62 60 62 60 59 59 59 59 59 58 58
22 9 21 18 13 15 13 11 10 22 15 12 14 18 19 33 35 35 35 34 33 31 31 30 30 31 32 34 35 37 40 42 46 52 61 60 59 59 58 58 58 58 58 58
19 15 18 11 10 8 11 8 14 26 24 17 15 19 35 34 35 35 34 33 32 30 29 29 29 30 31 33 34 35 38 41 44 47 55 59 58 58 58 58 58 58 57 57
25 21 14 9 14 18 17 23 25 16 13 21 21 18 36 36 35 34 33 32 29 28 28 28 28 29 30 31 32 33 36 38 41 44 50 58 58 58 57 57 57 57 56 56
22 17 10 7 15 18 17 17 21 23 23 17 16 16 36 36 34 32 30 30 29 27 27 28 28 29 29 31 32 32 34 37 39 41 49 56 57 57 57 57 56 57 56 56
23 18 12 4 9 19 16 18 19 18 15 12 16 17 19 31 31 30 29 30 29 26 26 27 27 28 28 30 31 31 33 35 37 37 38 41 48 56 57 57 57 56 56 55
22 16 20 20 20 21 20 20 19 17 15 15 13 14 18 31 29 28 28 28 26 25 25 26 26 27 27 28 29 30 31 33 35 35 35 35 37 42 49 52 55 54 54 53
26 14 21 17 20 21 16 13 15 16 17 17 18 18 30 30 28 26 26 26 24 24 24 25 25 26 26 27 27 28 29 31 33 34 34 34 33 34 36 40 42 42 41 41
20 18 17 11 11 11 7 13 18 18 24 19 18 22 29 26 24 24 24 24 23 24 25 25 25 26 26 27 28 27 28 29 30 31 32 33 33 31 32 33 35 35 35 35
20 18 15 13 12 3 7 29 29 27 27 29 31 30 29 25 25 25 24 23 23 24 24 25 26 26 26 27 26 27 27 27 27 28 30 31 32 32 31 31 30 31 31 31
19 17 14 10 10 7 15 25 25 25 22 27 28 26 25 24 23 23 26 25 24 24 25 25 27 26 26 25 26 26 25 25 25 25 27 28 30 30 30 29 29 29 28 29
20 19 13 14 10 11 21 26 29 30 20 26 26 28 25 26 22 20 25 25 25 25 25 25 26 26 25 25 25 23 23 23 23 24 25 27 27 27 27 28 27 28 28 28
19 20 15 12 14 16 24 27 31 21 19 25 25 26 29 21 23 23 25 24 24 24 25 25 25 25 26 25 24 22 21 21 23 25 25 25 26 26 27 26 27 27 27 26
20 17 16 18 15 14 26 27 22 25 26 25 24 24 22 22 22 22 22 22 22 22 23 23 23 23 25 26 23 22 21 23 23 23 23 23 24 24 25 25 25 26 26 25
19 24 21 22 20 26 27 26 29 29 26 25 24 24 23 21 21 21 20 21 21 21 22 23 22 22 23 24 25 22 22 21 21 21 22 23 23 23 23 23 23 23 24 24
25 28 23 24 24 25 27 27 27 27 26 26 26 24 22 20 21 20 20 21 20 21 20 21 20 20 20 22 23 24 25 20 19 19 20 20 22 22 22 22 23 22 22 22
24 26 25 23 25 25 26 26 26 25 25 24 24 23 22 21 20 20 19 19 20 19 20 19 19 19 19 20 20 22 23 24 18 16 18 18 19 21 22 23 24 23 25 25
26 23 22 19 26 24 24 26 26 24 23 23 21 21 21 21 20 18 18 18 18 18 18 18 17 18 18 18 19 20 21 22 21 17 14 16 17 17 18 18 18 22 24 23

GFSCGP_sfc_30mbdewp_105.txt.gz
Dewpoint
18 17 16 15 14 13 14 14 11 12 14 14 16 14 14 15 15 16 17 18 18 26 44 46 46 46 47 48 49 50 49 39 44 60 63 63 62 62 63 63 64 64 64 64
18 17 18 19 16 13 11 11 13 15 16 15 15 15 16 17 17 17 18 27 43 44 43 44 44 44 45 46 47 48 49 50 47 53 60 61 61 62 63 63 63 64 64 64
22 22 22 16 15 14 16 17 17 17 17 18 16 13 15 17 17 33 44 44 42 40 40 41 41 42 42 43 44 45 47 49 51 53 59 62 62 63 63 63 63 63 64 64
18 20 22 21 20 20 17 18 16 16 17 11 16 9 13 15 16 37 42 41 40 39 38 38 39 39 39 40 41 42 44 47 49 53 57 60 59 59 60 62 62 63 63 63
12 15 16 15 15 17 15 18 18 18 17 17 15 12 12 16 14 33 41 41 40 38 36 36 36 37 38 38 39 41 42 45 48 50 54 60 60 60 60 62 63 63 63 63
15 20 18 18 19 18 19 19 18 19 18 14 13 11 6 12 20 36 41 40 37 36 35 35 35 35 36 37 37 38 40 42 45 48 52 58 60 60 60 61 62 62 62 62
19 17 21 24 21 20 20 18 10 10 14 9 16 14 10 25 39 40 39 37 36 35 33 33 33 34 34 35 35 36 38 40 43 46 51 55 61 60 60 60 61 61 61 62
9 12 20 19 13 12 16 19 12 9 10 13 20 15 15 39 39 39 38 36 35 34 32 32 31 31 33 34 34 35 37 38 42 45 49 57 60 61 60 61 61 60 60 61
17 17 20 16 16 13 17 20 21 19 22 15 12 18 35 36 35 37 36 35 33 32 30 30 30 30 32 33 34 35 36 38 41 45 48 60 61 61 61 61 61 60 60 60
21 15 21 19 15 12 15 11 12 24 8 2 2 13 16 30 32 35 34 33 31 29 29 29 29 30 31 32 33 34 35 37 40 43 47 58 61 61 60 60 61 60 61 60
19 13 16 13 10 8 8 6 16 21 23 7 -1 6 32 33 33 32 32 31 30 29 28 28 28 29 30 31 32 33 34 36 38 41 45 51 60 60 59 59 60 59 59 59
23 19 11 10 18 20 17 19 21 9 8 19 17 10 36 33 34 33 31 29 29 29 27 27 27 28 28 29 30 31 33 34 37 39 43 54 58 58 58 58 58 58 58 59
22 16 7 13 16 17 17 18 23 24 21 16 10 9 35 33 33 31 29 28 28 28 27 26 26 27 27 28 29 30 31 33 36 38 39 43 45 55 57 57 57 57 57 57
22 17 8 -1 9 16 16 18 17 17 14 9 11 12 17 18 30 29 28 28 28 28 27 26 26 26 27 27 28 28 30 32 35 36 37 37 38 41 47 57 57 56 57 56
22 14 18 15 16 20 18 16 17 16 16 13 11 11 15 18 29 28 28 27 26 26 25 25 25 26 26 26 26 27 29 30 32 34 35 35 35 35 37 40 46 56 56 55
26 17 21 16 16 15 12 12 14 13 13 13 12 13 17 29 28 26 26 26 25 25 24 25 25 25 25 25 26 26 28 28 30 31 32 34 34 33 32 34 36 38 40 40
22 19 15 8 12 9 2 9 14 17 23 19 17 18 28 26 24 24 24 25 24 24 24 24 25 25 26 26 26 26 27 27 27 29 30 32 33 33 32 31 31 32 33 34
20 18 15 11 12 -3 7 28 28 27 26 26 27 31 28 24 24 24 25 24 23 23 24 24 25 25 25 26 25 26 26 26 25 26 27 28 30 31 32 31 30 30 31 31
19 17 15 9 9 7 17 24 25 24 24 26 26 25 24 24 24 22 25 25 24 24 25 25 26 26 25 25 25 24 24 25 24 24 25 26 27 28 29 30 29 29 29 29
20 19 14 14 8 6 19 24 27 29 20 25 26 25 24 25 22 19 24 24 24 25 25 24 25 26 24 25 24 22 22 22 23 24 25 26 26 26 26 27 27 29 27 27
20 20 15 14 13 14 23 26 30 19 18 24 25 27 28 22 22 23 24 23 24 24 24 25 24 23 24 25 23 22 21 21 23 25 25 25 26 26 27 27 28 28 27 26
18 16 15 16 14 12 25 23 21 24 25 24 24 24 22 22 22 22 22 22 22 22 22 23 23 23 24 24 23 21 21 23 23 24 24 24 25 26 26 26 27 27 27 26
19 24 21 21 20 25 27 25 27 28 25 24 23 24 22 21 20 21 21 21 21 21 22 22 21 21 22 23 23 21 21 21 21 22 23 24 24 25 25 26 25 25 27 26
26 28 22 24 24 24 26 26 27 26 25 25 25 24 22 20 21 20 21 20 20 21 20 19 19 19 19 20 22 22 22 19 20 21 21 22 23 23 24 24 25 25 25 25
24 26 24 23 25 25 25 25 25 25 25 24 24 23 22 21 20 20 19 19 19 19 18 18 17 17 18 18 19 21 20 16 11 15 18 19 20 21 21 23 24 24 25 24
25 23 22 20 26 23 23 25 26 23 23 23 21 21 21 20 18 18 17 18 18 17 17 16 17 17 18 18 18 20 20 18 15 13 14 17 17 18 18 19 19 22 22 22

GFSCGP_sfc_30mbdewp_108.txt.gz
Dewpoint
18 15 13 14 15 14 11 11 10 12 12 10 12 13 15 15 15 15 16 17 19 29 39 42 45 45 46 47 48 49 50 51 51 39 48 54 60 61 60 62 63 62 63 65
11 12 10 11 13 13 12 12 12 13 15 17 15 14 15 15 15 16 17 20 34 37 39 41 42 43 44 45 46 46 47 49 51 50 42 50 55 57 59 60 62 63 63 64
16 15 20 16 17 17 16 14 13 13 14 15 14 11 8 13 15 19 30 37 38 39 39 39 39 40 41 42 43 44 45 46 48 51 52 49 54 56 57 59 62 63 64 64
21 20 21 18 17 16 12 14 15 13 11 6 15 3 8 10 15 25 34 37 39 38 38 37 38 38 39 40 41 42 43 45 45 48 51 51 50 53 55 57 58 61 63 64
21 14 13 17 15 17 13 11 14 14 13 13 11 9 1 11 14 25 35 39 38 37 37 37 36 36 37 39 40 41 42 43 44 46 48 50 52 54 55 55 58 61 62 63
16 17 18 16 15 16 16 16 16 16 13 10 8 6 -5 8 11 28 38 38 38 37 37 36 36 35 35 37 39 39 40 41 42 44 46 48 51 54 56 55 58 60 62 63
15 15 19 22 18 18 17 15 11 10 10 4 10 5 1 21 32 35 38 37 37 36 35 34 33 33 34 35 37 37 37 38 40 41 43 46 48 53 55 57 57 59 62 62
13 15 18 18 17 15 15 14 8 1 -1 3 15 9 16 35 37 38 36 35 35 34 34 32 32 32 33 34 35 35 35 36 37 39 41 44 47 50 56 59 59 59 60 61
15 14 19 17 15 15 15 16 17 17 14 12 5 10 32 35 37 36 34 33 33 32 31 31 31 31 32 33 34 34 34 35 36 38 40 43 46 50 57 58 60 60 61 61
26 18 21 20 15 12 16 14 15 17 6 -3 -6 -2 5 29 32 32 32 31 32 31 30 30 30 30 31 32 32 33 34 34 35 37 40 43 45 50 58 59 60 60 61 61
25 20 16 17 14 12 8 5 8 13 11 2 -5 -5 31 33 33 32 30 30 30 30 30 29 29 29 30 30 31 31 32 33 34 37 39 42 48 59 58 59 61 61 61 61
22 14 9 9 15 17 11 7 4 5 -1 7 7 6 33 33 32 31 29 30 30 30 30 29 28 28 29 28 29 29 31 32 33 35 39 41 46 52 59 60 60 61 61 61
19 11 5 5 13 17 12 15 17 22 17 10 5 7 31 32 30 30 29 29 30 29 29 28 27 28 27 27 27 28 29 30 32 34 37 38 41 43 47 58 59 59 59 59
19 11 3 -7 6 12 14 13 14 15 12 7 4 4 12 17 16 23 28 29 29 29 27 26 27 27 27 26 27 27 28 30 31 33 34 36 37 39 41 44 51 57 58 58
19 11 10 8 7 11 7 8 11 10 12 10 9 10 13 13 14 29 29 28 27 27 26 26 25 26 26 26 27 27 27 28 29 30 31 33 35 35 35 37 38 42 48 55
25 16 17 11 11 10 7 7 7 8 9 9 8 9 10 18 28 28 27 27 26 26 26 26 25 26 26 26 27 27 27 27 28 28 29 31 33 34 33 33 34 34 36 38
20 17 13 5 6 6 3 5 5 5 10 12 16 19 22 27 26 26 26 25 24 25 26 26 26 26 27 26 27 27 27 28 27 27 27 29 31 32 32 32 31 32 32 33
16 17 11 6 13 1 20 22 23 21 24 28 26 26 29 29 26 25 26 25 24 25 25 26 26 26 27 27 26 27 28 27 26 26 27 27 28 29 30 31 30 29 29 30
17 12 11 9 5 5 14 25 24 24 24 27 27 28 26 25 24 23 26 26 25 25 26 26 27 27 27 26 27 27 26 26 26 26 26 28 28 27 28 27 28 29 28 26
20 16 13 13 9 6 23 25 26 29 19 26 28 25 25 27 24 21 25 26 25 26 26 25 26 26 25 26 27 25 24 24 25 26 27 29 29 28 28 28 27 28 27 26
20 19 16 14 14 16 24 27 29 18 19 24 26 29 27 24 25 24 26 25 26 26 26 27 26 24 24 26 25 24 23 24 26 28 28 28 29 29 29 30 30 29 28 27
18 18 17 19 16 14 25 25 22 24 25 25 26 28 24 23 23 24 24 24 24 24 25 25 22 23 24 24 23 22 23 25 26 27 26 27 28 29 30 29 30 30 29 27
21 25 24 23 22 26 27 26 28 29 26 25 24 25 24 22 22 23 23 23 24 24 21 19 18 19 20 22 22 21 19 24 25 25 25 25 26 27 27 27 27 27 28 27
27 28 25 23 25 25 26 27 27 27 26 26 26 24 24 22 23 22 23 23 22 19 17 16 16 16 16 17 19 18 14 17 22 22 23 24 24 23 24 24 24 24 25 24
24 26 24 23 25 25 25 26 26 26 26 25 25 25 23 23 22 22 21 21 19 17 16 16 15 15 15 16 17 18 15 13 11 13 15 18 19 20 20 21 22 22 23 22
24 24 24 22 26 24 24 26 27 25 24 24 23 22 24 23 21 20 20 19 17 17 16 16 15 15 16 17 19 19 19 18 17 16 16 17 17 17 18 18 17 17 18 18

GFSCGP_sfc_30mbdewp_111.txt.gz
Dewpoint
23 19 17 18 19 19 17 16 15 13 14 14 15 13 12 12 13 13 13 15 16 18 27 38 42 44 45 46 47 48 48 49 50 49 46 40 51 54 57 60 61 63 63 63
19 17 19 19 18 16 15 15 14 13 12 12 12 12 13 14 14 15 15 16 18 25 34 38 40 41 43 43 44 45 45 47 48 48 49 49 47 49 52 57 58 62 64 64
19 15 14 17 17 12 11 13 13 12 13 14 14 11 9 9 10 11 14 19 31 34 35 37 38 39 40 40 42 42 43 44 45 47 48 50 50 49 52 54 55 58 63 64
24 24 19 19 19 16 14 15 15 14 12 9 8 3 7 10 11 14 22 31 34 36 36 36 37 37 38 39 41 42 43 43 43 45 46 48 49 50 45 51 53 56 61 63
25 25 23 21 21 21 16 16 14 12 12 10 8 6 8 8 8 18 29 35 36 37 37 37 36 36 36 37 39 41 41 42 42 44 46 46 47 49 51 51 55 56 58 63
22 23 23 17 15 15 16 14 13 11 9 8 9 8 6 4 6 18 36 35 37 36 36 36 35 35 35 36 38 39 40 40 41 42 43 44 45 47 49 52 53 57 57 61
20 21 23 19 19 18 15 14 12 9 9 9 9 5 7 18 29 30 35 34 35 35 34 35 34 34 34 35 36 37 38 38 39 40 40 41 43 45 47 49 53 55 57 60
24 25 19 20 17 17 16 13 13 17 13 14 10 7 16 34 36 35 34 34 32 32 33 32 32 33 33 34 35 36 36 36 37 38 38 39 40 42 45 48 51 54 58 59
22 19 24 19 16 15 13 16 15 17 19 14 15 16 31 35 33 34 33 30 30 30 31 31 32 32 32 33 34 35 35 35 35 36 37 38 39 41 44 46 50 53 57 59
24 25 21 18 16 15 12 17 19 13 8 6 5 5 8 33 34 33 31 29 29 28 29 31 31 31 32 32 33 34 34 34 34 35 35 36 38 41 43 46 48 54 58 59
24 21 20 19 15 13 14 11 11 11 14 13 10 10 32 35 33 31 29 28 27 27 28 30 30 30 30 31 31 31 31 32 32 33 34 36 38 41 45 51 53 57 60 59
25 23 21 18 15 16 13 12 12 11 9 6 2 1 31 32 29 28 27 27 26 27 29 29 29 30 29 29 30 29 30 30 31 32 33 35 38 40 44 48 58 57 57 59
26 22 16 11 12 15 11 11 11 10 11 9 8 8 30 27 27 29 24 26 27 28 28 28 28 29 29 29 29 28 28 29 30 31 32 33 36 37 38 43 48 50 58 57
19 15 11 5 4 12 12 8 10 12 16 10 4 2 17 21 16 14 22 27 27 28 28 28 28 28 28 28 28 28 27 28 28 30 31 31 33 35 36 39 41 43 47 57
19 15 11 9 6 4 8 9 10 9 12 11 8 9 10 10 12 21 27 26 26 27 27 27 27 27 28 28 28 28 28 28 29 28 29 30 32 33 34 35 36 37 39 40
22 16 16 11 9 7 6 6 3 3 6 6 4 6 10 12 23 26 27 27 27 26 26 26 27 29 28 28 27 28 29 29 29 28 28 29 30 31 32 33 32 32 33 34
20 16 14 9 4 5 2 3 2 2 2 4 8 11 23 25 32 27 26 26 25 25 26 26 27 28 28 28 29 28 30 30 29 29 29 29 29 29 29 31 31 30 30 30
16 15 13 8 10 2 13 20 20 17 15 16 23 25 28 31 28 26 27 26 25 25 26 26 27 27 28 29 29 29 30 30 29 29 29 29 29 29 28 27 28 28 28 28
15 11 11 8 5 5 14 26 25 24 19 28 27 27 28 26 26 24 25 26 26 26 26 26 27 28 28 28 29 28 28 28 28 28 29 30 30 29 28 27 27 27 26 26
16 13 11 11 7 6 25 25 24 27 18 26 25 26 26 28 26 23 26 27 27 27 27 26 27 27 26 27 28 26 26 26 27 28 29 30 31 30 30 30 29 29 28 26
20 17 13 12 14 22 24 27 29 19 20 25 25 30 27 27 25 25 26 26 27 27 28 29 26 24 25 26 25 25 26 26 28 28 29 29 30 30 30 30 31 31 30 29
17 17 17 18 20 17 25 26 22 26 27 26 29 30 25 24 25 25 25 26 26 27 27 22 20 22 24 24 23 21 24 27 27 27 26 27 28 28 28 28 30 29 30 28
22 26 26 23 22 26 26 27 29 30 27 26 26 27 26 24 24 25 24 25 25 24 17 15 15 16 18 18 18 19 22 24 26 26 25 25 24 25 26 25 25 25 25 24
27 27 26 23 25 26 26 27 28 28 27 27 28 26 26 24 24 24 25 25 23 17 14 14 14 14 16 16 16 17 16 16 19 20 22 23 23 22 21 22 22 21 22 23
25 25 24 23 25 26 25 26 27 27 27 26 27 26 25 24 24 24 24 23 18 16 15 14 14 14 15 16 17 17 17 18 16 16 17 18 19 19 20 19 19 19 20 19
26 26 25 25 26 26 25 27 28 26 25 25 24 24 26 25 23 24 22 19 18 16 15 13 12 12 14 17 18 19 19 19 19 19 19 20 19 19 18 19 21 18 16 16

GFSCGP_sfc_30mbdewp_114.txt.gz
Dewpoint
23 24 23 22 22 21 20 18 18 18 18 17 16 14 16 17 16 16 18 17 16 16 31 40 43 44 44 45 46 47 48 49 50 50 51 51 49 49 58 61 63 64 64 65
19 22 24 24 22 20 19 18 17 17 16 16 15 13 13 13 14 13 15 16 16 17 34 39 40 42 42 42 44 44 44 45 47 47 49 50 51 53 53 54 56 61 64 64
23 22 21 18 16 14 14 14 16 14 13 15 14 12 13 15 16 15 15 16 23 27 36 37 37 39 40 41 42 42 43 44 45 46 46 47 49 51 52 50 50 59 61 64
23 21 19 19 18 17 14 18 18 16 14 16 16 12 13 13 10 12 14 28 35 36 36 36 37 37 37 39 41 42 43 43 42 44 45 46 47 47 49 51 52 54 57 58
25 23 21 23 24 23 20 21 23 21 22 22 16 14 13 13 9 11 25 36 36 36 36 36 35 35 36 38 39 41 41 41 41 42 43 44 45 46 47 48 50 52 55 56
25 26 25 25 28 26 18 16 20 23 19 17 16 13 11 11 15 15 35 35 35 36 36 35 35 35 35 37 38 39 39 39 40 40 41 42 42 42 44 45 47 49 52 55
23 22 22 26 25 20 18 17 14 21 18 15 13 11 11 35 33 36 36 34 34 33 33 32 32 33 34 35 36 37 37 37 38 38 39 39 39 40 41 42 45 46 49 52
18 20 20 23 24 21 18 19 22 16 15 16 28 21 25 35 38 37 33 32 31 30 30 31 31 32 33 34 34 36 35 35 36 36 36 37 37 38 39 41 42 45 47 50
20 20 23 22 23 21 20 19 23 22 25 19 19 26 36 34 33 32 30 30 28 27 28 28 29 31 32 33 33 34 34 33 34 35 35 35 36 37 38 39 41 43 45 48
20 18 28 25 18 17 15 14 17 28 20 13 12 11 26 33 32 31 30 28 27 26 26 28 29 31 32 32 31 32 33 32 32 33 33 34 35 36 38 40 41 43 44 47
20 24 27 26 20 17 16 11 13 16 15 19 12 13 34 35 35 34 28 27 25 26 27 28 29 30 31 30 30 31 31 31 30 31 32 33 35 35 38 39 41 44 47 48
28 27 24 23 20 17 15 16 16 13 12 13 11 12 32 35 33 28 26 26 26 26 27 28 29 30 30 29 29 30 30 30 30 30 31 32 33 34 36 37 40 43 46 54
29 29 20 18 22 17 14 14 13 16 17 14 13 12 30 27 24 27 26 26 26 27 27 28 29 29 29 29 29 30 30 29 29 29 30 31 32 33 34 36 37 39 44 48
27 24 23 21 17 14 15 13 10 12 14 13 12 10 13 27 21 19 25 27 26 27 27 28 28 28 28 28 28 29 31 31 30 29 30 30 31 31 32 34 35 35 38 40
20 18 18 17 13 11 7 6 10 8 10 11 15 14 14 11 18 24 26 26 26 26 27 27 27 27 27 27 28 30 30 31 31 30 30 30 30 30 31 32 32 33 33 35
22 20 18 16 13 9 5 4 4 4 4 7 7 9 10 12 27 28 27 26 26 26 27 26 26 27 27 27 29 29 30 30 31 31 30 31 30 29 29 29 30 30 31 30
22 20 16 11 8 5 4 6 5 5 4 4 6 14 27 29 30 27 27 26 25 26 25 26 26 28 27 28 29 28 29 31 30 30 30 30 31 29 28 27 27 27 28 29
19 18 15 12 11 5 5 20 21 20 18 20 24 27 29 28 27 26 27 26 25 25 25 26 27 27 28 29 29 30 30 29 29 29 29 30 30 30 30 28 27 26 26 26
18 16 13 11 6 6 12 25 24 22 17 24 26 26 27 27 25 25 26 25 25 26 26 26 27 27 28 28 29 29 28 28 28 28 28 29 30 29 30 29 29 28 27 26
10 14 14 9 8 6 24 25 24 25 18 24 25 27 28 27 25 22 26 26 27 28 27 26 27 26 26 27 28 27 27 26 26 27 28 29 29 28 29 29 30 30 29 28
14 13 11 11 14 22 25 26 27 20 19 24 25 26 31 26 24 25 27 26 28 29 29 29 26 25 25 24 22 23 25 26 27 25 24 26 27 26 27 28 29 29 28 27
17 17 16 15 18 16 25 26 22 25 26 26 30 29 25 25 25 26 26 26 27 27 26 21 20 21 22 23 23 21 23 26 26 26 24 20 22 24 23 23 24 25 23 24
22 27 26 23 23 25 26 25 28 28 27 27 27 28 26 25 24 25 25 25 26 26 17 15 16 17 18 19 20 22 22 22 23 24 24 24 21 19 21 20 20 21 22 20
26 27 26 24 25 24 25 26 27 26 27 28 28 28 26 24 25 25 25 25 25 20 14 14 15 16 17 18 18 19 20 20 20 21 22 22 23 22 20 18 18 18 18 20
26 24 24 24 24 24 25 26 26 26 27 27 28 27 26 26 25 25 25 25 22 15 14 13 14 15 17 18 19 20 19 20 20 20 21 21 21 21 22 20 18 17 17 17
26 27 26 25 26 26 25 27 27 26 26 26 25 25 27 25 24 24 24 24 18 16 14 12 12 13 16 18 19 20 22 22 21 21 21 22 22 21 21 21 21 19 17 16

GFSCGP_sfc_30mbdewp_120.txt.gz
Dewpoint
28 26 23 23 23 24 24 23 22 23 23 20 19 18 18 18 17 17 17 18 29 42 44 43 43 43 43 43 43 43 43 44 43 44 44 45 45 46 48 51 52 53 57 59
26 23 24 24 23 23 22 23 23 24 23 21 18 19 21 21 22 22 19 16 37 43 41 42 42 42 42 42 42 41 41 41 41 42 42 44 43 47 46 48 46 49 48 50
21 22 23 23 24 24 24 22 21 20 22 24 23 22 22 24 23 23 24 23 38 40 39 39 39 39 39 39 39 39 39 39 39 39 40 40 41 42 43 42 43 44 45 47
28 27 26 26 26 25 22 22 22 24 22 18 24 20 22 22 22 26 35 37 38 36 37 36 36 36 37 38 38 38 38 37 37 38 37 38 38 38 39 40 41 41 43 43
28 27 27 27 27 28 27 28 27 25 24 21 22 21 20 21 19 33 36 36 36 35 35 36 36 35 35 36 36 35 36 35 35 35 36 36 35 36 37 38 38 39 41 42
30 31 29 28 28 28 28 25 22 20 19 17 18 20 19 33 36 35 34 33 33 33 34 34 34 33 33 33 34 33 33 33 33 34 34 34 34 34 34 35 36 38 39 40
28 28 26 27 26 28 28 27 25 19 17 15 22 20 28 36 37 36 34 34 32 32 34 34 33 32 32 31 31 31 31 31 31 32 31 32 33 33 33 34 35 36 37 38
20 19 21 28 26 25 28 27 25 17 16 16 20 16 29 37 37 38 38 37 36 35 34 34 33 32 30 30 30 30 30 30 30 30 30 31 31 32 33 34 34 35 36 37
19 19 24 22 25 27 24 22 26 23 24 21 20 29 35 37 36 36 36 36 37 37 36 33 32 30 30 29 30 30 31 30 30 30 30 30 31 31 32 33 34 35 36 37
20 17 27 28 21 20 24 25 22 26 19 16 18 19 28 34 33 36 35 35 35 35 34 32 31 31 30 29 29 29 30 30 30 29 29 30 30 31 32 32 33 35 35 37
26 20 23 27 23 20 17 17 16 25 26 19 16 15 32 33 36 35 34 31 28 29 29 29 29 28 28 28 28 28 29 29 28 29 29 29 30 31 32 32 33 34 35 36
28 26 22 25 26 22 20 18 18 21 19 19 16 14 36 36 36 32 27 27 28 28 28 28 27 27 27 27 28 28 27 27 29 29 29 29 30 30 30 30 31 32 33 34
27 25 20 20 25 26 25 21 19 22 21 19 17 15 34 35 35 29 27 27 27 27 27 27 26 26 26 26 27 27 26 27 29 29 30 30 31 31 29 29 29 30 30 32
29 26 21 16 19 23 20 23 20 18 21 22 20 19 18 31 30 27 28 27 26 26 26 26 25 24 25 26 26 26 27 27 29 29 29 29 30 31 31 30 30 29 29 30
25 22 25 24 23 25 29 28 24 20 18 15 15 16 27 28 27 27 27 26 25 25 25 24 24 25 25 26 26 26 28 28 29 29 28 28 30 31 31 30 30 30 29 29
24 21 19 18 19 18 20 21 16 11 9 12 10 25 28 27 27 26 26 25 25 25 24 24 24 25 25 26 27 27 27 28 28 27 27 28 28 29 29 29 29 28 27 28
23 21 19 18 14 9 9 12 11 10 24 21 12 26 27 26 27 26 25 25 24 23 23 23 24 25 25 26 27 26 26 27 26 26 26 26 26 26 27 27 27 26 26 26
24 22 22 19 12 11 19 25 23 24 26 28 29 28 26 25 25 25 25 24 23 22 22 23 23 24 26 27 27 27 25 23 22 23 23 24 24 23 25 26 25 25 25 25
26 22 19 14 13 16 22 23 22 18 20 25 27 26 25 25 23 24 25 24 22 22 23 24 25 25 24 25 26 27 27 26 22 21 21 21 20 20 22 22 23 23 23 23
23 22 17 16 12 9 13 26 26 22 17 24 25 27 25 23 21 21 25 24 23 24 25 25 27 27 26 25 25 25 25 26 24 22 20 20 19 17 18 19 21 20 21 22
17 16 14 14 12 16 25 26 26 17 15 23 25 26 28 25 24 24 26 25 25 25 26 27 25 23 23 24 25 23 23 23 25 23 22 20 20 19 18 18 18 19 19 19
12 13 13 13 11 9 25 25 23 24 26 26 26 26 26 23 24 24 25 26 26 26 27 26 23 23 23 23 23 22 22 23 24 24 22 21 20 19 19 18 18 17 17 18
15 17 18 19 16 25 27 27 28 29 26 27 25 25 24 23 23 24 24 25 25 26 25 23 22 22 23 23 23 22 22 22 23 23 23 22 21 20 19 18 18 18 18 16
27 28 22 22 24 25 26 28 28 27 27 27 26 25 24 23 23 24 24 25 25 25 24 22 21 20 19 20 20 22 23 22 22 22 22 21 23 20 21 18 16 18 19 19
26 27 24 24 26 26 26 26 26 27 27 27 26 25 24 23 24 24 24 24 24 24 22 21 20 20 20 21 21 21 21 22 20 20 20 21 20 21 20 21 16 15 19 19
27 27 23 20 25 23 24 27 27 26 26 26 25 25 26 25 24 24 24 24 23 18 19 18 18 18 19 20 20 20 22 21 21 19 20 20 19 19 19 19 17 15 14 17

GFSCGP_sfc_30mbdewp_123.txt.gz
Dewpoint
30 31 26 26 24 25 24 23 23 23 24 24 23 22 21 20 21 22 23 23 41 42 42 42 42 42 41 41 41 41 40 40 41 41 41 43 40 44 44 48 46 50 48 49
26 25 27 26 25 24 23 22 22 24 25 24 22 22 23 23 23 24 24 26 41 41 40 39 39 39 39 39 39 38 39 38 38 39 40 40 40 44 43 42 43 45 44 46
25 25 26 25 24 23 23 23 23 23 22 23 23 22 22 23 24 30 37 34 40 39 37 36 36 37 36 35 36 36 35 35 36 37 37 37 39 39 40 38 39 40 41 43
26 25 23 22 23 24 22 24 23 26 26 24 22 21 22 23 33 35 35 35 36 36 36 36 36 35 35 35 34 33 34 34 33 34 35 35 35 35 36 37 38 38 39 41
28 28 28 27 27 28 27 28 27 27 25 21 22 21 20 34 34 32 33 33 34 35 35 35 35 34 33 32 32 32 32 32 32 32 32 33 33 34 35 35 35 36 38 39
28 30 29 28 28 28 29 28 26 26 24 24 22 19 19 31 34 31 32 32 33 33 33 33 33 33 33 32 31 30 31 30 30 31 31 31 31 31 32 33 34 35 36 38
28 29 30 30 29 29 28 25 25 22 18 18 21 19 25 35 35 34 34 35 36 36 35 33 32 32 31 30 30 29 30 30 30 30 30 30 31 31 32 32 33 34 35 36
20 19 22 25 25 24 28 26 24 18 17 16 21 18 25 36 36 36 36 36 37 37 37 35 35 34 32 31 30 29 29 30 30 30 30 30 30 30 31 32 32 33 34 35
21 21 24 26 27 26 25 26 29 25 23 22 20 28 34 36 35 36 36 37 37 38 36 35 34 33 32 31 31 31 30 29 29 29 29 29 29 30 31 32 32 33 34 35
22 20 25 26 21 22 24 26 22 25 19 16 18 19 22 33 33 34 37 36 36 36 33 31 30 29 28 28 28 29 29 29 29 29 29 28 29 29 30 31 31 32 33 34
23 21 23 27 23 21 19 22 21 25 24 19 15 16 30 32 34 34 35 35 34 29 28 28 27 27 27 27 27 27 27 28 28 30 30 28 29 29 29 29 30 30 31 32
28 26 23 23 27 23 20 19 19 18 19 23 18 16 27 34 35 35 33 29 28 28 27 26 26 26 26 26 26 27 27 28 29 28 29 29 29 30 29 29 29 30 30 31
29 26 23 24 24 27 24 23 20 23 23 19 19 18 36 37 36 32 28 27 27 26 26 26 25 25 26 26 26 27 27 28 27 27 27 28 27 28 29 29 28 29 29 29
29 25 21 17 18 23 24 24 21 21 21 21 22 21 24 34 29 27 27 26 26 25 25 25 25 25 25 26 26 26 27 27 27 27 26 26 26 27 27 28 28 28 28 27
28 23 25 24 24 25 26 25 25 24 25 23 21 21 26 30 28 27 26 26 25 25 24 24 24 24 25 25 26 26 27 27 26 26 26 25 26 26 27 26 27 27 27 26
25 23 20 21 20 21 24 26 26 25 25 22 17 22 28 27 27 26 26 25 25 24 23 24 24 25 25 25 24 24 23 24 25 24 24 24 24 24 25 25 25 25 25 25
24 26 25 22 19 14 13 18 22 21 22 20 12 20 27 26 26 25 25 25 24 23 22 23 24 24 25 25 27 25 23 21 21 21 22 22 22 22 22 23 22 22 23 23
25 26 27 22 12 12 18 24 26 23 25 28 28 28 27 27 26 25 24 24 24 23 22 23 23 24 24 24 25 26 26 22 20 20 20 20 19 19 19 20 21 21 22 22
30 28 24 18 15 15 21 22 21 19 17 26 28 26 25 25 23 23 25 24 22 21 22 23 25 25 25 25 25 26 25 22 21 20 20 20 18 17 18 18 18 19 21 21
27 26 21 16 13 10 11 26 25 21 15 24 27 26 24 23 20 20 24 22 22 23 24 24 24 24 24 25 25 24 24 23 21 21 20 20 19 18 18 18 18 18 20 21
25 22 20 16 14 14 21 26 26 16 12 24 25 26 26 22 23 24 23 22 23 24 25 26 25 24 24 24 24 23 23 23 24 22 20 20 20 19 19 20 20 19 18 19
21 20 19 18 15 13 26 25 21 22 25 25 25 25 27 25 24 23 22 23 24 25 25 25 24 24 25 25 23 22 22 23 24 24 21 20 21 20 19 19 20 20 18 17
12 15 12 15 14 24 27 25 28 29 26 26 24 24 25 23 23 24 24 25 25 25 24 24 23 22 23 23 23 22 22 22 23 22 22 22 21 21 17 17 19 19 19 16
27 26 21 21 24 24 26 27 27 26 26 25 25 24 23 22 23 23 24 24 24 24 23 23 22 20 21 21 21 22 22 21 21 21 21 21 20 20 18 16 17 18 19 17
26 27 24 24 25 26 26 26 25 26 26 25 25 23 23 23 23 23 23 23 23 23 23 20 20 19 19 20 20 21 21 21 19 19 19 19 19 19 17 16 15 16 18 18
27 26 22 20 25 23 25 26 26 25 24 24 24 24 24 24 23 24 23 23 22 21 19 19 19 19 19 18 18 19 20 19 19 18 18 18 18 18 17 15 13 15 15 15